<?xml version="1.0" encoding="UTF-8" standalone="no" ?>
<gpx xmlns="http://www.topografix.com/GPX/1/1" xmlns:xsi="http://www.w3.org/2001/XMLSchema-instance" xsi:schemaLocation="http://www.topografix.com/GPX/1/1 http://www.topografix.com/GPX/1/1/gpx.xsd" version="1.1" creator="VisuGPX - https://www.visugpx.com">
  <metadata>
    <name>lundi 2015 08 10</name>
    <desc><![CDATA[rando laurent]]></desc>
  </metadata>
  <trk>
    <name><![CDATA[lundi 2015 08 10]]></name>
    <trkseg>
      <trkpt lat="48.83373" lon="2.33308">
        <ele>44.599998474121</ele>
        <time>2015-08-10T17:48:16.000Z</time>
      </trkpt>
      <trkpt lat="48.8337" lon="2.33279">
        <ele>58.200000762939</ele>
        <time>2015-08-10T17:48:25.000Z</time>
      </trkpt>
      <trkpt lat="48.83374" lon="2.33278">
        <ele>57.799999237061</ele>
        <time>2015-08-10T17:48:26.000Z</time>
      </trkpt>
      <trkpt lat="48.83384" lon="2.33277">
        <ele>55.400001525879</ele>
        <time>2015-08-10T17:48:29.000Z</time>
      </trkpt>
      <trkpt lat="48.83404" lon="2.33283">
        <ele>52.400001525879</ele>
        <time>2015-08-10T17:48:34.000Z</time>
      </trkpt>
      <trkpt lat="48.83415" lon="2.33271">
        <ele>55.799999237061</ele>
        <time>2015-08-10T17:48:40.000Z</time>
      </trkpt>
      <trkpt lat="48.83419" lon="2.33283">
        <ele>58.599998474121</ele>
        <time>2015-08-10T17:48:46.000Z</time>
      </trkpt>
      <trkpt lat="48.83419" lon="2.33286">
        <ele>59.599998474121</ele>
        <time>2015-08-10T17:48:48.000Z</time>
      </trkpt>
      <trkpt lat="48.8342" lon="2.33288">
        <ele>60</ele>
        <time>2015-08-10T17:48:50.000Z</time>
      </trkpt>
      <trkpt lat="48.8343" lon="2.33276">
        <ele>61.599998474121</ele>
        <time>2015-08-10T17:49:07.000Z</time>
      </trkpt>
      <trkpt lat="48.83436" lon="2.33303">
        <ele>59.599998474121</ele>
        <time>2015-08-10T17:49:19.000Z</time>
      </trkpt>
      <trkpt lat="48.83456" lon="2.333">
        <ele>59.599998474121</ele>
        <time>2015-08-10T17:49:25.000Z</time>
      </trkpt>
      <trkpt lat="48.83472" lon="2.3329">
        <ele>58.599998474121</ele>
        <time>2015-08-10T17:49:38.000Z</time>
      </trkpt>
      <trkpt lat="48.83489" lon="2.33281">
        <ele>56.599998474121</ele>
        <time>2015-08-10T17:49:46.000Z</time>
      </trkpt>
      <trkpt lat="48.83508" lon="2.33297">
        <ele>55.200000762939</ele>
        <time>2015-08-10T17:49:53.000Z</time>
      </trkpt>
      <trkpt lat="48.83525" lon="2.33312">
        <ele>53.599998474121</ele>
        <time>2015-08-10T17:49:58.000Z</time>
      </trkpt>
      <trkpt lat="48.83542" lon="2.33328">
        <ele>52.200000762939</ele>
        <time>2015-08-10T17:50:03.000Z</time>
      </trkpt>
      <trkpt lat="48.8356" lon="2.33343">
        <ele>50</ele>
        <time>2015-08-10T17:50:08.000Z</time>
      </trkpt>
      <trkpt lat="48.83579" lon="2.33357">
        <ele>48.200000762939</ele>
        <time>2015-08-10T17:50:13.000Z</time>
      </trkpt>
      <trkpt lat="48.83593" lon="2.33376">
        <ele>47.200000762939</ele>
        <time>2015-08-10T17:50:18.000Z</time>
      </trkpt>
      <trkpt lat="48.83608" lon="2.33393">
        <ele>48.599998474121</ele>
        <time>2015-08-10T17:50:23.000Z</time>
      </trkpt>
      <trkpt lat="48.83625" lon="2.33407">
        <ele>46.400001525879</ele>
        <time>2015-08-10T17:50:28.000Z</time>
      </trkpt>
      <trkpt lat="48.83641" lon="2.33425">
        <ele>45.799999237061</ele>
        <time>2015-08-10T17:50:33.000Z</time>
      </trkpt>
      <trkpt lat="48.8366" lon="2.33442">
        <ele>48</ele>
        <time>2015-08-10T17:50:38.000Z</time>
      </trkpt>
      <trkpt lat="48.83677" lon="2.33464">
        <ele>52.599998474121</ele>
        <time>2015-08-10T17:50:43.000Z</time>
      </trkpt>
      <trkpt lat="48.83692" lon="2.33478">
        <ele>52.400001525879</ele>
        <time>2015-08-10T17:50:47.000Z</time>
      </trkpt>
      <trkpt lat="48.83703" lon="2.33489">
        <ele>52.200000762939</ele>
        <time>2015-08-10T17:50:50.000Z</time>
      </trkpt>
      <trkpt lat="48.83709" lon="2.33498">
        <ele>52.400001525879</ele>
        <time>2015-08-10T17:50:52.000Z</time>
      </trkpt>
      <trkpt lat="48.83725" lon="2.33514">
        <ele>51</ele>
        <time>2015-08-10T17:50:57.000Z</time>
      </trkpt>
      <trkpt lat="48.83737" lon="2.3352">
        <ele>49.200000762939</ele>
        <time>2015-08-10T17:51:00.000Z</time>
      </trkpt>
      <trkpt lat="48.83753" lon="2.3354">
        <ele>50.599998474121</ele>
        <time>2015-08-10T17:51:05.000Z</time>
      </trkpt>
      <trkpt lat="48.83761" lon="2.33548">
        <ele>51.799999237061</ele>
        <time>2015-08-10T17:51:07.000Z</time>
      </trkpt>
      <trkpt lat="48.8377" lon="2.33556">
        <ele>52.799999237061</ele>
        <time>2015-08-10T17:51:09.000Z</time>
      </trkpt>
      <trkpt lat="48.83787" lon="2.33571">
        <ele>52.799999237061</ele>
        <time>2015-08-10T17:51:13.000Z</time>
      </trkpt>
      <trkpt lat="48.83795" lon="2.33579">
        <ele>52.799999237061</ele>
        <time>2015-08-10T17:51:15.000Z</time>
      </trkpt>
      <trkpt lat="48.83812" lon="2.33595">
        <ele>53.799999237061</ele>
        <time>2015-08-10T17:51:19.000Z</time>
      </trkpt>
      <trkpt lat="48.83829" lon="2.33609">
        <ele>52.200000762939</ele>
        <time>2015-08-10T17:51:23.000Z</time>
      </trkpt>
      <trkpt lat="48.83841" lon="2.33621">
        <ele>50</ele>
        <time>2015-08-10T17:51:26.000Z</time>
      </trkpt>
      <trkpt lat="48.83855" lon="2.33639">
        <ele>49</ele>
        <time>2015-08-10T17:51:30.000Z</time>
      </trkpt>
      <trkpt lat="48.83872" lon="2.33653">
        <ele>48.599998474121</ele>
        <time>2015-08-10T17:51:35.000Z</time>
      </trkpt>
      <trkpt lat="48.83892" lon="2.33653">
        <ele>48.799999237061</ele>
        <time>2015-08-10T17:51:39.000Z</time>
      </trkpt>
      <trkpt lat="48.83908" lon="2.33658">
        <ele>52.400001525879</ele>
        <time>2015-08-10T17:51:43.000Z</time>
      </trkpt>
      <trkpt lat="48.83928" lon="2.33661">
        <ele>51.799999237061</ele>
        <time>2015-08-10T17:51:49.000Z</time>
      </trkpt>
      <trkpt lat="48.83936" lon="2.33661">
        <ele>51.599998474121</ele>
        <time>2015-08-10T17:51:51.000Z</time>
      </trkpt>
      <trkpt lat="48.83942" lon="2.33662">
        <ele>50.200000762939</ele>
        <time>2015-08-10T17:51:53.000Z</time>
      </trkpt>
      <trkpt lat="48.83947" lon="2.3368">
        <ele>50.599998474121</ele>
        <time>2015-08-10T17:51:59.000Z</time>
      </trkpt>
      <trkpt lat="48.83946" lon="2.33687">
        <ele>50.200000762939</ele>
        <time>2015-08-10T17:52:01.000Z</time>
      </trkpt>
      <trkpt lat="48.83954" lon="2.337">
        <ele>55.400001525879</ele>
        <time>2015-08-10T17:52:05.000Z</time>
      </trkpt>
      <trkpt lat="48.83956" lon="2.33703">
        <ele>56.599998474121</ele>
        <time>2015-08-10T17:52:07.000Z</time>
      </trkpt>
      <trkpt lat="48.83974" lon="2.33695">
        <ele>60</ele>
        <time>2015-08-10T17:52:18.000Z</time>
      </trkpt>
      <trkpt lat="48.83994" lon="2.33693">
        <ele>60.799999237061</ele>
        <time>2015-08-10T17:52:23.000Z</time>
      </trkpt>
      <trkpt lat="48.84013" lon="2.337">
        <ele>60.799999237061</ele>
        <time>2015-08-10T17:52:27.000Z</time>
      </trkpt>
      <trkpt lat="48.84037" lon="2.33708">
        <ele>58.799999237061</ele>
        <time>2015-08-10T17:52:31.000Z</time>
      </trkpt>
      <trkpt lat="48.84059" lon="2.33715">
        <ele>59.400001525879</ele>
        <time>2015-08-10T17:52:35.000Z</time>
      </trkpt>
      <trkpt lat="48.84075" lon="2.3372">
        <ele>61.200000762939</ele>
        <time>2015-08-10T17:52:38.000Z</time>
      </trkpt>
      <trkpt lat="48.84098" lon="2.33726">
        <ele>64.800003051758</ele>
        <time>2015-08-10T17:52:42.000Z</time>
      </trkpt>
      <trkpt lat="48.84103" lon="2.33726">
        <ele>67</ele>
        <time>2015-08-10T17:52:43.000Z</time>
      </trkpt>
      <trkpt lat="48.84126" lon="2.33732">
        <ele>70.400001525879</ele>
        <time>2015-08-10T17:52:47.000Z</time>
      </trkpt>
      <trkpt lat="48.84145" lon="2.33741">
        <ele>70.800003051758</ele>
        <time>2015-08-10T17:52:50.000Z</time>
      </trkpt>
      <trkpt lat="48.8417" lon="2.33747">
        <ele>76</ele>
        <time>2015-08-10T17:52:54.000Z</time>
      </trkpt>
      <trkpt lat="48.84175" lon="2.33747">
        <ele>79.199996948242</ele>
        <time>2015-08-10T17:52:55.000Z</time>
      </trkpt>
      <trkpt lat="48.84193" lon="2.33759">
        <ele>82</ele>
        <time>2015-08-10T17:52:58.000Z</time>
      </trkpt>
      <trkpt lat="48.84212" lon="2.3377">
        <ele>83.199996948242</ele>
        <time>2015-08-10T17:53:01.000Z</time>
      </trkpt>
      <trkpt lat="48.8423" lon="2.33781">
        <ele>84.800003051758</ele>
        <time>2015-08-10T17:53:04.000Z</time>
      </trkpt>
      <trkpt lat="48.84248" lon="2.33789">
        <ele>87.599998474121</ele>
        <time>2015-08-10T17:53:07.000Z</time>
      </trkpt>
      <trkpt lat="48.84266" lon="2.33798">
        <ele>91.400001525879</ele>
        <time>2015-08-10T17:53:10.000Z</time>
      </trkpt>
      <trkpt lat="48.84282" lon="2.33811">
        <ele>93</ele>
        <time>2015-08-10T17:53:13.000Z</time>
      </trkpt>
      <trkpt lat="48.84298" lon="2.33823">
        <ele>95.400001525879</ele>
        <time>2015-08-10T17:53:16.000Z</time>
      </trkpt>
      <trkpt lat="48.8432" lon="2.33834">
        <ele>100.40000152588</ele>
        <time>2015-08-10T17:53:20.000Z</time>
      </trkpt>
      <trkpt lat="48.84331" lon="2.33837">
        <ele>102.59999847412</ele>
        <time>2015-08-10T17:53:22.000Z</time>
      </trkpt>
      <trkpt lat="48.84349" lon="2.33843">
        <ele>110.40000152588</ele>
        <time>2015-08-10T17:53:26.000Z</time>
      </trkpt>
      <trkpt lat="48.84366" lon="2.33852">
        <ele>122</ele>
        <time>2015-08-10T17:53:31.000Z</time>
      </trkpt>
      <trkpt lat="48.84373" lon="2.33853">
        <ele>126.40000152588</ele>
        <time>2015-08-10T17:53:33.000Z</time>
      </trkpt>
      <trkpt lat="48.84391" lon="2.33867">
        <ele>119.80000305176</ele>
        <time>2015-08-10T17:53:37.000Z</time>
      </trkpt>
      <trkpt lat="48.84414" lon="2.33872">
        <ele>113.80000305176</ele>
        <time>2015-08-10T17:53:41.000Z</time>
      </trkpt>
      <trkpt lat="48.84419" lon="2.33875">
        <ele>114.59999847412</ele>
        <time>2015-08-10T17:53:42.000Z</time>
      </trkpt>
      <trkpt lat="48.84439" lon="2.33885">
        <ele>120</ele>
        <time>2015-08-10T17:53:46.000Z</time>
      </trkpt>
      <trkpt lat="48.84462" lon="2.33898">
        <ele>122.59999847412</ele>
        <time>2015-08-10T17:53:50.000Z</time>
      </trkpt>
      <trkpt lat="48.84481" lon="2.33903">
        <ele>121.40000152588</ele>
        <time>2015-08-10T17:53:53.000Z</time>
      </trkpt>
      <trkpt lat="48.84499" lon="2.3391">
        <ele>120.19999694824</ele>
        <time>2015-08-10T17:53:56.000Z</time>
      </trkpt>
      <trkpt lat="48.84516" lon="2.33918">
        <ele>120.80000305176</ele>
        <time>2015-08-10T17:53:59.000Z</time>
      </trkpt>
      <trkpt lat="48.84533" lon="2.33928">
        <ele>120.40000152588</ele>
        <time>2015-08-10T17:54:02.000Z</time>
      </trkpt>
      <trkpt lat="48.84554" lon="2.33943">
        <ele>121.80000305176</ele>
        <time>2015-08-10T17:54:06.000Z</time>
      </trkpt>
      <trkpt lat="48.84573" lon="2.33954">
        <ele>119.19999694824</ele>
        <time>2015-08-10T17:54:09.000Z</time>
      </trkpt>
      <trkpt lat="48.84592" lon="2.33966">
        <ele>112.40000152588</ele>
        <time>2015-08-10T17:54:12.000Z</time>
      </trkpt>
      <trkpt lat="48.84604" lon="2.33972">
        <ele>108.59999847412</ele>
        <time>2015-08-10T17:54:14.000Z</time>
      </trkpt>
      <trkpt lat="48.84621" lon="2.33983">
        <ele>104.19999694824</ele>
        <time>2015-08-10T17:54:17.000Z</time>
      </trkpt>
      <trkpt lat="48.84637" lon="2.33994">
        <ele>101</ele>
        <time>2015-08-10T17:54:20.000Z</time>
      </trkpt>
      <trkpt lat="48.84654" lon="2.34006">
        <ele>95.599998474121</ele>
        <time>2015-08-10T17:54:23.000Z</time>
      </trkpt>
      <trkpt lat="48.84664" lon="2.3401">
        <ele>94.199996948242</ele>
        <time>2015-08-10T17:54:25.000Z</time>
      </trkpt>
      <trkpt lat="48.84684" lon="2.34021">
        <ele>92.400001525879</ele>
        <time>2015-08-10T17:54:29.000Z</time>
      </trkpt>
      <trkpt lat="48.84698" lon="2.34029">
        <ele>89.800003051758</ele>
        <time>2015-08-10T17:54:32.000Z</time>
      </trkpt>
      <trkpt lat="48.84708" lon="2.34033">
        <ele>88.199996948242</ele>
        <time>2015-08-10T17:54:34.000Z</time>
      </trkpt>
      <trkpt lat="48.84727" lon="2.34046">
        <ele>85.599998474121</ele>
        <time>2015-08-10T17:54:38.000Z</time>
      </trkpt>
      <trkpt lat="48.84747" lon="2.34059">
        <ele>83.199996948242</ele>
        <time>2015-08-10T17:54:42.000Z</time>
      </trkpt>
      <trkpt lat="48.84765" lon="2.34075">
        <ele>79.599998474121</ele>
        <time>2015-08-10T17:54:46.000Z</time>
      </trkpt>
      <trkpt lat="48.8477" lon="2.34079">
        <ele>80</ele>
        <time>2015-08-10T17:54:47.000Z</time>
      </trkpt>
      <trkpt lat="48.84788" lon="2.3409">
        <ele>78.400001525879</ele>
        <time>2015-08-10T17:54:50.000Z</time>
      </trkpt>
      <trkpt lat="48.84805" lon="2.34102">
        <ele>79.199996948242</ele>
        <time>2015-08-10T17:54:53.000Z</time>
      </trkpt>
      <trkpt lat="48.84823" lon="2.34115">
        <ele>80.199996948242</ele>
        <time>2015-08-10T17:54:56.000Z</time>
      </trkpt>
      <trkpt lat="48.84841" lon="2.34126">
        <ele>81.400001525879</ele>
        <time>2015-08-10T17:54:59.000Z</time>
      </trkpt>
      <trkpt lat="48.84853" lon="2.34132">
        <ele>84</ele>
        <time>2015-08-10T17:55:01.000Z</time>
      </trkpt>
      <trkpt lat="48.8487" lon="2.34142">
        <ele>89.599998474121</ele>
        <time>2015-08-10T17:55:04.000Z</time>
      </trkpt>
      <trkpt lat="48.84888" lon="2.3415">
        <ele>93.199996948242</ele>
        <time>2015-08-10T17:55:07.000Z</time>
      </trkpt>
      <trkpt lat="48.84907" lon="2.34162">
        <ele>94.599998474121</ele>
        <time>2015-08-10T17:55:10.000Z</time>
      </trkpt>
      <trkpt lat="48.84925" lon="2.34169">
        <ele>100.59999847412</ele>
        <time>2015-08-10T17:55:13.000Z</time>
      </trkpt>
      <trkpt lat="48.84946" lon="2.34181">
        <ele>109.19999694824</ele>
        <time>2015-08-10T17:55:17.000Z</time>
      </trkpt>
      <trkpt lat="48.84967" lon="2.34192">
        <ele>120</ele>
        <time>2015-08-10T17:55:21.000Z</time>
      </trkpt>
      <trkpt lat="48.84983" lon="2.3421">
        <ele>127.19999694824</ele>
        <time>2015-08-10T17:55:26.000Z</time>
      </trkpt>
      <trkpt lat="48.85" lon="2.34216">
        <ele>130</ele>
        <time>2015-08-10T17:55:32.000Z</time>
      </trkpt>
      <trkpt lat="48.85012" lon="2.34228">
        <ele>121.80000305176</ele>
        <time>2015-08-10T17:55:35.000Z</time>
      </trkpt>
      <trkpt lat="48.85019" lon="2.34235">
        <ele>121.80000305176</ele>
        <time>2015-08-10T17:55:37.000Z</time>
      </trkpt>
      <trkpt lat="48.85041" lon="2.34241">
        <ele>114.19999694824</ele>
        <time>2015-08-10T17:55:41.000Z</time>
      </trkpt>
      <trkpt lat="48.85059" lon="2.34255">
        <ele>114.59999847412</ele>
        <time>2015-08-10T17:55:45.000Z</time>
      </trkpt>
      <trkpt lat="48.85069" lon="2.34258">
        <ele>115.40000152588</ele>
        <time>2015-08-10T17:55:47.000Z</time>
      </trkpt>
      <trkpt lat="48.85082" lon="2.34262">
        <ele>117.19999694824</ele>
        <time>2015-08-10T17:55:50.000Z</time>
      </trkpt>
      <trkpt lat="48.85103" lon="2.34266">
        <ele>116.59999847412</ele>
        <time>2015-08-10T17:55:59.000Z</time>
      </trkpt>
      <trkpt lat="48.85107" lon="2.34272">
        <ele>111.40000152588</ele>
        <time>2015-08-10T17:56:02.000Z</time>
      </trkpt>
      <trkpt lat="48.85111" lon="2.34272">
        <ele>108.80000305176</ele>
        <time>2015-08-10T17:56:03.000Z</time>
      </trkpt>
      <trkpt lat="48.85131" lon="2.34274">
        <ele>101</ele>
        <time>2015-08-10T17:56:07.000Z</time>
      </trkpt>
      <trkpt lat="48.85136" lon="2.34277">
        <ele>100.40000152588</ele>
        <time>2015-08-10T17:56:08.000Z</time>
      </trkpt>
      <trkpt lat="48.85152" lon="2.34289">
        <ele>98.199996948242</ele>
        <time>2015-08-10T17:56:12.000Z</time>
      </trkpt>
      <trkpt lat="48.85166" lon="2.34298">
        <ele>94.400001525879</ele>
        <time>2015-08-10T17:56:15.000Z</time>
      </trkpt>
      <trkpt lat="48.85185" lon="2.3431">
        <ele>93</ele>
        <time>2015-08-10T17:56:19.000Z</time>
      </trkpt>
      <trkpt lat="48.85204" lon="2.34316">
        <ele>95</ele>
        <time>2015-08-10T17:56:23.000Z</time>
      </trkpt>
      <trkpt lat="48.85223" lon="2.34327">
        <ele>96.400001525879</ele>
        <time>2015-08-10T17:56:27.000Z</time>
      </trkpt>
      <trkpt lat="48.85242" lon="2.34341">
        <ele>98.199996948242</ele>
        <time>2015-08-10T17:56:31.000Z</time>
      </trkpt>
      <trkpt lat="48.85253" lon="2.34344">
        <ele>96.599998474121</ele>
        <time>2015-08-10T17:56:33.000Z</time>
      </trkpt>
      <trkpt lat="48.85274" lon="2.34355">
        <ele>96.800003051758</ele>
        <time>2015-08-10T17:56:37.000Z</time>
      </trkpt>
      <trkpt lat="48.85297" lon="2.34365">
        <ele>96</ele>
        <time>2015-08-10T17:56:41.000Z</time>
      </trkpt>
      <trkpt lat="48.85314" lon="2.34375">
        <ele>95</ele>
        <time>2015-08-10T17:56:44.000Z</time>
      </trkpt>
      <trkpt lat="48.85324" lon="2.34382">
        <ele>94.599998474121</ele>
        <time>2015-08-10T17:56:46.000Z</time>
      </trkpt>
      <trkpt lat="48.85345" lon="2.34397">
        <ele>93.800003051758</ele>
        <time>2015-08-10T17:56:50.000Z</time>
      </trkpt>
      <trkpt lat="48.85364" lon="2.34406">
        <ele>90</ele>
        <time>2015-08-10T17:56:53.000Z</time>
      </trkpt>
      <trkpt lat="48.8537" lon="2.34409">
        <ele>88</ele>
        <time>2015-08-10T17:56:54.000Z</time>
      </trkpt>
      <trkpt lat="48.85385" lon="2.34433">
        <ele>72.199996948242</ele>
        <time>2015-08-10T17:56:56.000Z</time>
      </trkpt>
      <trkpt lat="48.85391" lon="2.34437">
        <ele>71</ele>
        <time>2015-08-10T17:56:57.000Z</time>
      </trkpt>
      <trkpt lat="48.85412" lon="2.34449">
        <ele>69.199996948242</ele>
        <time>2015-08-10T17:57:01.000Z</time>
      </trkpt>
      <trkpt lat="48.85429" lon="2.34454">
        <ele>67</ele>
        <time>2015-08-10T17:57:04.000Z</time>
      </trkpt>
      <trkpt lat="48.85438" lon="2.3446">
        <ele>65.800003051758</ele>
        <time>2015-08-10T17:57:06.000Z</time>
      </trkpt>
      <trkpt lat="48.85447" lon="2.34468">
        <ele>65.199996948242</ele>
        <time>2015-08-10T17:57:08.000Z</time>
      </trkpt>
      <trkpt lat="48.85465" lon="2.34486">
        <ele>63</ele>
        <time>2015-08-10T17:57:12.000Z</time>
      </trkpt>
      <trkpt lat="48.85468" lon="2.34493">
        <ele>62.200000762939</ele>
        <time>2015-08-10T17:57:13.000Z</time>
      </trkpt>
      <trkpt lat="48.85484" lon="2.34512">
        <ele>60.200000762939</ele>
        <time>2015-08-10T17:57:17.000Z</time>
      </trkpt>
      <trkpt lat="48.85497" lon="2.34532">
        <ele>56.400001525879</ele>
        <time>2015-08-10T17:57:22.000Z</time>
      </trkpt>
      <trkpt lat="48.85503" lon="2.34542">
        <ele>54.799999237061</ele>
        <time>2015-08-10T17:57:26.000Z</time>
      </trkpt>
      <trkpt lat="48.8551" lon="2.34549">
        <ele>54</ele>
        <time>2015-08-10T17:57:29.000Z</time>
      </trkpt>
      <trkpt lat="48.85517" lon="2.34556">
        <ele>53</ele>
        <time>2015-08-10T17:57:31.000Z</time>
      </trkpt>
      <trkpt lat="48.85532" lon="2.34561">
        <ele>49.200000762939</ele>
        <time>2015-08-10T17:57:35.000Z</time>
      </trkpt>
      <trkpt lat="48.85542" lon="2.34569">
        <ele>47.400001525879</ele>
        <time>2015-08-10T17:57:39.000Z</time>
      </trkpt>
      <trkpt lat="48.85553" lon="2.34578">
        <ele>47</ele>
        <time>2015-08-10T17:57:43.000Z</time>
      </trkpt>
      <trkpt lat="48.85556" lon="2.34579">
        <ele>47.200000762939</ele>
        <time>2015-08-10T17:57:44.000Z</time>
      </trkpt>
      <trkpt lat="48.85574" lon="2.34588">
        <ele>47.799999237061</ele>
        <time>2015-08-10T17:57:49.000Z</time>
      </trkpt>
      <trkpt lat="48.85577" lon="2.34588">
        <ele>48</ele>
        <time>2015-08-10T17:57:50.000Z</time>
      </trkpt>
      <trkpt lat="48.85589" lon="2.34597">
        <ele>47.799999237061</ele>
        <time>2015-08-10T17:57:54.000Z</time>
      </trkpt>
      <trkpt lat="48.85612" lon="2.34589">
        <ele>32</ele>
        <time>2015-08-10T17:57:58.000Z</time>
      </trkpt>
      <trkpt lat="48.85615" lon="2.34592">
        <ele>30.200000762939</ele>
        <time>2015-08-10T17:57:59.000Z</time>
      </trkpt>
      <trkpt lat="48.85633" lon="2.34621">
        <ele>26.39999961853</ele>
        <time>2015-08-10T17:58:03.000Z</time>
      </trkpt>
      <trkpt lat="48.85649" lon="2.34637">
        <ele>24.799999237061</ele>
        <time>2015-08-10T17:58:07.000Z</time>
      </trkpt>
      <trkpt lat="48.8566" lon="2.34647">
        <ele>25.200000762939</ele>
        <time>2015-08-10T17:58:10.000Z</time>
      </trkpt>
      <trkpt lat="48.85674" lon="2.34657">
        <ele>25.60000038147</ele>
        <time>2015-08-10T17:58:14.000Z</time>
      </trkpt>
      <trkpt lat="48.85692" lon="2.34668">
        <ele>26.799999237061</ele>
        <time>2015-08-10T17:58:19.000Z</time>
      </trkpt>
      <trkpt lat="48.85696" lon="2.34671">
        <ele>26.60000038147</ele>
        <time>2015-08-10T17:58:20.000Z</time>
      </trkpt>
      <trkpt lat="48.85703" lon="2.34677">
        <ele>26.60000038147</ele>
        <time>2015-08-10T17:58:22.000Z</time>
      </trkpt>
      <trkpt lat="48.85721" lon="2.34686">
        <ele>26.799999237061</ele>
        <time>2015-08-10T17:58:27.000Z</time>
      </trkpt>
      <trkpt lat="48.85739" lon="2.34685">
        <ele>26.200000762939</ele>
        <time>2015-08-10T17:58:33.000Z</time>
      </trkpt>
      <trkpt lat="48.85747" lon="2.34696">
        <ele>26.60000038147</ele>
        <time>2015-08-10T17:58:37.000Z</time>
      </trkpt>
      <trkpt lat="48.8575" lon="2.34712">
        <ele>26.799999237061</ele>
        <time>2015-08-10T17:58:42.000Z</time>
      </trkpt>
      <trkpt lat="48.85742" lon="2.34719">
        <ele>27.200000762939</ele>
        <time>2015-08-10T17:58:50.000Z</time>
      </trkpt>
      <trkpt lat="48.85735" lon="2.34717">
        <ele>28</ele>
        <time>2015-08-10T17:58:55.000Z</time>
      </trkpt>
      <trkpt lat="48.85742" lon="2.34731">
        <ele>30.39999961853</ele>
        <time>2015-08-10T17:59:46.000Z</time>
      </trkpt>
      <trkpt lat="48.8574" lon="2.3474">
        <ele>33.599998474121</ele>
        <time>2015-08-10T18:00:24.000Z</time>
      </trkpt>
      <trkpt lat="48.85739" lon="2.3474">
        <ele>36.599998474121</ele>
        <time>2015-08-10T18:02:05.000Z</time>
      </trkpt>
      <trkpt lat="48.85741" lon="2.34727">
        <ele>36.400001525879</ele>
        <time>2015-08-10T18:03:17.000Z</time>
      </trkpt>
      <trkpt lat="48.85743" lon="2.34726">
        <ele>34.200000762939</ele>
        <time>2015-08-10T18:05:08.000Z</time>
      </trkpt>
      <trkpt lat="48.85744" lon="2.34728">
        <ele>35.799999237061</ele>
        <time>2015-08-10T18:06:53.000Z</time>
      </trkpt>
      <trkpt lat="48.85739" lon="2.34723">
        <ele>43.400001525879</ele>
        <time>2015-08-10T18:08:36.000Z</time>
      </trkpt>
      <trkpt lat="48.8574" lon="2.34728">
        <ele>41.799999237061</ele>
        <time>2015-08-10T18:10:52.000Z</time>
      </trkpt>
      <trkpt lat="48.85742" lon="2.34732">
        <ele>40.799999237061</ele>
        <time>2015-08-10T18:12:36.000Z</time>
      </trkpt>
      <trkpt lat="48.85743" lon="2.34725">
        <ele>37.400001525879</ele>
        <time>2015-08-10T18:14:36.000Z</time>
      </trkpt>
      <trkpt lat="48.85743" lon="2.34728">
        <ele>35.400001525879</ele>
        <time>2015-08-10T18:17:29.000Z</time>
      </trkpt>
      <trkpt lat="48.85737" lon="2.34735">
        <ele>34.599998474121</ele>
        <time>2015-08-10T18:19:02.000Z</time>
      </trkpt>
      <trkpt lat="48.85739" lon="2.34731">
        <ele>39</ele>
        <time>2015-08-10T18:20:36.000Z</time>
      </trkpt>
      <trkpt lat="48.85738" lon="2.34729">
        <ele>39.200000762939</ele>
        <time>2015-08-10T18:20:41.000Z</time>
      </trkpt>
      <trkpt lat="48.85733" lon="2.34705">
        <ele>38.599998474121</ele>
        <time>2015-08-10T18:20:56.000Z</time>
      </trkpt>
      <trkpt lat="48.8572" lon="2.34698">
        <ele>37.200000762939</ele>
        <time>2015-08-10T18:21:19.000Z</time>
      </trkpt>
      <trkpt lat="48.85703" lon="2.3469">
        <ele>35.200000762939</ele>
        <time>2015-08-10T18:21:26.000Z</time>
      </trkpt>
      <trkpt lat="48.85683" lon="2.34679">
        <ele>34.400001525879</ele>
        <time>2015-08-10T18:21:33.000Z</time>
      </trkpt>
      <trkpt lat="48.85664" lon="2.34669">
        <ele>33.599998474121</ele>
        <time>2015-08-10T18:21:40.000Z</time>
      </trkpt>
      <trkpt lat="48.85646" lon="2.34657">
        <ele>32.599998474121</ele>
        <time>2015-08-10T18:21:46.000Z</time>
      </trkpt>
      <trkpt lat="48.85629" lon="2.34646">
        <ele>30.799999237061</ele>
        <time>2015-08-10T18:21:53.000Z</time>
      </trkpt>
      <trkpt lat="48.85608" lon="2.3464">
        <ele>29.799999237061</ele>
        <time>2015-08-10T18:21:59.000Z</time>
      </trkpt>
      <trkpt lat="48.856" lon="2.34634">
        <ele>30.200000762939</ele>
        <time>2015-08-10T18:22:01.000Z</time>
      </trkpt>
      <trkpt lat="48.85582" lon="2.34621">
        <ele>29</ele>
        <time>2015-08-10T18:22:05.000Z</time>
      </trkpt>
      <trkpt lat="48.85577" lon="2.34618">
        <ele>28.799999237061</ele>
        <time>2015-08-10T18:22:06.000Z</time>
      </trkpt>
      <trkpt lat="48.85561" lon="2.34606">
        <ele>27.39999961853</ele>
        <time>2015-08-10T18:22:09.000Z</time>
      </trkpt>
      <trkpt lat="48.85541" lon="2.3459">
        <ele>26</ele>
        <time>2015-08-10T18:22:13.000Z</time>
      </trkpt>
      <trkpt lat="48.85522" lon="2.34572">
        <ele>24.60000038147</ele>
        <time>2015-08-10T18:22:17.000Z</time>
      </trkpt>
      <trkpt lat="48.85507" lon="2.34556">
        <ele>24.60000038147</ele>
        <time>2015-08-10T18:22:20.000Z</time>
      </trkpt>
      <trkpt lat="48.8549" lon="2.34536">
        <ele>24.39999961853</ele>
        <time>2015-08-10T18:22:24.000Z</time>
      </trkpt>
      <trkpt lat="48.85484" lon="2.34533">
        <ele>24.60000038147</ele>
        <time>2015-08-10T18:22:25.000Z</time>
      </trkpt>
      <trkpt lat="48.85466" lon="2.34517">
        <ele>24</ele>
        <time>2015-08-10T18:22:30.000Z</time>
      </trkpt>
      <trkpt lat="48.85454" lon="2.34508">
        <ele>24.60000038147</ele>
        <time>2015-08-10T18:22:35.000Z</time>
      </trkpt>
      <trkpt lat="48.85448" lon="2.34495">
        <ele>29.200000762939</ele>
        <time>2015-08-10T18:23:20.000Z</time>
      </trkpt>
      <trkpt lat="48.85434" lon="2.34479">
        <ele>29.799999237061</ele>
        <time>2015-08-10T18:23:31.000Z</time>
      </trkpt>
      <trkpt lat="48.85417" lon="2.3446">
        <ele>29.200000762939</ele>
        <time>2015-08-10T18:23:37.000Z</time>
      </trkpt>
      <trkpt lat="48.85401" lon="2.34441">
        <ele>29.39999961853</ele>
        <time>2015-08-10T18:23:42.000Z</time>
      </trkpt>
      <trkpt lat="48.85394" lon="2.34435">
        <ele>29.60000038147</ele>
        <time>2015-08-10T18:23:46.000Z</time>
      </trkpt>
      <trkpt lat="48.85382" lon="2.34423">
        <ele>28.799999237061</ele>
        <time>2015-08-10T18:24:25.000Z</time>
      </trkpt>
      <trkpt lat="48.85364" lon="2.34403">
        <ele>29.799999237061</ele>
        <time>2015-08-10T18:24:32.000Z</time>
      </trkpt>
      <trkpt lat="48.85348" lon="2.34383">
        <ele>30.60000038147</ele>
        <time>2015-08-10T18:24:37.000Z</time>
      </trkpt>
      <trkpt lat="48.85333" lon="2.3436">
        <ele>31.200000762939</ele>
        <time>2015-08-10T18:24:42.000Z</time>
      </trkpt>
      <trkpt lat="48.85321" lon="2.34339">
        <ele>31.200000762939</ele>
        <time>2015-08-10T18:24:46.000Z</time>
      </trkpt>
      <trkpt lat="48.85307" lon="2.34315">
        <ele>31.60000038147</ele>
        <time>2015-08-10T18:24:51.000Z</time>
      </trkpt>
      <trkpt lat="48.85295" lon="2.3429">
        <ele>30.39999961853</ele>
        <time>2015-08-10T18:24:57.000Z</time>
      </trkpt>
      <trkpt lat="48.85281" lon="2.34269">
        <ele>29.60000038147</ele>
        <time>2015-08-10T18:25:02.000Z</time>
      </trkpt>
      <trkpt lat="48.85268" lon="2.34245">
        <ele>29.60000038147</ele>
        <time>2015-08-10T18:25:07.000Z</time>
      </trkpt>
      <trkpt lat="48.85255" lon="2.34219">
        <ele>29</ele>
        <time>2015-08-10T18:25:12.000Z</time>
      </trkpt>
      <trkpt lat="48.85245" lon="2.34195">
        <ele>28.799999237061</ele>
        <time>2015-08-10T18:25:16.000Z</time>
      </trkpt>
      <trkpt lat="48.85239" lon="2.34168">
        <ele>25.60000038147</ele>
        <time>2015-08-10T18:25:20.000Z</time>
      </trkpt>
      <trkpt lat="48.8523" lon="2.34137">
        <ele>23.60000038147</ele>
        <time>2015-08-10T18:25:25.000Z</time>
      </trkpt>
      <trkpt lat="48.85228" lon="2.3413">
        <ele>23.60000038147</ele>
        <time>2015-08-10T18:25:26.000Z</time>
      </trkpt>
      <trkpt lat="48.85225" lon="2.34111">
        <ele>21.799999237061</ele>
        <time>2015-08-10T18:25:29.000Z</time>
      </trkpt>
      <trkpt lat="48.85224" lon="2.34086">
        <ele>21.200000762939</ele>
        <time>2015-08-10T18:25:33.000Z</time>
      </trkpt>
      <trkpt lat="48.8522" lon="2.34066">
        <ele>21.200000762939</ele>
        <time>2015-08-10T18:25:37.000Z</time>
      </trkpt>
      <trkpt lat="48.85218" lon="2.3406">
        <ele>20.799999237061</ele>
        <time>2015-08-10T18:25:39.000Z</time>
      </trkpt>
      <trkpt lat="48.85219" lon="2.34057">
        <ele>23.200000762939</ele>
        <time>2015-08-10T18:25:42.000Z</time>
      </trkpt>
      <trkpt lat="48.8521" lon="2.34033">
        <ele>27.39999961853</ele>
        <time>2015-08-10T18:26:06.000Z</time>
      </trkpt>
      <trkpt lat="48.85204" lon="2.34005">
        <ele>28.39999961853</ele>
        <time>2015-08-10T18:26:12.000Z</time>
      </trkpt>
      <trkpt lat="48.85198" lon="2.33975">
        <ele>31</ele>
        <time>2015-08-10T18:26:17.000Z</time>
      </trkpt>
      <trkpt lat="48.852" lon="2.33961">
        <ele>31.39999961853</ele>
        <time>2015-08-10T18:26:19.000Z</time>
      </trkpt>
      <trkpt lat="48.85208" lon="2.33935">
        <ele>32.400001525879</ele>
        <time>2015-08-10T18:26:23.000Z</time>
      </trkpt>
      <trkpt lat="48.85218" lon="2.33908">
        <ele>34</ele>
        <time>2015-08-10T18:26:29.000Z</time>
      </trkpt>
      <trkpt lat="48.85227" lon="2.33882">
        <ele>37</ele>
        <time>2015-08-10T18:26:37.000Z</time>
      </trkpt>
      <trkpt lat="48.85225" lon="2.33879">
        <ele>37.799999237061</ele>
        <time>2015-08-10T18:26:39.000Z</time>
      </trkpt>
      <trkpt lat="48.85209" lon="2.33875">
        <ele>35.599998474121</ele>
        <time>2015-08-10T18:26:43.000Z</time>
      </trkpt>
      <trkpt lat="48.8519" lon="2.33864">
        <ele>35.599998474121</ele>
        <time>2015-08-10T18:26:48.000Z</time>
      </trkpt>
      <trkpt lat="48.85172" lon="2.33845">
        <ele>32.599998474121</ele>
        <time>2015-08-10T18:26:53.000Z</time>
      </trkpt>
      <trkpt lat="48.8516" lon="2.33836">
        <ele>31.799999237061</ele>
        <time>2015-08-10T18:26:56.000Z</time>
      </trkpt>
      <trkpt lat="48.85157" lon="2.33809">
        <ele>29.799999237061</ele>
        <time>2015-08-10T18:27:00.000Z</time>
      </trkpt>
      <trkpt lat="48.85152" lon="2.33778">
        <ele>29.60000038147</ele>
        <time>2015-08-10T18:27:05.000Z</time>
      </trkpt>
      <trkpt lat="48.85149" lon="2.33748">
        <ele>29.200000762939</ele>
        <time>2015-08-10T18:27:10.000Z</time>
      </trkpt>
      <trkpt lat="48.85147" lon="2.33717">
        <ele>27.60000038147</ele>
        <time>2015-08-10T18:27:14.000Z</time>
      </trkpt>
      <trkpt lat="48.85146" lon="2.33689">
        <ele>27</ele>
        <time>2015-08-10T18:27:18.000Z</time>
      </trkpt>
      <trkpt lat="48.85142" lon="2.33659">
        <ele>25.60000038147</ele>
        <time>2015-08-10T18:27:22.000Z</time>
      </trkpt>
      <trkpt lat="48.85139" lon="2.33627">
        <ele>24</ele>
        <time>2015-08-10T18:27:26.000Z</time>
      </trkpt>
      <trkpt lat="48.85136" lon="2.33611">
        <ele>24</ele>
        <time>2015-08-10T18:27:28.000Z</time>
      </trkpt>
      <trkpt lat="48.85131" lon="2.33577">
        <ele>24</ele>
        <time>2015-08-10T18:27:32.000Z</time>
      </trkpt>
      <trkpt lat="48.85133" lon="2.33543">
        <ele>23.60000038147</ele>
        <time>2015-08-10T18:27:36.000Z</time>
      </trkpt>
      <trkpt lat="48.85133" lon="2.33535">
        <ele>23</ele>
        <time>2015-08-10T18:27:37.000Z</time>
      </trkpt>
      <trkpt lat="48.85133" lon="2.33527">
        <ele>22.39999961853</ele>
        <time>2015-08-10T18:27:38.000Z</time>
      </trkpt>
      <trkpt lat="48.85134" lon="2.33495">
        <ele>21.39999961853</ele>
        <time>2015-08-10T18:27:42.000Z</time>
      </trkpt>
      <trkpt lat="48.85133" lon="2.3346">
        <ele>20.799999237061</ele>
        <time>2015-08-10T18:27:46.000Z</time>
      </trkpt>
      <trkpt lat="48.8513" lon="2.33425">
        <ele>22</ele>
        <time>2015-08-10T18:27:50.000Z</time>
      </trkpt>
      <trkpt lat="48.85122" lon="2.33393">
        <ele>15.60000038147</ele>
        <time>2015-08-10T18:27:54.000Z</time>
      </trkpt>
      <trkpt lat="48.85123" lon="2.33385">
        <ele>15.60000038147</ele>
        <time>2015-08-10T18:27:55.000Z</time>
      </trkpt>
      <trkpt lat="48.85124" lon="2.33353">
        <ele>15.39999961853</ele>
        <time>2015-08-10T18:27:59.000Z</time>
      </trkpt>
      <trkpt lat="48.85123" lon="2.33323">
        <ele>14.39999961853</ele>
        <time>2015-08-10T18:28:03.000Z</time>
      </trkpt>
      <trkpt lat="48.85128" lon="2.33295">
        <ele>16.200000762939</ele>
        <time>2015-08-10T18:28:07.000Z</time>
      </trkpt>
      <trkpt lat="48.85136" lon="2.33268">
        <ele>16</ele>
        <time>2015-08-10T18:28:11.000Z</time>
      </trkpt>
      <trkpt lat="48.85142" lon="2.3324">
        <ele>15.199999809265</ele>
        <time>2015-08-10T18:28:15.000Z</time>
      </trkpt>
      <trkpt lat="48.85143" lon="2.33209">
        <ele>16.60000038147</ele>
        <time>2015-08-10T18:28:19.000Z</time>
      </trkpt>
      <trkpt lat="48.85149" lon="2.3318">
        <ele>16.799999237061</ele>
        <time>2015-08-10T18:28:23.000Z</time>
      </trkpt>
      <trkpt lat="48.85155" lon="2.33151">
        <ele>16.200000762939</ele>
        <time>2015-08-10T18:28:28.000Z</time>
      </trkpt>
      <trkpt lat="48.85155" lon="2.33146">
        <ele>17.200000762939</ele>
        <time>2015-08-10T18:28:29.000Z</time>
      </trkpt>
      <trkpt lat="48.85156" lon="2.33132">
        <ele>19.60000038147</ele>
        <time>2015-08-10T18:28:33.000Z</time>
      </trkpt>
      <trkpt lat="48.85157" lon="2.33131">
        <ele>19.60000038147</ele>
        <time>2015-08-10T18:28:34.000Z</time>
      </trkpt>
      <trkpt lat="48.85161" lon="2.33125">
        <ele>24.799999237061</ele>
        <time>2015-08-10T18:28:38.000Z</time>
      </trkpt>
      <trkpt lat="48.85159" lon="2.33109">
        <ele>29.799999237061</ele>
        <time>2015-08-10T18:28:44.000Z</time>
      </trkpt>
      <trkpt lat="48.85169" lon="2.33081">
        <ele>32.599998474121</ele>
        <time>2015-08-10T18:28:49.000Z</time>
      </trkpt>
      <trkpt lat="48.85171" lon="2.33074">
        <ele>33</ele>
        <time>2015-08-10T18:28:50.000Z</time>
      </trkpt>
      <trkpt lat="48.85181" lon="2.33047">
        <ele>33.799999237061</ele>
        <time>2015-08-10T18:28:54.000Z</time>
      </trkpt>
      <trkpt lat="48.85191" lon="2.3302">
        <ele>34.799999237061</ele>
        <time>2015-08-10T18:28:58.000Z</time>
      </trkpt>
      <trkpt lat="48.85195" lon="2.32993">
        <ele>34.200000762939</ele>
        <time>2015-08-10T18:29:01.000Z</time>
      </trkpt>
      <trkpt lat="48.85197" lon="2.32965">
        <ele>33.799999237061</ele>
        <time>2015-08-10T18:29:04.000Z</time>
      </trkpt>
      <trkpt lat="48.85195" lon="2.32932">
        <ele>33.599998474121</ele>
        <time>2015-08-10T18:29:08.000Z</time>
      </trkpt>
      <trkpt lat="48.85191" lon="2.32911">
        <ele>33.200000762939</ele>
        <time>2015-08-10T18:29:11.000Z</time>
      </trkpt>
      <trkpt lat="48.85189" lon="2.32898">
        <ele>33</ele>
        <time>2015-08-10T18:29:13.000Z</time>
      </trkpt>
      <trkpt lat="48.85186" lon="2.32869">
        <ele>32.400001525879</ele>
        <time>2015-08-10T18:29:17.000Z</time>
      </trkpt>
      <trkpt lat="48.85184" lon="2.32862">
        <ele>32.200000762939</ele>
        <time>2015-08-10T18:29:18.000Z</time>
      </trkpt>
      <trkpt lat="48.85181" lon="2.32843">
        <ele>31</ele>
        <time>2015-08-10T18:29:21.000Z</time>
      </trkpt>
      <trkpt lat="48.85175" lon="2.32816">
        <ele>30.39999961853</ele>
        <time>2015-08-10T18:29:25.000Z</time>
      </trkpt>
      <trkpt lat="48.85174" lon="2.32808">
        <ele>28.799999237061</ele>
        <time>2015-08-10T18:29:26.000Z</time>
      </trkpt>
      <trkpt lat="48.85172" lon="2.32793">
        <ele>27.200000762939</ele>
        <time>2015-08-10T18:29:28.000Z</time>
      </trkpt>
      <trkpt lat="48.85169" lon="2.32764">
        <ele>25.200000762939</ele>
        <time>2015-08-10T18:29:32.000Z</time>
      </trkpt>
      <trkpt lat="48.85167" lon="2.32737">
        <ele>23.60000038147</ele>
        <time>2015-08-10T18:29:36.000Z</time>
      </trkpt>
      <trkpt lat="48.85167" lon="2.3273">
        <ele>23.799999237061</ele>
        <time>2015-08-10T18:29:37.000Z</time>
      </trkpt>
      <trkpt lat="48.85173" lon="2.32707">
        <ele>22.799999237061</ele>
        <time>2015-08-10T18:29:42.000Z</time>
      </trkpt>
      <trkpt lat="48.85175" lon="2.32701">
        <ele>23.60000038147</ele>
        <time>2015-08-10T18:29:44.000Z</time>
      </trkpt>
      <trkpt lat="48.85177" lon="2.32689">
        <ele>27.200000762939</ele>
        <time>2015-08-10T18:29:54.000Z</time>
      </trkpt>
      <trkpt lat="48.85176" lon="2.32657">
        <ele>27.60000038147</ele>
        <time>2015-08-10T18:30:01.000Z</time>
      </trkpt>
      <trkpt lat="48.85175" lon="2.32625">
        <ele>27.200000762939</ele>
        <time>2015-08-10T18:30:06.000Z</time>
      </trkpt>
      <trkpt lat="48.85174" lon="2.32595">
        <ele>25.799999237061</ele>
        <time>2015-08-10T18:30:10.000Z</time>
      </trkpt>
      <trkpt lat="48.85173" lon="2.32566">
        <ele>24.200000762939</ele>
        <time>2015-08-10T18:30:14.000Z</time>
      </trkpt>
      <trkpt lat="48.85173" lon="2.32534">
        <ele>22.200000762939</ele>
        <time>2015-08-10T18:30:18.000Z</time>
      </trkpt>
      <trkpt lat="48.85174" lon="2.32504">
        <ele>20</ele>
        <time>2015-08-10T18:30:22.000Z</time>
      </trkpt>
      <trkpt lat="48.85174" lon="2.32476">
        <ele>20.39999961853</ele>
        <time>2015-08-10T18:30:26.000Z</time>
      </trkpt>
      <trkpt lat="48.85173" lon="2.32446">
        <ele>19.60000038147</ele>
        <time>2015-08-10T18:30:30.000Z</time>
      </trkpt>
      <trkpt lat="48.85171" lon="2.32415">
        <ele>19.60000038147</ele>
        <time>2015-08-10T18:30:34.000Z</time>
      </trkpt>
      <trkpt lat="48.85169" lon="2.32384">
        <ele>19.200000762939</ele>
        <time>2015-08-10T18:30:38.000Z</time>
      </trkpt>
      <trkpt lat="48.85168" lon="2.32354">
        <ele>19.200000762939</ele>
        <time>2015-08-10T18:30:42.000Z</time>
      </trkpt>
      <trkpt lat="48.85168" lon="2.32325">
        <ele>20.200000762939</ele>
        <time>2015-08-10T18:30:46.000Z</time>
      </trkpt>
      <trkpt lat="48.85168" lon="2.32303">
        <ele>19.799999237061</ele>
        <time>2015-08-10T18:30:49.000Z</time>
      </trkpt>
      <trkpt lat="48.85168" lon="2.32273">
        <ele>19.39999961853</ele>
        <time>2015-08-10T18:30:53.000Z</time>
      </trkpt>
      <trkpt lat="48.85167" lon="2.3224">
        <ele>19.799999237061</ele>
        <time>2015-08-10T18:30:57.000Z</time>
      </trkpt>
      <trkpt lat="48.85166" lon="2.32206">
        <ele>20</ele>
        <time>2015-08-10T18:31:01.000Z</time>
      </trkpt>
      <trkpt lat="48.85168" lon="2.32179">
        <ele>24.60000038147</ele>
        <time>2015-08-10T18:31:04.000Z</time>
      </trkpt>
      <trkpt lat="48.85169" lon="2.32151">
        <ele>27</ele>
        <time>2015-08-10T18:31:07.000Z</time>
      </trkpt>
      <trkpt lat="48.85171" lon="2.32133">
        <ele>26.60000038147</ele>
        <time>2015-08-10T18:31:09.000Z</time>
      </trkpt>
      <trkpt lat="48.85171" lon="2.32106">
        <ele>25.200000762939</ele>
        <time>2015-08-10T18:31:12.000Z</time>
      </trkpt>
      <trkpt lat="48.85172" lon="2.32071">
        <ele>24.200000762939</ele>
        <time>2015-08-10T18:31:16.000Z</time>
      </trkpt>
      <trkpt lat="48.85172" lon="2.3204">
        <ele>23.39999961853</ele>
        <time>2015-08-10T18:31:20.000Z</time>
      </trkpt>
      <trkpt lat="48.85173" lon="2.32009">
        <ele>22.799999237061</ele>
        <time>2015-08-10T18:31:24.000Z</time>
      </trkpt>
      <trkpt lat="48.85173" lon="2.31976">
        <ele>23</ele>
        <time>2015-08-10T18:31:28.000Z</time>
      </trkpt>
      <trkpt lat="48.85174" lon="2.31961">
        <ele>22.200000762939</ele>
        <time>2015-08-10T18:31:30.000Z</time>
      </trkpt>
      <trkpt lat="48.85176" lon="2.31932">
        <ele>20.200000762939</ele>
        <time>2015-08-10T18:31:34.000Z</time>
      </trkpt>
      <trkpt lat="48.85175" lon="2.31924">
        <ele>19.799999237061</ele>
        <time>2015-08-10T18:31:35.000Z</time>
      </trkpt>
      <trkpt lat="48.85176" lon="2.31892">
        <ele>19.799999237061</ele>
        <time>2015-08-10T18:31:39.000Z</time>
      </trkpt>
      <trkpt lat="48.85178" lon="2.3186">
        <ele>20.200000762939</ele>
        <time>2015-08-10T18:31:43.000Z</time>
      </trkpt>
      <trkpt lat="48.85176" lon="2.31828">
        <ele>19.799999237061</ele>
        <time>2015-08-10T18:31:47.000Z</time>
      </trkpt>
      <trkpt lat="48.85176" lon="2.31796">
        <ele>19.60000038147</ele>
        <time>2015-08-10T18:31:51.000Z</time>
      </trkpt>
      <trkpt lat="48.85179" lon="2.31765">
        <ele>20.200000762939</ele>
        <time>2015-08-10T18:31:55.000Z</time>
      </trkpt>
      <trkpt lat="48.8518" lon="2.3175">
        <ele>19.39999961853</ele>
        <time>2015-08-10T18:31:57.000Z</time>
      </trkpt>
      <trkpt lat="48.85181" lon="2.3172">
        <ele>18.799999237061</ele>
        <time>2015-08-10T18:32:01.000Z</time>
      </trkpt>
      <trkpt lat="48.85182" lon="2.31693">
        <ele>17</ele>
        <time>2015-08-10T18:32:05.000Z</time>
      </trkpt>
      <trkpt lat="48.85184" lon="2.31666">
        <ele>15</ele>
        <time>2015-08-10T18:32:09.000Z</time>
      </trkpt>
      <trkpt lat="48.85184" lon="2.31634">
        <ele>17</ele>
        <time>2015-08-10T18:32:13.000Z</time>
      </trkpt>
      <trkpt lat="48.85186" lon="2.31601">
        <ele>16.60000038147</ele>
        <time>2015-08-10T18:32:17.000Z</time>
      </trkpt>
      <trkpt lat="48.85188" lon="2.31568">
        <ele>15.60000038147</ele>
        <time>2015-08-10T18:32:21.000Z</time>
      </trkpt>
      <trkpt lat="48.85185" lon="2.31536">
        <ele>17.200000762939</ele>
        <time>2015-08-10T18:32:25.000Z</time>
      </trkpt>
      <trkpt lat="48.85186" lon="2.31505">
        <ele>17.60000038147</ele>
        <time>2015-08-10T18:32:30.000Z</time>
      </trkpt>
      <trkpt lat="48.85185" lon="2.31475">
        <ele>19.60000038147</ele>
        <time>2015-08-10T18:32:37.000Z</time>
      </trkpt>
      <trkpt lat="48.85184" lon="2.31465">
        <ele>20.39999961853</ele>
        <time>2015-08-10T18:32:40.000Z</time>
      </trkpt>
      <trkpt lat="48.85181" lon="2.31433">
        <ele>23</ele>
        <time>2015-08-10T18:32:47.000Z</time>
      </trkpt>
      <trkpt lat="48.85179" lon="2.31406">
        <ele>23.60000038147</ele>
        <time>2015-08-10T18:32:52.000Z</time>
      </trkpt>
      <trkpt lat="48.85176" lon="2.31383">
        <ele>24</ele>
        <time>2015-08-10T18:32:56.000Z</time>
      </trkpt>
      <trkpt lat="48.85173" lon="2.31364">
        <ele>25</ele>
        <time>2015-08-10T18:32:59.000Z</time>
      </trkpt>
      <trkpt lat="48.85171" lon="2.31338">
        <ele>25.799999237061</ele>
        <time>2015-08-10T18:33:03.000Z</time>
      </trkpt>
      <trkpt lat="48.85169" lon="2.31318">
        <ele>26</ele>
        <time>2015-08-10T18:33:06.000Z</time>
      </trkpt>
      <trkpt lat="48.85168" lon="2.31288">
        <ele>25.200000762939</ele>
        <time>2015-08-10T18:33:10.000Z</time>
      </trkpt>
      <trkpt lat="48.85167" lon="2.31274">
        <ele>25.39999961853</ele>
        <time>2015-08-10T18:33:12.000Z</time>
      </trkpt>
      <trkpt lat="48.85163" lon="2.31247">
        <ele>24.799999237061</ele>
        <time>2015-08-10T18:33:16.000Z</time>
      </trkpt>
      <trkpt lat="48.85161" lon="2.31233">
        <ele>25.39999961853</ele>
        <time>2015-08-10T18:33:18.000Z</time>
      </trkpt>
      <trkpt lat="48.8516" lon="2.3122">
        <ele>26</ele>
        <time>2015-08-10T18:33:20.000Z</time>
      </trkpt>
      <trkpt lat="48.85158" lon="2.31195">
        <ele>27.39999961853</ele>
        <time>2015-08-10T18:33:24.000Z</time>
      </trkpt>
      <trkpt lat="48.85154" lon="2.31163">
        <ele>26.39999961853</ele>
        <time>2015-08-10T18:33:29.000Z</time>
      </trkpt>
      <trkpt lat="48.85155" lon="2.31134">
        <ele>25.39999961853</ele>
        <time>2015-08-10T18:33:33.000Z</time>
      </trkpt>
      <trkpt lat="48.85152" lon="2.31104">
        <ele>24.60000038147</ele>
        <time>2015-08-10T18:33:37.000Z</time>
      </trkpt>
      <trkpt lat="48.85151" lon="2.31079">
        <ele>25.39999961853</ele>
        <time>2015-08-10T18:33:41.000Z</time>
      </trkpt>
      <trkpt lat="48.85149" lon="2.31057">
        <ele>26.39999961853</ele>
        <time>2015-08-10T18:33:46.000Z</time>
      </trkpt>
      <trkpt lat="48.8515" lon="2.3105">
        <ele>26.799999237061</ele>
        <time>2015-08-10T18:33:48.000Z</time>
      </trkpt>
      <trkpt lat="48.85155" lon="2.3104">
        <ele>28.39999961853</ele>
        <time>2015-08-10T18:33:53.000Z</time>
      </trkpt>
      <trkpt lat="48.85156" lon="2.31038">
        <ele>28.799999237061</ele>
        <time>2015-08-10T18:33:54.000Z</time>
      </trkpt>
      <trkpt lat="48.85144" lon="2.31013">
        <ele>31</ele>
        <time>2015-08-10T18:34:04.000Z</time>
      </trkpt>
      <trkpt lat="48.85133" lon="2.30992">
        <ele>34</ele>
        <time>2015-08-10T18:34:10.000Z</time>
      </trkpt>
      <trkpt lat="48.85119" lon="2.30973">
        <ele>35.400001525879</ele>
        <time>2015-08-10T18:34:15.000Z</time>
      </trkpt>
      <trkpt lat="48.85102" lon="2.30958">
        <ele>35.799999237061</ele>
        <time>2015-08-10T18:34:20.000Z</time>
      </trkpt>
      <trkpt lat="48.85087" lon="2.30942">
        <ele>35.599998474121</ele>
        <time>2015-08-10T18:34:25.000Z</time>
      </trkpt>
      <trkpt lat="48.85068" lon="2.30921">
        <ele>38.599998474121</ele>
        <time>2015-08-10T18:34:31.000Z</time>
      </trkpt>
      <trkpt lat="48.85051" lon="2.30906">
        <ele>37.799999237061</ele>
        <time>2015-08-10T18:34:35.000Z</time>
      </trkpt>
      <trkpt lat="48.85034" lon="2.30884">
        <ele>37</ele>
        <time>2015-08-10T18:34:40.000Z</time>
      </trkpt>
      <trkpt lat="48.85017" lon="2.30868">
        <ele>35.200000762939</ele>
        <time>2015-08-10T18:34:44.000Z</time>
      </trkpt>
      <trkpt lat="48.85" lon="2.3085">
        <ele>33.599998474121</ele>
        <time>2015-08-10T18:34:48.000Z</time>
      </trkpt>
      <trkpt lat="48.84984" lon="2.30835">
        <ele>32</ele>
        <time>2015-08-10T18:34:55.000Z</time>
      </trkpt>
      <trkpt lat="48.84969" lon="2.30816">
        <ele>31.60000038147</ele>
        <time>2015-08-10T18:35:05.000Z</time>
      </trkpt>
      <trkpt lat="48.84953" lon="2.308">
        <ele>33</ele>
        <time>2015-08-10T18:35:13.000Z</time>
      </trkpt>
      <trkpt lat="48.84938" lon="2.30781">
        <ele>33.799999237061</ele>
        <time>2015-08-10T18:35:20.000Z</time>
      </trkpt>
      <trkpt lat="48.84923" lon="2.30767">
        <ele>32.799999237061</ele>
        <time>2015-08-10T18:35:25.000Z</time>
      </trkpt>
      <trkpt lat="48.84906" lon="2.30754">
        <ele>31.200000762939</ele>
        <time>2015-08-10T18:35:30.000Z</time>
      </trkpt>
      <trkpt lat="48.8489" lon="2.3074">
        <ele>28.39999961853</ele>
        <time>2015-08-10T18:35:35.000Z</time>
      </trkpt>
      <trkpt lat="48.84873" lon="2.30726">
        <ele>26.39999961853</ele>
        <time>2015-08-10T18:35:41.000Z</time>
      </trkpt>
      <trkpt lat="48.84863" lon="2.30704">
        <ele>26.39999961853</ele>
        <time>2015-08-10T18:35:48.000Z</time>
      </trkpt>
      <trkpt lat="48.8485" lon="2.30682">
        <ele>25.39999961853</ele>
        <time>2015-08-10T18:35:55.000Z</time>
      </trkpt>
      <trkpt lat="48.84834" lon="2.30666">
        <ele>26.200000762939</ele>
        <time>2015-08-10T18:36:00.000Z</time>
      </trkpt>
      <trkpt lat="48.84816" lon="2.30649">
        <ele>23.60000038147</ele>
        <time>2015-08-10T18:36:06.000Z</time>
      </trkpt>
      <trkpt lat="48.84813" lon="2.30645">
        <ele>23</ele>
        <time>2015-08-10T18:36:07.000Z</time>
      </trkpt>
      <trkpt lat="48.84799" lon="2.30619">
        <ele>24</ele>
        <time>2015-08-10T18:36:12.000Z</time>
      </trkpt>
      <trkpt lat="48.84783" lon="2.30595">
        <ele>27.39999961853</ele>
        <time>2015-08-10T18:36:16.000Z</time>
      </trkpt>
      <trkpt lat="48.84764" lon="2.30581">
        <ele>30.39999961853</ele>
        <time>2015-08-10T18:36:19.000Z</time>
      </trkpt>
      <trkpt lat="48.84746" lon="2.30564">
        <ele>33.599998474121</ele>
        <time>2015-08-10T18:36:23.000Z</time>
      </trkpt>
      <trkpt lat="48.84731" lon="2.30549">
        <ele>35.599998474121</ele>
        <time>2015-08-10T18:36:27.000Z</time>
      </trkpt>
      <trkpt lat="48.84715" lon="2.30534">
        <ele>37.400001525879</ele>
        <time>2015-08-10T18:36:31.000Z</time>
      </trkpt>
      <trkpt lat="48.84709" lon="2.30526">
        <ele>37.400001525879</ele>
        <time>2015-08-10T18:36:33.000Z</time>
      </trkpt>
      <trkpt lat="48.84702" lon="2.30508">
        <ele>37.400001525879</ele>
        <time>2015-08-10T18:36:39.000Z</time>
      </trkpt>
      <trkpt lat="48.84701" lon="2.30506">
        <ele>37.599998474121</ele>
        <time>2015-08-10T18:36:40.000Z</time>
      </trkpt>
      <trkpt lat="48.84695" lon="2.30497">
        <ele>39.799999237061</ele>
        <time>2015-08-10T18:36:50.000Z</time>
      </trkpt>
      <trkpt lat="48.84683" lon="2.30514">
        <ele>40.599998474121</ele>
        <time>2015-08-10T18:36:57.000Z</time>
      </trkpt>
      <trkpt lat="48.84681" lon="2.3052">
        <ele>40.599998474121</ele>
        <time>2015-08-10T18:36:58.000Z</time>
      </trkpt>
      <trkpt lat="48.84673" lon="2.30545">
        <ele>37.400001525879</ele>
        <time>2015-08-10T18:37:04.000Z</time>
      </trkpt>
      <trkpt lat="48.84663" lon="2.30574">
        <ele>34.200000762939</ele>
        <time>2015-08-10T18:37:09.000Z</time>
      </trkpt>
      <trkpt lat="48.84659" lon="2.30581">
        <ele>32.400001525879</ele>
        <time>2015-08-10T18:37:10.000Z</time>
      </trkpt>
      <trkpt lat="48.84643" lon="2.30579">
        <ele>29.799999237061</ele>
        <time>2015-08-10T18:37:16.000Z</time>
      </trkpt>
      <trkpt lat="48.84636" lon="2.3056">
        <ele>29</ele>
        <time>2015-08-10T18:37:20.000Z</time>
      </trkpt>
      <trkpt lat="48.84626" lon="2.30532">
        <ele>28.60000038147</ele>
        <time>2015-08-10T18:37:25.000Z</time>
      </trkpt>
      <trkpt lat="48.84617" lon="2.30505">
        <ele>27.39999961853</ele>
        <time>2015-08-10T18:37:30.000Z</time>
      </trkpt>
      <trkpt lat="48.8461" lon="2.30478">
        <ele>25.60000038147</ele>
        <time>2015-08-10T18:37:35.000Z</time>
      </trkpt>
      <trkpt lat="48.84599" lon="2.3045">
        <ele>24.60000038147</ele>
        <time>2015-08-10T18:37:41.000Z</time>
      </trkpt>
      <trkpt lat="48.84592" lon="2.3042">
        <ele>23.39999961853</ele>
        <time>2015-08-10T18:37:46.000Z</time>
      </trkpt>
      <trkpt lat="48.84586" lon="2.30392">
        <ele>24.200000762939</ele>
        <time>2015-08-10T18:37:50.000Z</time>
      </trkpt>
      <trkpt lat="48.84578" lon="2.30364">
        <ele>24.799999237061</ele>
        <time>2015-08-10T18:37:54.000Z</time>
      </trkpt>
      <trkpt lat="48.8457" lon="2.30336">
        <ele>25.200000762939</ele>
        <time>2015-08-10T18:37:58.000Z</time>
      </trkpt>
      <trkpt lat="48.84562" lon="2.30307">
        <ele>25</ele>
        <time>2015-08-10T18:38:02.000Z</time>
      </trkpt>
      <trkpt lat="48.8456" lon="2.303">
        <ele>25</ele>
        <time>2015-08-10T18:38:03.000Z</time>
      </trkpt>
      <trkpt lat="48.84556" lon="2.30286">
        <ele>25.39999961853</ele>
        <time>2015-08-10T18:38:05.000Z</time>
      </trkpt>
      <trkpt lat="48.84552" lon="2.30272">
        <ele>25</ele>
        <time>2015-08-10T18:38:07.000Z</time>
      </trkpt>
      <trkpt lat="48.84546" lon="2.30243">
        <ele>25.200000762939</ele>
        <time>2015-08-10T18:38:11.000Z</time>
      </trkpt>
      <trkpt lat="48.84542" lon="2.30229">
        <ele>25.39999961853</ele>
        <time>2015-08-10T18:38:13.000Z</time>
      </trkpt>
      <trkpt lat="48.8454" lon="2.30216">
        <ele>26</ele>
        <time>2015-08-10T18:38:15.000Z</time>
      </trkpt>
      <trkpt lat="48.84521" lon="2.30207">
        <ele>27.60000038147</ele>
        <time>2015-08-10T18:38:20.000Z</time>
      </trkpt>
      <trkpt lat="48.84503" lon="2.30212">
        <ele>27.39999961853</ele>
        <time>2015-08-10T18:38:23.000Z</time>
      </trkpt>
      <trkpt lat="48.84493" lon="2.30216">
        <ele>27.39999961853</ele>
        <time>2015-08-10T18:38:25.000Z</time>
      </trkpt>
      <trkpt lat="48.84487" lon="2.30216">
        <ele>27.799999237061</ele>
        <time>2015-08-10T18:38:26.000Z</time>
      </trkpt>
      <trkpt lat="48.84468" lon="2.3022">
        <ele>27.60000038147</ele>
        <time>2015-08-10T18:38:30.000Z</time>
      </trkpt>
      <trkpt lat="48.84463" lon="2.30222">
        <ele>27.60000038147</ele>
        <time>2015-08-10T18:38:31.000Z</time>
      </trkpt>
      <trkpt lat="48.84441" lon="2.30229">
        <ele>26</ele>
        <time>2015-08-10T18:38:35.000Z</time>
      </trkpt>
      <trkpt lat="48.84421" lon="2.30237">
        <ele>26.39999961853</ele>
        <time>2015-08-10T18:38:39.000Z</time>
      </trkpt>
      <trkpt lat="48.84401" lon="2.30245">
        <ele>27.60000038147</ele>
        <time>2015-08-10T18:38:43.000Z</time>
      </trkpt>
      <trkpt lat="48.84396" lon="2.30248">
        <ele>27.799999237061</ele>
        <time>2015-08-10T18:38:44.000Z</time>
      </trkpt>
      <trkpt lat="48.8438" lon="2.30254">
        <ele>28.60000038147</ele>
        <time>2015-08-10T18:38:47.000Z</time>
      </trkpt>
      <trkpt lat="48.84356" lon="2.30255">
        <ele>31</ele>
        <time>2015-08-10T18:38:51.000Z</time>
      </trkpt>
      <trkpt lat="48.84335" lon="2.3026">
        <ele>30.60000038147</ele>
        <time>2015-08-10T18:38:55.000Z</time>
      </trkpt>
      <trkpt lat="48.84313" lon="2.30266">
        <ele>30.60000038147</ele>
        <time>2015-08-10T18:38:59.000Z</time>
      </trkpt>
      <trkpt lat="48.84293" lon="2.30271">
        <ele>29.799999237061</ele>
        <time>2015-08-10T18:39:03.000Z</time>
      </trkpt>
      <trkpt lat="48.84277" lon="2.30274">
        <ele>29.799999237061</ele>
        <time>2015-08-10T18:39:06.000Z</time>
      </trkpt>
      <trkpt lat="48.84259" lon="2.30261">
        <ele>30.200000762939</ele>
        <time>2015-08-10T18:39:10.000Z</time>
      </trkpt>
      <trkpt lat="48.84253" lon="2.30243">
        <ele>28.60000038147</ele>
        <time>2015-08-10T18:39:13.000Z</time>
      </trkpt>
      <trkpt lat="48.84251" lon="2.30236">
        <ele>29</ele>
        <time>2015-08-10T18:39:14.000Z</time>
      </trkpt>
      <trkpt lat="48.84242" lon="2.30209">
        <ele>29.60000038147</ele>
        <time>2015-08-10T18:39:18.000Z</time>
      </trkpt>
      <trkpt lat="48.84234" lon="2.3018">
        <ele>30.799999237061</ele>
        <time>2015-08-10T18:39:22.000Z</time>
      </trkpt>
      <trkpt lat="48.84226" lon="2.30148">
        <ele>29</ele>
        <time>2015-08-10T18:39:26.000Z</time>
      </trkpt>
      <trkpt lat="48.84218" lon="2.30116">
        <ele>28</ele>
        <time>2015-08-10T18:39:30.000Z</time>
      </trkpt>
      <trkpt lat="48.84211" lon="2.30085">
        <ele>28.60000038147</ele>
        <time>2015-08-10T18:39:34.000Z</time>
      </trkpt>
      <trkpt lat="48.84202" lon="2.30054">
        <ele>27</ele>
        <time>2015-08-10T18:39:38.000Z</time>
      </trkpt>
      <trkpt lat="48.84197" lon="2.30032">
        <ele>26.39999961853</ele>
        <time>2015-08-10T18:39:41.000Z</time>
      </trkpt>
      <trkpt lat="48.84189" lon="2.30003">
        <ele>26.799999237061</ele>
        <time>2015-08-10T18:39:45.000Z</time>
      </trkpt>
      <trkpt lat="48.84181" lon="2.29978">
        <ele>28.39999961853</ele>
        <time>2015-08-10T18:39:49.000Z</time>
      </trkpt>
      <trkpt lat="48.84173" lon="2.29954">
        <ele>28.60000038147</ele>
        <time>2015-08-10T18:39:53.000Z</time>
      </trkpt>
      <trkpt lat="48.84164" lon="2.29925">
        <ele>30.39999961853</ele>
        <time>2015-08-10T18:39:58.000Z</time>
      </trkpt>
      <trkpt lat="48.84163" lon="2.29915">
        <ele>32.200000762939</ele>
        <time>2015-08-10T18:40:00.000Z</time>
      </trkpt>
      <trkpt lat="48.84155" lon="2.29887">
        <ele>33</ele>
        <time>2015-08-10T18:40:05.000Z</time>
      </trkpt>
      <trkpt lat="48.84146" lon="2.2986">
        <ele>34.400001525879</ele>
        <time>2015-08-10T18:40:09.000Z</time>
      </trkpt>
      <trkpt lat="48.84134" lon="2.29829">
        <ele>34.599998474121</ele>
        <time>2015-08-10T18:40:13.000Z</time>
      </trkpt>
      <trkpt lat="48.84124" lon="2.29796">
        <ele>34</ele>
        <time>2015-08-10T18:40:17.000Z</time>
      </trkpt>
      <trkpt lat="48.84118" lon="2.29771">
        <ele>34</ele>
        <time>2015-08-10T18:40:20.000Z</time>
      </trkpt>
      <trkpt lat="48.84107" lon="2.29739">
        <ele>34.400001525879</ele>
        <time>2015-08-10T18:40:24.000Z</time>
      </trkpt>
      <trkpt lat="48.84099" lon="2.29716">
        <ele>35.200000762939</ele>
        <time>2015-08-10T18:40:27.000Z</time>
      </trkpt>
      <trkpt lat="48.84086" lon="2.29687">
        <ele>35.599998474121</ele>
        <time>2015-08-10T18:40:31.000Z</time>
      </trkpt>
      <trkpt lat="48.84076" lon="2.29657">
        <ele>35</ele>
        <time>2015-08-10T18:40:35.000Z</time>
      </trkpt>
      <trkpt lat="48.84065" lon="2.29628">
        <ele>34.200000762939</ele>
        <time>2015-08-10T18:40:39.000Z</time>
      </trkpt>
      <trkpt lat="48.84056" lon="2.29597">
        <ele>33.400001525879</ele>
        <time>2015-08-10T18:40:43.000Z</time>
      </trkpt>
      <trkpt lat="48.84047" lon="2.29567">
        <ele>33.799999237061</ele>
        <time>2015-08-10T18:40:47.000Z</time>
      </trkpt>
      <trkpt lat="48.8404" lon="2.29547">
        <ele>33.400001525879</ele>
        <time>2015-08-10T18:40:50.000Z</time>
      </trkpt>
      <trkpt lat="48.84032" lon="2.29519">
        <ele>34</ele>
        <time>2015-08-10T18:40:54.000Z</time>
      </trkpt>
      <trkpt lat="48.84022" lon="2.2949">
        <ele>33.799999237061</ele>
        <time>2015-08-10T18:40:58.000Z</time>
      </trkpt>
      <trkpt lat="48.84016" lon="2.29465">
        <ele>33.799999237061</ele>
        <time>2015-08-10T18:41:01.000Z</time>
      </trkpt>
      <trkpt lat="48.84008" lon="2.29436">
        <ele>30.60000038147</ele>
        <time>2015-08-10T18:41:05.000Z</time>
      </trkpt>
      <trkpt lat="48.84" lon="2.29404">
        <ele>31.39999961853</ele>
        <time>2015-08-10T18:41:09.000Z</time>
      </trkpt>
      <trkpt lat="48.83989" lon="2.29373">
        <ele>32.400001525879</ele>
        <time>2015-08-10T18:41:13.000Z</time>
      </trkpt>
      <trkpt lat="48.83981" lon="2.29348">
        <ele>32.799999237061</ele>
        <time>2015-08-10T18:41:16.000Z</time>
      </trkpt>
      <trkpt lat="48.83971" lon="2.29323">
        <ele>31.39999961853</ele>
        <time>2015-08-10T18:41:19.000Z</time>
      </trkpt>
      <trkpt lat="48.83962" lon="2.29298">
        <ele>30.39999961853</ele>
        <time>2015-08-10T18:41:22.000Z</time>
      </trkpt>
      <trkpt lat="48.83951" lon="2.29265">
        <ele>29.799999237061</ele>
        <time>2015-08-10T18:41:26.000Z</time>
      </trkpt>
      <trkpt lat="48.83945" lon="2.29232">
        <ele>27.39999961853</ele>
        <time>2015-08-10T18:41:30.000Z</time>
      </trkpt>
      <trkpt lat="48.83937" lon="2.29206">
        <ele>26.60000038147</ele>
        <time>2015-08-10T18:41:34.000Z</time>
      </trkpt>
      <trkpt lat="48.83935" lon="2.29196">
        <ele>26.200000762939</ele>
        <time>2015-08-10T18:41:36.000Z</time>
      </trkpt>
      <trkpt lat="48.83926" lon="2.29168">
        <ele>25.799999237061</ele>
        <time>2015-08-10T18:41:41.000Z</time>
      </trkpt>
      <trkpt lat="48.8392" lon="2.29158">
        <ele>24.60000038147</ele>
        <time>2015-08-10T18:41:43.000Z</time>
      </trkpt>
      <trkpt lat="48.83912" lon="2.29129">
        <ele>24</ele>
        <time>2015-08-10T18:41:47.000Z</time>
      </trkpt>
      <trkpt lat="48.83904" lon="2.29099">
        <ele>23.799999237061</ele>
        <time>2015-08-10T18:41:51.000Z</time>
      </trkpt>
      <trkpt lat="48.83895" lon="2.29066">
        <ele>23.799999237061</ele>
        <time>2015-08-10T18:41:55.000Z</time>
      </trkpt>
      <trkpt lat="48.83887" lon="2.29038">
        <ele>24</ele>
        <time>2015-08-10T18:41:58.000Z</time>
      </trkpt>
      <trkpt lat="48.83889" lon="2.29018">
        <ele>25.200000762939</ele>
        <time>2015-08-10T18:42:00.000Z</time>
      </trkpt>
      <trkpt lat="48.83881" lon="2.28985">
        <ele>25.60000038147</ele>
        <time>2015-08-10T18:42:04.000Z</time>
      </trkpt>
      <trkpt lat="48.83868" lon="2.28957">
        <ele>28.200000762939</ele>
        <time>2015-08-10T18:42:08.000Z</time>
      </trkpt>
      <trkpt lat="48.83862" lon="2.28934">
        <ele>34.200000762939</ele>
        <time>2015-08-10T18:42:12.000Z</time>
      </trkpt>
      <trkpt lat="48.83855" lon="2.28908">
        <ele>36</ele>
        <time>2015-08-10T18:42:17.000Z</time>
      </trkpt>
      <trkpt lat="48.83852" lon="2.28896">
        <ele>36.599998474121</ele>
        <time>2015-08-10T18:42:19.000Z</time>
      </trkpt>
      <trkpt lat="48.83846" lon="2.28875">
        <ele>37.599998474121</ele>
        <time>2015-08-10T18:42:22.000Z</time>
      </trkpt>
      <trkpt lat="48.83838" lon="2.28844">
        <ele>39.599998474121</ele>
        <time>2015-08-10T18:42:26.000Z</time>
      </trkpt>
      <trkpt lat="48.83828" lon="2.28813">
        <ele>42.200000762939</ele>
        <time>2015-08-10T18:42:30.000Z</time>
      </trkpt>
      <trkpt lat="48.83818" lon="2.28781">
        <ele>43.799999237061</ele>
        <time>2015-08-10T18:42:34.000Z</time>
      </trkpt>
      <trkpt lat="48.83808" lon="2.28757">
        <ele>45</ele>
        <time>2015-08-10T18:42:37.000Z</time>
      </trkpt>
      <trkpt lat="48.838" lon="2.28723">
        <ele>48.400001525879</ele>
        <time>2015-08-10T18:42:41.000Z</time>
      </trkpt>
      <trkpt lat="48.83788" lon="2.28698">
        <ele>47.599998474121</ele>
        <time>2015-08-10T18:42:44.000Z</time>
      </trkpt>
      <trkpt lat="48.83783" lon="2.28674">
        <ele>48.200000762939</ele>
        <time>2015-08-10T18:42:47.000Z</time>
      </trkpt>
      <trkpt lat="48.83779" lon="2.28646">
        <ele>50</ele>
        <time>2015-08-10T18:42:50.000Z</time>
      </trkpt>
      <trkpt lat="48.83777" lon="2.28637">
        <ele>50.400001525879</ele>
        <time>2015-08-10T18:42:51.000Z</time>
      </trkpt>
      <trkpt lat="48.8377" lon="2.2861">
        <ele>51.400001525879</ele>
        <time>2015-08-10T18:42:54.000Z</time>
      </trkpt>
      <trkpt lat="48.83763" lon="2.28584">
        <ele>52</ele>
        <time>2015-08-10T18:42:57.000Z</time>
      </trkpt>
      <trkpt lat="48.8376" lon="2.28577">
        <ele>50.799999237061</ele>
        <time>2015-08-10T18:42:58.000Z</time>
      </trkpt>
      <trkpt lat="48.83745" lon="2.28547">
        <ele>49.599998474121</ele>
        <time>2015-08-10T18:43:02.000Z</time>
      </trkpt>
      <trkpt lat="48.83735" lon="2.28523">
        <ele>49</ele>
        <time>2015-08-10T18:43:05.000Z</time>
      </trkpt>
      <trkpt lat="48.83725" lon="2.28491">
        <ele>50.799999237061</ele>
        <time>2015-08-10T18:43:09.000Z</time>
      </trkpt>
      <trkpt lat="48.83717" lon="2.28465">
        <ele>51.599998474121</ele>
        <time>2015-08-10T18:43:12.000Z</time>
      </trkpt>
      <trkpt lat="48.83712" lon="2.28448">
        <ele>52.400001525879</ele>
        <time>2015-08-10T18:43:14.000Z</time>
      </trkpt>
      <trkpt lat="48.83705" lon="2.28423">
        <ele>53.400001525879</ele>
        <time>2015-08-10T18:43:17.000Z</time>
      </trkpt>
      <trkpt lat="48.83693" lon="2.28398">
        <ele>52</ele>
        <time>2015-08-10T18:43:20.000Z</time>
      </trkpt>
      <trkpt lat="48.83682" lon="2.28367">
        <ele>52.799999237061</ele>
        <time>2015-08-10T18:43:24.000Z</time>
      </trkpt>
      <trkpt lat="48.83675" lon="2.28342">
        <ele>53.200000762939</ele>
        <time>2015-08-10T18:43:27.000Z</time>
      </trkpt>
      <trkpt lat="48.83666" lon="2.28317">
        <ele>53.599998474121</ele>
        <time>2015-08-10T18:43:30.000Z</time>
      </trkpt>
      <trkpt lat="48.83656" lon="2.28293">
        <ele>54.200000762939</ele>
        <time>2015-08-10T18:43:33.000Z</time>
      </trkpt>
      <trkpt lat="48.83647" lon="2.28267">
        <ele>54.400001525879</ele>
        <time>2015-08-10T18:43:36.000Z</time>
      </trkpt>
      <trkpt lat="48.83643" lon="2.28259">
        <ele>54.599998474121</ele>
        <time>2015-08-10T18:43:37.000Z</time>
      </trkpt>
      <trkpt lat="48.83634" lon="2.28236">
        <ele>55.799999237061</ele>
        <time>2015-08-10T18:43:40.000Z</time>
      </trkpt>
      <trkpt lat="48.83622" lon="2.2821">
        <ele>57.599998474121</ele>
        <time>2015-08-10T18:43:44.000Z</time>
      </trkpt>
      <trkpt lat="48.83618" lon="2.28199">
        <ele>57.799999237061</ele>
        <time>2015-08-10T18:43:46.000Z</time>
      </trkpt>
      <trkpt lat="48.83606" lon="2.28177">
        <ele>57</ele>
        <time>2015-08-10T18:43:51.000Z</time>
      </trkpt>
      <trkpt lat="48.83606" lon="2.2817">
        <ele>56</ele>
        <time>2015-08-10T18:43:52.000Z</time>
      </trkpt>
      <trkpt lat="48.83605" lon="2.28165">
        <ele>55.400001525879</ele>
        <time>2015-08-10T18:43:53.000Z</time>
      </trkpt>
      <trkpt lat="48.83603" lon="2.28156">
        <ele>54.799999237061</ele>
        <time>2015-08-10T18:43:55.000Z</time>
      </trkpt>
      <trkpt lat="48.83604" lon="2.28151">
        <ele>53.599998474121</ele>
        <time>2015-08-10T18:44:00.000Z</time>
      </trkpt>
      <trkpt lat="48.83588" lon="2.2814">
        <ele>52.200000762939</ele>
        <time>2015-08-10T18:44:07.000Z</time>
      </trkpt>
      <trkpt lat="48.8357" lon="2.28125">
        <ele>54</ele>
        <time>2015-08-10T18:44:14.000Z</time>
      </trkpt>
      <trkpt lat="48.83555" lon="2.28105">
        <ele>44</ele>
        <time>2015-08-10T18:44:20.000Z</time>
      </trkpt>
      <trkpt lat="48.83549" lon="2.28082">
        <ele>38.200000762939</ele>
        <time>2015-08-10T18:44:40.000Z</time>
      </trkpt>
      <trkpt lat="48.83556" lon="2.28054">
        <ele>38.400001525879</ele>
        <time>2015-08-10T18:44:46.000Z</time>
      </trkpt>
      <trkpt lat="48.83564" lon="2.28022">
        <ele>37.799999237061</ele>
        <time>2015-08-10T18:44:51.000Z</time>
      </trkpt>
      <trkpt lat="48.83571" lon="2.27995">
        <ele>37.200000762939</ele>
        <time>2015-08-10T18:44:55.000Z</time>
      </trkpt>
      <trkpt lat="48.83579" lon="2.27963">
        <ele>37.799999237061</ele>
        <time>2015-08-10T18:45:00.000Z</time>
      </trkpt>
      <trkpt lat="48.83585" lon="2.27937">
        <ele>37.599998474121</ele>
        <time>2015-08-10T18:45:04.000Z</time>
      </trkpt>
      <trkpt lat="48.83589" lon="2.27905">
        <ele>37.799999237061</ele>
        <time>2015-08-10T18:45:09.000Z</time>
      </trkpt>
      <trkpt lat="48.83593" lon="2.27878">
        <ele>40.400001525879</ele>
        <time>2015-08-10T18:45:13.000Z</time>
      </trkpt>
      <trkpt lat="48.83595" lon="2.27872">
        <ele>42.400001525879</ele>
        <time>2015-08-10T18:45:14.000Z</time>
      </trkpt>
      <trkpt lat="48.83598" lon="2.27856">
        <ele>43.799999237061</ele>
        <time>2015-08-10T18:45:17.000Z</time>
      </trkpt>
      <trkpt lat="48.83607" lon="2.27824">
        <ele>43.400001525879</ele>
        <time>2015-08-10T18:45:22.000Z</time>
      </trkpt>
      <trkpt lat="48.83608" lon="2.27818">
        <ele>44.599998474121</ele>
        <time>2015-08-10T18:45:23.000Z</time>
      </trkpt>
      <trkpt lat="48.83614" lon="2.27791">
        <ele>46.799999237061</ele>
        <time>2015-08-10T18:45:27.000Z</time>
      </trkpt>
      <trkpt lat="48.83622" lon="2.27764">
        <ele>46.200000762939</ele>
        <time>2015-08-10T18:45:31.000Z</time>
      </trkpt>
      <trkpt lat="48.8363" lon="2.27733">
        <ele>46.799999237061</ele>
        <time>2015-08-10T18:45:35.000Z</time>
      </trkpt>
      <trkpt lat="48.83638" lon="2.27703">
        <ele>46.799999237061</ele>
        <time>2015-08-10T18:45:39.000Z</time>
      </trkpt>
      <trkpt lat="48.83643" lon="2.2767">
        <ele>47</ele>
        <time>2015-08-10T18:45:43.000Z</time>
      </trkpt>
      <trkpt lat="48.8365" lon="2.27642">
        <ele>45.400001525879</ele>
        <time>2015-08-10T18:45:46.000Z</time>
      </trkpt>
      <trkpt lat="48.83653" lon="2.27614">
        <ele>47.400001525879</ele>
        <time>2015-08-10T18:45:49.000Z</time>
      </trkpt>
      <trkpt lat="48.83657" lon="2.27586">
        <ele>48.799999237061</ele>
        <time>2015-08-10T18:45:52.000Z</time>
      </trkpt>
      <trkpt lat="48.83661" lon="2.27556">
        <ele>48.599998474121</ele>
        <time>2015-08-10T18:45:55.000Z</time>
      </trkpt>
      <trkpt lat="48.83667" lon="2.27526">
        <ele>49.200000762939</ele>
        <time>2015-08-10T18:45:58.000Z</time>
      </trkpt>
      <trkpt lat="48.83674" lon="2.27495">
        <ele>49</ele>
        <time>2015-08-10T18:46:01.000Z</time>
      </trkpt>
      <trkpt lat="48.8368" lon="2.27465">
        <ele>48.799999237061</ele>
        <time>2015-08-10T18:46:04.000Z</time>
      </trkpt>
      <trkpt lat="48.83685" lon="2.27435">
        <ele>48</ele>
        <time>2015-08-10T18:46:08.000Z</time>
      </trkpt>
      <trkpt lat="48.83689" lon="2.27426">
        <ele>49.200000762939</ele>
        <time>2015-08-10T18:46:10.000Z</time>
      </trkpt>
      <trkpt lat="48.83692" lon="2.27412">
        <ele>49</ele>
        <time>2015-08-10T18:46:14.000Z</time>
      </trkpt>
      <trkpt lat="48.83704" lon="2.27414">
        <ele>51</ele>
        <time>2015-08-10T18:46:26.000Z</time>
      </trkpt>
      <trkpt lat="48.83698" lon="2.27404">
        <ele>45.599998474121</ele>
        <time>2015-08-10T18:46:45.000Z</time>
      </trkpt>
      <trkpt lat="48.83693" lon="2.27425">
        <ele>42.200000762939</ele>
        <time>2015-08-10T18:47:40.000Z</time>
      </trkpt>
      <trkpt lat="48.83695" lon="2.2744">
        <ele>41.200000762939</ele>
        <time>2015-08-10T18:47:46.000Z</time>
      </trkpt>
      <trkpt lat="48.83691" lon="2.27467">
        <ele>40.400001525879</ele>
        <time>2015-08-10T18:47:52.000Z</time>
      </trkpt>
      <trkpt lat="48.83687" lon="2.27496">
        <ele>41.200000762939</ele>
        <time>2015-08-10T18:47:56.000Z</time>
      </trkpt>
      <trkpt lat="48.83682" lon="2.27522">
        <ele>42.400001525879</ele>
        <time>2015-08-10T18:48:00.000Z</time>
      </trkpt>
      <trkpt lat="48.83677" lon="2.27552">
        <ele>43.799999237061</ele>
        <time>2015-08-10T18:48:05.000Z</time>
      </trkpt>
      <trkpt lat="48.83671" lon="2.27581">
        <ele>45.400001525879</ele>
        <time>2015-08-10T18:48:10.000Z</time>
      </trkpt>
      <trkpt lat="48.83666" lon="2.27612">
        <ele>47.400001525879</ele>
        <time>2015-08-10T18:48:15.000Z</time>
      </trkpt>
      <trkpt lat="48.83662" lon="2.2764">
        <ele>49</ele>
        <time>2015-08-10T18:48:19.000Z</time>
      </trkpt>
      <trkpt lat="48.83655" lon="2.27671">
        <ele>50.200000762939</ele>
        <time>2015-08-10T18:48:23.000Z</time>
      </trkpt>
      <trkpt lat="48.8365" lon="2.27701">
        <ele>51.200000762939</ele>
        <time>2015-08-10T18:48:27.000Z</time>
      </trkpt>
      <trkpt lat="48.83644" lon="2.2773">
        <ele>51.599998474121</ele>
        <time>2015-08-10T18:48:31.000Z</time>
      </trkpt>
      <trkpt lat="48.83637" lon="2.27759">
        <ele>52.400001525879</ele>
        <time>2015-08-10T18:48:35.000Z</time>
      </trkpt>
      <trkpt lat="48.83629" lon="2.27788">
        <ele>53</ele>
        <time>2015-08-10T18:48:39.000Z</time>
      </trkpt>
      <trkpt lat="48.83611" lon="2.27801">
        <ele>46.799999237061</ele>
        <time>2015-08-10T18:48:42.000Z</time>
      </trkpt>
      <trkpt lat="48.836" lon="2.278">
        <ele>45.200000762939</ele>
        <time>2015-08-10T18:48:44.000Z</time>
      </trkpt>
      <trkpt lat="48.83595" lon="2.278">
        <ele>44</ele>
        <time>2015-08-10T18:48:45.000Z</time>
      </trkpt>
      <trkpt lat="48.83574" lon="2.27792">
        <ele>42.400001525879</ele>
        <time>2015-08-10T18:48:49.000Z</time>
      </trkpt>
      <trkpt lat="48.83551" lon="2.27781">
        <ele>38.599998474121</ele>
        <time>2015-08-10T18:48:53.000Z</time>
      </trkpt>
      <trkpt lat="48.8353" lon="2.27771">
        <ele>35.799999237061</ele>
        <time>2015-08-10T18:48:57.000Z</time>
      </trkpt>
      <trkpt lat="48.83509" lon="2.27764">
        <ele>34</ele>
        <time>2015-08-10T18:49:01.000Z</time>
      </trkpt>
      <trkpt lat="48.83488" lon="2.27755">
        <ele>32</ele>
        <time>2015-08-10T18:49:05.000Z</time>
      </trkpt>
      <trkpt lat="48.83466" lon="2.27745">
        <ele>32</ele>
        <time>2015-08-10T18:49:09.000Z</time>
      </trkpt>
      <trkpt lat="48.8345" lon="2.27736">
        <ele>30.799999237061</ele>
        <time>2015-08-10T18:49:12.000Z</time>
      </trkpt>
      <trkpt lat="48.8343" lon="2.27725">
        <ele>29</ele>
        <time>2015-08-10T18:49:16.000Z</time>
      </trkpt>
      <trkpt lat="48.83412" lon="2.27715">
        <ele>29.39999961853</ele>
        <time>2015-08-10T18:49:20.000Z</time>
      </trkpt>
      <trkpt lat="48.83393" lon="2.27705">
        <ele>31</ele>
        <time>2015-08-10T18:49:25.000Z</time>
      </trkpt>
      <trkpt lat="48.83375" lon="2.27697">
        <ele>30.60000038147</ele>
        <time>2015-08-10T18:49:29.000Z</time>
      </trkpt>
      <trkpt lat="48.83366" lon="2.2767">
        <ele>29.39999961853</ele>
        <time>2015-08-10T18:49:33.000Z</time>
      </trkpt>
      <trkpt lat="48.83365" lon="2.27663">
        <ele>29</ele>
        <time>2015-08-10T18:49:34.000Z</time>
      </trkpt>
      <trkpt lat="48.83359" lon="2.27646">
        <ele>27.39999961853</ele>
        <time>2015-08-10T18:49:37.000Z</time>
      </trkpt>
      <trkpt lat="48.83342" lon="2.27629">
        <ele>26</ele>
        <time>2015-08-10T18:49:43.000Z</time>
      </trkpt>
      <trkpt lat="48.83326" lon="2.2764">
        <ele>26.39999961853</ele>
        <time>2015-08-10T18:49:48.000Z</time>
      </trkpt>
      <trkpt lat="48.83322" lon="2.27647">
        <ele>26</ele>
        <time>2015-08-10T18:49:50.000Z</time>
      </trkpt>
      <trkpt lat="48.83316" lon="2.27658">
        <ele>26</ele>
        <time>2015-08-10T18:49:53.000Z</time>
      </trkpt>
      <trkpt lat="48.83309" lon="2.27662">
        <ele>25.39999961853</ele>
        <time>2015-08-10T18:49:59.000Z</time>
      </trkpt>
      <trkpt lat="48.8329" lon="2.27648">
        <ele>25.799999237061</ele>
        <time>2015-08-10T18:50:20.000Z</time>
      </trkpt>
      <trkpt lat="48.83274" lon="2.27634">
        <ele>26.60000038147</ele>
        <time>2015-08-10T18:50:24.000Z</time>
      </trkpt>
      <trkpt lat="48.83259" lon="2.27615">
        <ele>27</ele>
        <time>2015-08-10T18:50:28.000Z</time>
      </trkpt>
      <trkpt lat="48.83256" lon="2.27582">
        <ele>27.60000038147</ele>
        <time>2015-08-10T18:50:32.000Z</time>
      </trkpt>
      <trkpt lat="48.83256" lon="2.27545">
        <ele>27.60000038147</ele>
        <time>2015-08-10T18:50:36.000Z</time>
      </trkpt>
      <trkpt lat="48.83254" lon="2.27529">
        <ele>27.200000762939</ele>
        <time>2015-08-10T18:50:38.000Z</time>
      </trkpt>
      <trkpt lat="48.8325" lon="2.27512">
        <ele>27.39999961853</ele>
        <time>2015-08-10T18:50:40.000Z</time>
      </trkpt>
      <trkpt lat="48.8324" lon="2.27489">
        <ele>26.799999237061</ele>
        <time>2015-08-10T18:50:43.000Z</time>
      </trkpt>
      <trkpt lat="48.83234" lon="2.27474">
        <ele>25.39999961853</ele>
        <time>2015-08-10T18:50:45.000Z</time>
      </trkpt>
      <trkpt lat="48.83224" lon="2.2745">
        <ele>23.60000038147</ele>
        <time>2015-08-10T18:50:48.000Z</time>
      </trkpt>
      <trkpt lat="48.83214" lon="2.27427">
        <ele>23.39999961853</ele>
        <time>2015-08-10T18:50:51.000Z</time>
      </trkpt>
      <trkpt lat="48.83211" lon="2.27418">
        <ele>23</ele>
        <time>2015-08-10T18:50:52.000Z</time>
      </trkpt>
      <trkpt lat="48.83205" lon="2.27384">
        <ele>21.799999237061</ele>
        <time>2015-08-10T18:50:56.000Z</time>
      </trkpt>
      <trkpt lat="48.83204" lon="2.27376">
        <ele>21.60000038147</ele>
        <time>2015-08-10T18:50:57.000Z</time>
      </trkpt>
      <trkpt lat="48.83203" lon="2.27342">
        <ele>20.39999961853</ele>
        <time>2015-08-10T18:51:01.000Z</time>
      </trkpt>
      <trkpt lat="48.83205" lon="2.2731">
        <ele>19.200000762939</ele>
        <time>2015-08-10T18:51:05.000Z</time>
      </trkpt>
      <trkpt lat="48.8321" lon="2.27276">
        <ele>20</ele>
        <time>2015-08-10T18:51:09.000Z</time>
      </trkpt>
      <trkpt lat="48.83212" lon="2.27261">
        <ele>20</ele>
        <time>2015-08-10T18:51:11.000Z</time>
      </trkpt>
      <trkpt lat="48.83216" lon="2.27228">
        <ele>20.799999237061</ele>
        <time>2015-08-10T18:51:15.000Z</time>
      </trkpt>
      <trkpt lat="48.83213" lon="2.27194">
        <ele>22.200000762939</ele>
        <time>2015-08-10T18:51:19.000Z</time>
      </trkpt>
      <trkpt lat="48.8321" lon="2.27177">
        <ele>22.60000038147</ele>
        <time>2015-08-10T18:51:21.000Z</time>
      </trkpt>
      <trkpt lat="48.83202" lon="2.27153">
        <ele>23.200000762939</ele>
        <time>2015-08-10T18:51:24.000Z</time>
      </trkpt>
      <trkpt lat="48.83198" lon="2.27145">
        <ele>23.60000038147</ele>
        <time>2015-08-10T18:51:25.000Z</time>
      </trkpt>
      <trkpt lat="48.83194" lon="2.27138">
        <ele>23.39999961853</ele>
        <time>2015-08-10T18:51:26.000Z</time>
      </trkpt>
      <trkpt lat="48.83183" lon="2.27107">
        <ele>23.200000762939</ele>
        <time>2015-08-10T18:51:30.000Z</time>
      </trkpt>
      <trkpt lat="48.83181" lon="2.27089">
        <ele>22.799999237061</ele>
        <time>2015-08-10T18:51:32.000Z</time>
      </trkpt>
      <trkpt lat="48.83181" lon="2.27053">
        <ele>22.39999961853</ele>
        <time>2015-08-10T18:51:36.000Z</time>
      </trkpt>
      <trkpt lat="48.83181" lon="2.27037">
        <ele>23.200000762939</ele>
        <time>2015-08-10T18:51:38.000Z</time>
      </trkpt>
      <trkpt lat="48.83176" lon="2.27013">
        <ele>24</ele>
        <time>2015-08-10T18:51:41.000Z</time>
      </trkpt>
      <trkpt lat="48.83166" lon="2.26986">
        <ele>24.60000038147</ele>
        <time>2015-08-10T18:51:45.000Z</time>
      </trkpt>
      <trkpt lat="48.83149" lon="2.26964">
        <ele>25.39999961853</ele>
        <time>2015-08-10T18:51:49.000Z</time>
      </trkpt>
      <trkpt lat="48.8314" lon="2.26954">
        <ele>25.799999237061</ele>
        <time>2015-08-10T18:51:51.000Z</time>
      </trkpt>
      <trkpt lat="48.83129" lon="2.26925">
        <ele>26.200000762939</ele>
        <time>2015-08-10T18:51:55.000Z</time>
      </trkpt>
      <trkpt lat="48.83126" lon="2.26918">
        <ele>26.200000762939</ele>
        <time>2015-08-10T18:51:56.000Z</time>
      </trkpt>
      <trkpt lat="48.83121" lon="2.26905">
        <ele>26.799999237061</ele>
        <time>2015-08-10T18:51:58.000Z</time>
      </trkpt>
      <trkpt lat="48.83105" lon="2.26887">
        <ele>26.200000762939</ele>
        <time>2015-08-10T18:52:02.000Z</time>
      </trkpt>
      <trkpt lat="48.83105" lon="2.26862">
        <ele>25.60000038147</ele>
        <time>2015-08-10T18:52:06.000Z</time>
      </trkpt>
      <trkpt lat="48.83121" lon="2.26848">
        <ele>24.39999961853</ele>
        <time>2015-08-10T18:52:10.000Z</time>
      </trkpt>
      <trkpt lat="48.83134" lon="2.26825">
        <ele>23.39999961853</ele>
        <time>2015-08-10T18:52:14.000Z</time>
      </trkpt>
      <trkpt lat="48.83131" lon="2.26795">
        <ele>22.39999961853</ele>
        <time>2015-08-10T18:52:18.000Z</time>
      </trkpt>
      <trkpt lat="48.83119" lon="2.26777">
        <ele>23.60000038147</ele>
        <time>2015-08-10T18:52:21.000Z</time>
      </trkpt>
      <trkpt lat="48.83115" lon="2.26772">
        <ele>23.799999237061</ele>
        <time>2015-08-10T18:52:22.000Z</time>
      </trkpt>
      <trkpt lat="48.83094" lon="2.26757">
        <ele>23.799999237061</ele>
        <time>2015-08-10T18:52:26.000Z</time>
      </trkpt>
      <trkpt lat="48.83088" lon="2.26756">
        <ele>23.799999237061</ele>
        <time>2015-08-10T18:52:27.000Z</time>
      </trkpt>
      <trkpt lat="48.83071" lon="2.26757">
        <ele>24</ele>
        <time>2015-08-10T18:52:30.000Z</time>
      </trkpt>
      <trkpt lat="48.83051" lon="2.26766">
        <ele>24</ele>
        <time>2015-08-10T18:52:34.000Z</time>
      </trkpt>
      <trkpt lat="48.83031" lon="2.26777">
        <ele>22.200000762939</ele>
        <time>2015-08-10T18:52:38.000Z</time>
      </trkpt>
      <trkpt lat="48.8302" lon="2.26779">
        <ele>21.60000038147</ele>
        <time>2015-08-10T18:52:40.000Z</time>
      </trkpt>
      <trkpt lat="48.82998" lon="2.26782">
        <ele>20.39999961853</ele>
        <time>2015-08-10T18:52:44.000Z</time>
      </trkpt>
      <trkpt lat="48.82976" lon="2.26784">
        <ele>20</ele>
        <time>2015-08-10T18:52:48.000Z</time>
      </trkpt>
      <trkpt lat="48.82953" lon="2.26786">
        <ele>18.60000038147</ele>
        <time>2015-08-10T18:52:52.000Z</time>
      </trkpt>
      <trkpt lat="48.82946" lon="2.26786">
        <ele>18.200000762939</ele>
        <time>2015-08-10T18:52:53.000Z</time>
      </trkpt>
      <trkpt lat="48.82929" lon="2.26794">
        <ele>17.39999961853</ele>
        <time>2015-08-10T18:52:56.000Z</time>
      </trkpt>
      <trkpt lat="48.8292" lon="2.26817">
        <ele>16.799999237061</ele>
        <time>2015-08-10T18:52:59.000Z</time>
      </trkpt>
      <trkpt lat="48.82918" lon="2.26846">
        <ele>15.800000190735</ele>
        <time>2015-08-10T18:53:03.000Z</time>
      </trkpt>
      <trkpt lat="48.82908" lon="2.26875">
        <ele>14.60000038147</ele>
        <time>2015-08-10T18:53:08.000Z</time>
      </trkpt>
      <trkpt lat="48.82901" lon="2.26883">
        <ele>14</ele>
        <time>2015-08-10T18:53:10.000Z</time>
      </trkpt>
      <trkpt lat="48.82894" lon="2.26893">
        <ele>14</ele>
        <time>2015-08-10T18:53:12.000Z</time>
      </trkpt>
      <trkpt lat="48.82884" lon="2.26917">
        <ele>14.800000190735</ele>
        <time>2015-08-10T18:53:16.000Z</time>
      </trkpt>
      <trkpt lat="48.82885" lon="2.26945">
        <ele>14.199999809265</ele>
        <time>2015-08-10T18:53:20.000Z</time>
      </trkpt>
      <trkpt lat="48.82898" lon="2.26966">
        <ele>13.800000190735</ele>
        <time>2015-08-10T18:53:24.000Z</time>
      </trkpt>
      <trkpt lat="48.82914" lon="2.26989">
        <ele>12.39999961853</ele>
        <time>2015-08-10T18:53:28.000Z</time>
      </trkpt>
      <trkpt lat="48.82929" lon="2.27014">
        <ele>11.39999961853</ele>
        <time>2015-08-10T18:53:32.000Z</time>
      </trkpt>
      <trkpt lat="48.82939" lon="2.27037">
        <ele>11</ele>
        <time>2015-08-10T18:53:35.000Z</time>
      </trkpt>
      <trkpt lat="48.82946" lon="2.27063">
        <ele>10.60000038147</ele>
        <time>2015-08-10T18:53:38.000Z</time>
      </trkpt>
      <trkpt lat="48.82951" lon="2.27091">
        <ele>10.60000038147</ele>
        <time>2015-08-10T18:53:41.000Z</time>
      </trkpt>
      <trkpt lat="48.82954" lon="2.2712">
        <ele>10.39999961853</ele>
        <time>2015-08-10T18:53:44.000Z</time>
      </trkpt>
      <trkpt lat="48.82958" lon="2.27148">
        <ele>10</ele>
        <time>2015-08-10T18:53:47.000Z</time>
      </trkpt>
      <trkpt lat="48.82964" lon="2.27175">
        <ele>11.800000190735</ele>
        <time>2015-08-10T18:53:50.000Z</time>
      </trkpt>
      <trkpt lat="48.8297" lon="2.27206">
        <ele>12.39999961853</ele>
        <time>2015-08-10T18:53:54.000Z</time>
      </trkpt>
      <trkpt lat="48.82977" lon="2.2724">
        <ele>13</ele>
        <time>2015-08-10T18:53:58.000Z</time>
      </trkpt>
      <trkpt lat="48.82985" lon="2.27271">
        <ele>12.39999961853</ele>
        <time>2015-08-10T18:54:02.000Z</time>
      </trkpt>
      <trkpt lat="48.82993" lon="2.27302">
        <ele>12.199999809265</ele>
        <time>2015-08-10T18:54:06.000Z</time>
      </trkpt>
      <trkpt lat="48.83003" lon="2.2733">
        <ele>11</ele>
        <time>2015-08-10T18:54:11.000Z</time>
      </trkpt>
      <trkpt lat="48.83006" lon="2.27335">
        <ele>10.800000190735</ele>
        <time>2015-08-10T18:54:12.000Z</time>
      </trkpt>
      <trkpt lat="48.83017" lon="2.2736">
        <ele>9.3999996185303</ele>
        <time>2015-08-10T18:54:18.000Z</time>
      </trkpt>
      <trkpt lat="48.83024" lon="2.27367">
        <ele>10.199999809265</ele>
        <time>2015-08-10T18:54:21.000Z</time>
      </trkpt>
      <trkpt lat="48.83034" lon="2.27363">
        <ele>11</ele>
        <time>2015-08-10T18:54:25.000Z</time>
      </trkpt>
      <trkpt lat="48.8304" lon="2.27361">
        <ele>11.800000190735</ele>
        <time>2015-08-10T18:54:27.000Z</time>
      </trkpt>
      <trkpt lat="48.83046" lon="2.2736">
        <ele>12.199999809265</ele>
        <time>2015-08-10T18:54:29.000Z</time>
      </trkpt>
      <trkpt lat="48.83066" lon="2.27355">
        <ele>15</ele>
        <time>2015-08-10T18:54:34.000Z</time>
      </trkpt>
      <trkpt lat="48.83076" lon="2.27351">
        <ele>17</ele>
        <time>2015-08-10T18:54:37.000Z</time>
      </trkpt>
      <trkpt lat="48.83081" lon="2.27351">
        <ele>17</ele>
        <time>2015-08-10T18:54:39.000Z</time>
      </trkpt>
      <trkpt lat="48.83092" lon="2.27345">
        <ele>18.60000038147</ele>
        <time>2015-08-10T18:54:46.000Z</time>
      </trkpt>
      <trkpt lat="48.83095" lon="2.2734">
        <ele>19.200000762939</ele>
        <time>2015-08-10T18:54:48.000Z</time>
      </trkpt>
      <trkpt lat="48.83107" lon="2.27321">
        <ele>19</ele>
        <time>2015-08-10T18:54:55.000Z</time>
      </trkpt>
      <trkpt lat="48.83121" lon="2.27331">
        <ele>18.200000762939</ele>
        <time>2015-08-10T18:55:01.000Z</time>
      </trkpt>
      <trkpt lat="48.83125" lon="2.27329">
        <ele>18.39999961853</ele>
        <time>2015-08-10T18:55:02.000Z</time>
      </trkpt>
      <trkpt lat="48.83145" lon="2.27319">
        <ele>19.60000038147</ele>
        <time>2015-08-10T18:55:07.000Z</time>
      </trkpt>
      <trkpt lat="48.83163" lon="2.27308">
        <ele>20</ele>
        <time>2015-08-10T18:55:12.000Z</time>
      </trkpt>
      <trkpt lat="48.8318" lon="2.27299">
        <ele>20.799999237061</ele>
        <time>2015-08-10T18:55:17.000Z</time>
      </trkpt>
      <trkpt lat="48.832" lon="2.27289">
        <ele>20.799999237061</ele>
        <time>2015-08-10T18:55:23.000Z</time>
      </trkpt>
      <trkpt lat="48.83205" lon="2.2729">
        <ele>20.39999961853</ele>
        <time>2015-08-10T18:55:25.000Z</time>
      </trkpt>
      <trkpt lat="48.83208" lon="2.27302">
        <ele>20.799999237061</ele>
        <time>2015-08-10T18:55:29.000Z</time>
      </trkpt>
      <trkpt lat="48.83207" lon="2.27311">
        <ele>20</ele>
        <time>2015-08-10T18:55:34.000Z</time>
      </trkpt>
      <trkpt lat="48.83208" lon="2.27288">
        <ele>20.39999961853</ele>
        <time>2015-08-10T18:56:09.000Z</time>
      </trkpt>
      <trkpt lat="48.83213" lon="2.27259">
        <ele>20.39999961853</ele>
        <time>2015-08-10T18:56:15.000Z</time>
      </trkpt>
      <trkpt lat="48.83217" lon="2.27229">
        <ele>19.799999237061</ele>
        <time>2015-08-10T18:56:21.000Z</time>
      </trkpt>
      <trkpt lat="48.83215" lon="2.27196">
        <ele>19.39999961853</ele>
        <time>2015-08-10T18:56:27.000Z</time>
      </trkpt>
      <trkpt lat="48.8321" lon="2.27167">
        <ele>19.200000762939</ele>
        <time>2015-08-10T18:56:32.000Z</time>
      </trkpt>
      <trkpt lat="48.832" lon="2.27144">
        <ele>20</ele>
        <time>2015-08-10T18:56:36.000Z</time>
      </trkpt>
      <trkpt lat="48.83188" lon="2.27116">
        <ele>20.39999961853</ele>
        <time>2015-08-10T18:56:41.000Z</time>
      </trkpt>
      <trkpt lat="48.83183" lon="2.27087">
        <ele>20.200000762939</ele>
        <time>2015-08-10T18:56:46.000Z</time>
      </trkpt>
      <trkpt lat="48.83182" lon="2.27055">
        <ele>20.39999961853</ele>
        <time>2015-08-10T18:56:51.000Z</time>
      </trkpt>
      <trkpt lat="48.83185" lon="2.27029">
        <ele>22</ele>
        <time>2015-08-10T18:56:57.000Z</time>
      </trkpt>
      <trkpt lat="48.83202" lon="2.27013">
        <ele>24.39999961853</ele>
        <time>2015-08-10T18:57:06.000Z</time>
      </trkpt>
      <trkpt lat="48.83217" lon="2.26994">
        <ele>24.60000038147</ele>
        <time>2015-08-10T18:57:13.000Z</time>
      </trkpt>
      <trkpt lat="48.83232" lon="2.26973">
        <ele>23.39999961853</ele>
        <time>2015-08-10T18:57:19.000Z</time>
      </trkpt>
      <trkpt lat="48.83248" lon="2.26953">
        <ele>22.39999961853</ele>
        <time>2015-08-10T18:57:25.000Z</time>
      </trkpt>
      <trkpt lat="48.83262" lon="2.26935">
        <ele>20.799999237061</ele>
        <time>2015-08-10T18:57:36.000Z</time>
      </trkpt>
      <trkpt lat="48.83268" lon="2.26926">
        <ele>21.799999237061</ele>
        <time>2015-08-10T18:57:54.000Z</time>
      </trkpt>
      <trkpt lat="48.83262" lon="2.26904">
        <ele>22.200000762939</ele>
        <time>2015-08-10T18:58:30.000Z</time>
      </trkpt>
      <trkpt lat="48.83249" lon="2.26881">
        <ele>22</ele>
        <time>2015-08-10T18:58:35.000Z</time>
      </trkpt>
      <trkpt lat="48.83237" lon="2.2686">
        <ele>23.200000762939</ele>
        <time>2015-08-10T18:58:39.000Z</time>
      </trkpt>
      <trkpt lat="48.83223" lon="2.26836">
        <ele>23.799999237061</ele>
        <time>2015-08-10T18:58:43.000Z</time>
      </trkpt>
      <trkpt lat="48.8321" lon="2.26811">
        <ele>25</ele>
        <time>2015-08-10T18:58:47.000Z</time>
      </trkpt>
      <trkpt lat="48.83195" lon="2.26789">
        <ele>26.200000762939</ele>
        <time>2015-08-10T18:58:51.000Z</time>
      </trkpt>
      <trkpt lat="48.83182" lon="2.26767">
        <ele>27.39999961853</ele>
        <time>2015-08-10T18:58:55.000Z</time>
      </trkpt>
      <trkpt lat="48.83167" lon="2.26743">
        <ele>27.60000038147</ele>
        <time>2015-08-10T18:59:00.000Z</time>
      </trkpt>
      <trkpt lat="48.83165" lon="2.26739">
        <ele>27</ele>
        <time>2015-08-10T18:59:01.000Z</time>
      </trkpt>
      <trkpt lat="48.83157" lon="2.26728">
        <ele>27</ele>
        <time>2015-08-10T18:59:04.000Z</time>
      </trkpt>
      <trkpt lat="48.83151" lon="2.26721">
        <ele>27.200000762939</ele>
        <time>2015-08-10T18:59:06.000Z</time>
      </trkpt>
      <trkpt lat="48.83137" lon="2.26699">
        <ele>28</ele>
        <time>2015-08-10T18:59:11.000Z</time>
      </trkpt>
      <trkpt lat="48.8312" lon="2.26678">
        <ele>29.799999237061</ele>
        <time>2015-08-10T18:59:16.000Z</time>
      </trkpt>
      <trkpt lat="48.83116" lon="2.26674">
        <ele>30.200000762939</ele>
        <time>2015-08-10T18:59:17.000Z</time>
      </trkpt>
      <trkpt lat="48.83101" lon="2.26656">
        <ele>32.799999237061</ele>
        <time>2015-08-10T18:59:21.000Z</time>
      </trkpt>
      <trkpt lat="48.83086" lon="2.26633">
        <ele>33.799999237061</ele>
        <time>2015-08-10T18:59:25.000Z</time>
      </trkpt>
      <trkpt lat="48.83074" lon="2.2662">
        <ele>35.400001525879</ele>
        <time>2015-08-10T18:59:28.000Z</time>
      </trkpt>
      <trkpt lat="48.83062" lon="2.26605">
        <ele>36</ele>
        <time>2015-08-10T18:59:31.000Z</time>
      </trkpt>
      <trkpt lat="48.83044" lon="2.26583">
        <ele>36.599998474121</ele>
        <time>2015-08-10T18:59:35.000Z</time>
      </trkpt>
      <trkpt lat="48.83032" lon="2.26565">
        <ele>37.200000762939</ele>
        <time>2015-08-10T18:59:38.000Z</time>
      </trkpt>
      <trkpt lat="48.8302" lon="2.26543">
        <ele>44.599998474121</ele>
        <time>2015-08-10T18:59:42.000Z</time>
      </trkpt>
      <trkpt lat="48.83005" lon="2.26525">
        <ele>45</ele>
        <time>2015-08-10T18:59:45.000Z</time>
      </trkpt>
      <trkpt lat="48.83002" lon="2.26518">
        <ele>46</ele>
        <time>2015-08-10T18:59:46.000Z</time>
      </trkpt>
      <trkpt lat="48.82992" lon="2.26501">
        <ele>50.400001525879</ele>
        <time>2015-08-10T18:59:49.000Z</time>
      </trkpt>
      <trkpt lat="48.82973" lon="2.26485">
        <ele>55.799999237061</ele>
        <time>2015-08-10T18:59:54.000Z</time>
      </trkpt>
      <trkpt lat="48.82966" lon="2.26475">
        <ele>56.599998474121</ele>
        <time>2015-08-10T18:59:56.000Z</time>
      </trkpt>
      <trkpt lat="48.82953" lon="2.26456">
        <ele>57.599998474121</ele>
        <time>2015-08-10T19:00:00.000Z</time>
      </trkpt>
      <trkpt lat="48.82942" lon="2.26443">
        <ele>58.200000762939</ele>
        <time>2015-08-10T19:00:03.000Z</time>
      </trkpt>
      <trkpt lat="48.82926" lon="2.26432">
        <ele>58</ele>
        <time>2015-08-10T19:00:08.000Z</time>
      </trkpt>
      <trkpt lat="48.82917" lon="2.26419">
        <ele>58.799999237061</ele>
        <time>2015-08-10T19:00:13.000Z</time>
      </trkpt>
      <trkpt lat="48.82916" lon="2.26413">
        <ele>59.400001525879</ele>
        <time>2015-08-10T19:00:15.000Z</time>
      </trkpt>
      <trkpt lat="48.82916" lon="2.26408">
        <ele>60</ele>
        <time>2015-08-10T19:00:17.000Z</time>
      </trkpt>
      <trkpt lat="48.8291" lon="2.26378">
        <ele>61.400001525879</ele>
        <time>2015-08-10T19:00:23.000Z</time>
      </trkpt>
      <trkpt lat="48.82907" lon="2.26374">
        <ele>61.599998474121</ele>
        <time>2015-08-10T19:00:24.000Z</time>
      </trkpt>
      <trkpt lat="48.82903" lon="2.26368">
        <ele>60.599998474121</ele>
        <time>2015-08-10T19:00:25.000Z</time>
      </trkpt>
      <trkpt lat="48.82889" lon="2.26346">
        <ele>57.400001525879</ele>
        <time>2015-08-10T19:00:29.000Z</time>
      </trkpt>
      <trkpt lat="48.82877" lon="2.26328">
        <ele>55</ele>
        <time>2015-08-10T19:00:32.000Z</time>
      </trkpt>
      <trkpt lat="48.82863" lon="2.26303">
        <ele>53.799999237061</ele>
        <time>2015-08-10T19:00:36.000Z</time>
      </trkpt>
      <trkpt lat="48.82846" lon="2.26278">
        <ele>51.599998474121</ele>
        <time>2015-08-10T19:00:40.000Z</time>
      </trkpt>
      <trkpt lat="48.82831" lon="2.26254">
        <ele>51.799999237061</ele>
        <time>2015-08-10T19:00:44.000Z</time>
      </trkpt>
      <trkpt lat="48.82817" lon="2.26234">
        <ele>52.400001525879</ele>
        <time>2015-08-10T19:00:47.000Z</time>
      </trkpt>
      <trkpt lat="48.82802" lon="2.26211">
        <ele>51</ele>
        <time>2015-08-10T19:00:50.000Z</time>
      </trkpt>
      <trkpt lat="48.82786" lon="2.26188">
        <ele>48</ele>
        <time>2015-08-10T19:00:53.000Z</time>
      </trkpt>
      <trkpt lat="48.82768" lon="2.26165">
        <ele>43</ele>
        <time>2015-08-10T19:00:56.000Z</time>
      </trkpt>
      <trkpt lat="48.82757" lon="2.26141">
        <ele>40.400001525879</ele>
        <time>2015-08-10T19:00:59.000Z</time>
      </trkpt>
      <trkpt lat="48.82743" lon="2.26115">
        <ele>37.400001525879</ele>
        <time>2015-08-10T19:01:03.000Z</time>
      </trkpt>
      <trkpt lat="48.82739" lon="2.26109">
        <ele>36.799999237061</ele>
        <time>2015-08-10T19:01:04.000Z</time>
      </trkpt>
      <trkpt lat="48.82729" lon="2.26092">
        <ele>34.200000762939</ele>
        <time>2015-08-10T19:01:07.000Z</time>
      </trkpt>
      <trkpt lat="48.82722" lon="2.26075">
        <ele>31.60000038147</ele>
        <time>2015-08-10T19:01:11.000Z</time>
      </trkpt>
      <trkpt lat="48.82721" lon="2.26074">
        <ele>31</ele>
        <time>2015-08-10T19:01:12.000Z</time>
      </trkpt>
      <trkpt lat="48.82708" lon="2.26056">
        <ele>29.39999961853</ele>
        <time>2015-08-10T19:01:19.000Z</time>
      </trkpt>
      <trkpt lat="48.82703" lon="2.26047">
        <ele>29.200000762939</ele>
        <time>2015-08-10T19:01:21.000Z</time>
      </trkpt>
      <trkpt lat="48.82692" lon="2.26029">
        <ele>28.60000038147</ele>
        <time>2015-08-10T19:01:25.000Z</time>
      </trkpt>
      <trkpt lat="48.82677" lon="2.26009">
        <ele>28.60000038147</ele>
        <time>2015-08-10T19:01:29.000Z</time>
      </trkpt>
      <trkpt lat="48.82665" lon="2.2599">
        <ele>29.799999237061</ele>
        <time>2015-08-10T19:01:33.000Z</time>
      </trkpt>
      <trkpt lat="48.82657" lon="2.2597">
        <ele>29.200000762939</ele>
        <time>2015-08-10T19:01:38.000Z</time>
      </trkpt>
      <trkpt lat="48.82646" lon="2.25954">
        <ele>28.200000762939</ele>
        <time>2015-08-10T19:01:41.000Z</time>
      </trkpt>
      <trkpt lat="48.82632" lon="2.25933">
        <ele>29.200000762939</ele>
        <time>2015-08-10T19:01:45.000Z</time>
      </trkpt>
      <trkpt lat="48.82615" lon="2.25912">
        <ele>29.200000762939</ele>
        <time>2015-08-10T19:01:49.000Z</time>
      </trkpt>
      <trkpt lat="48.826" lon="2.25894">
        <ele>29</ele>
        <time>2015-08-10T19:01:52.000Z</time>
      </trkpt>
      <trkpt lat="48.82581" lon="2.25872">
        <ele>28.200000762939</ele>
        <time>2015-08-10T19:01:56.000Z</time>
      </trkpt>
      <trkpt lat="48.82565" lon="2.25859">
        <ele>28.799999237061</ele>
        <time>2015-08-10T19:01:59.000Z</time>
      </trkpt>
      <trkpt lat="48.82547" lon="2.2584">
        <ele>29.60000038147</ele>
        <time>2015-08-10T19:02:03.000Z</time>
      </trkpt>
      <trkpt lat="48.82532" lon="2.25819">
        <ele>34</ele>
        <time>2015-08-10T19:02:07.000Z</time>
      </trkpt>
      <trkpt lat="48.82517" lon="2.25802">
        <ele>35.799999237061</ele>
        <time>2015-08-10T19:02:10.000Z</time>
      </trkpt>
      <trkpt lat="48.82504" lon="2.25785">
        <ele>37.799999237061</ele>
        <time>2015-08-10T19:02:13.000Z</time>
      </trkpt>
      <trkpt lat="48.82486" lon="2.25764">
        <ele>41.799999237061</ele>
        <time>2015-08-10T19:02:17.000Z</time>
      </trkpt>
      <trkpt lat="48.82478" lon="2.25753">
        <ele>42.599998474121</ele>
        <time>2015-08-10T19:02:19.000Z</time>
      </trkpt>
      <trkpt lat="48.82464" lon="2.25732">
        <ele>42.400001525879</ele>
        <time>2015-08-10T19:02:22.000Z</time>
      </trkpt>
      <trkpt lat="48.82451" lon="2.25711">
        <ele>42.200000762939</ele>
        <time>2015-08-10T19:02:25.000Z</time>
      </trkpt>
      <trkpt lat="48.82439" lon="2.25689">
        <ele>42.400001525879</ele>
        <time>2015-08-10T19:02:28.000Z</time>
      </trkpt>
      <trkpt lat="48.82425" lon="2.25666">
        <ele>40.799999237061</ele>
        <time>2015-08-10T19:02:31.000Z</time>
      </trkpt>
      <trkpt lat="48.82413" lon="2.25645">
        <ele>40.599998474121</ele>
        <time>2015-08-10T19:02:34.000Z</time>
      </trkpt>
      <trkpt lat="48.82397" lon="2.2562">
        <ele>39.799999237061</ele>
        <time>2015-08-10T19:02:38.000Z</time>
      </trkpt>
      <trkpt lat="48.82381" lon="2.25594">
        <ele>39.400001525879</ele>
        <time>2015-08-10T19:02:42.000Z</time>
      </trkpt>
      <trkpt lat="48.82369" lon="2.25573">
        <ele>38.599998474121</ele>
        <time>2015-08-10T19:02:45.000Z</time>
      </trkpt>
      <trkpt lat="48.82355" lon="2.25544">
        <ele>38.200000762939</ele>
        <time>2015-08-10T19:02:49.000Z</time>
      </trkpt>
      <trkpt lat="48.82349" lon="2.25529">
        <ele>38.200000762939</ele>
        <time>2015-08-10T19:02:51.000Z</time>
      </trkpt>
      <trkpt lat="48.82336" lon="2.25499">
        <ele>37.599998474121</ele>
        <time>2015-08-10T19:02:55.000Z</time>
      </trkpt>
      <trkpt lat="48.82325" lon="2.25472">
        <ele>37.200000762939</ele>
        <time>2015-08-10T19:02:59.000Z</time>
      </trkpt>
      <trkpt lat="48.82314" lon="2.25444">
        <ele>37.200000762939</ele>
        <time>2015-08-10T19:03:03.000Z</time>
      </trkpt>
      <trkpt lat="48.82303" lon="2.25416">
        <ele>38</ele>
        <time>2015-08-10T19:03:07.000Z</time>
      </trkpt>
      <trkpt lat="48.82294" lon="2.2539">
        <ele>37.400001525879</ele>
        <time>2015-08-10T19:03:11.000Z</time>
      </trkpt>
      <trkpt lat="48.82284" lon="2.25362">
        <ele>38</ele>
        <time>2015-08-10T19:03:15.000Z</time>
      </trkpt>
      <trkpt lat="48.82274" lon="2.25333">
        <ele>39.200000762939</ele>
        <time>2015-08-10T19:03:19.000Z</time>
      </trkpt>
      <trkpt lat="48.82263" lon="2.25303">
        <ele>40</ele>
        <time>2015-08-10T19:03:23.000Z</time>
      </trkpt>
      <trkpt lat="48.82258" lon="2.25288">
        <ele>40.599998474121</ele>
        <time>2015-08-10T19:03:25.000Z</time>
      </trkpt>
      <trkpt lat="48.82249" lon="2.25263">
        <ele>41</ele>
        <time>2015-08-10T19:03:28.000Z</time>
      </trkpt>
      <trkpt lat="48.8224" lon="2.25238">
        <ele>42.599998474121</ele>
        <time>2015-08-10T19:03:31.000Z</time>
      </trkpt>
      <trkpt lat="48.82232" lon="2.2521">
        <ele>43.599998474121</ele>
        <time>2015-08-10T19:03:34.000Z</time>
      </trkpt>
      <trkpt lat="48.82224" lon="2.25183">
        <ele>44.200000762939</ele>
        <time>2015-08-10T19:03:37.000Z</time>
      </trkpt>
      <trkpt lat="48.82216" lon="2.25155">
        <ele>44.599998474121</ele>
        <time>2015-08-10T19:03:40.000Z</time>
      </trkpt>
      <trkpt lat="48.82208" lon="2.25129">
        <ele>45.599998474121</ele>
        <time>2015-08-10T19:03:43.000Z</time>
      </trkpt>
      <trkpt lat="48.82201" lon="2.25107">
        <ele>47.799999237061</ele>
        <time>2015-08-10T19:03:46.000Z</time>
      </trkpt>
      <trkpt lat="48.82192" lon="2.25078">
        <ele>49.400001525879</ele>
        <time>2015-08-10T19:03:50.000Z</time>
      </trkpt>
      <trkpt lat="48.82188" lon="2.25069">
        <ele>51.400001525879</ele>
        <time>2015-08-10T19:03:52.000Z</time>
      </trkpt>
      <trkpt lat="48.82181" lon="2.25049">
        <ele>51.799999237061</ele>
        <time>2015-08-10T19:03:56.000Z</time>
      </trkpt>
      <trkpt lat="48.82175" lon="2.25036">
        <ele>53.599998474121</ele>
        <time>2015-08-10T19:04:01.000Z</time>
      </trkpt>
      <trkpt lat="48.82173" lon="2.25022">
        <ele>52.200000762939</ele>
        <time>2015-08-10T19:04:03.000Z</time>
      </trkpt>
      <trkpt lat="48.8218" lon="2.25012">
        <ele>44</ele>
        <time>2015-08-10T19:04:10.000Z</time>
      </trkpt>
      <trkpt lat="48.82181" lon="2.25011">
        <ele>42.400001525879</ele>
        <time>2015-08-10T19:04:11.000Z</time>
      </trkpt>
      <trkpt lat="48.82171" lon="2.24999">
        <ele>30.799999237061</ele>
        <time>2015-08-10T19:05:02.000Z</time>
      </trkpt>
      <trkpt lat="48.82152" lon="2.24988">
        <ele>29.60000038147</ele>
        <time>2015-08-10T19:05:09.000Z</time>
      </trkpt>
      <trkpt lat="48.82131" lon="2.24993">
        <ele>28.799999237061</ele>
        <time>2015-08-10T19:05:15.000Z</time>
      </trkpt>
      <trkpt lat="48.82109" lon="2.24999">
        <ele>28.799999237061</ele>
        <time>2015-08-10T19:05:20.000Z</time>
      </trkpt>
      <trkpt lat="48.8209" lon="2.24993">
        <ele>28.60000038147</ele>
        <time>2015-08-10T19:05:24.000Z</time>
      </trkpt>
      <trkpt lat="48.82071" lon="2.24987">
        <ele>26</ele>
        <time>2015-08-10T19:05:28.000Z</time>
      </trkpt>
      <trkpt lat="48.8205" lon="2.24984">
        <ele>23.39999961853</ele>
        <time>2015-08-10T19:05:32.000Z</time>
      </trkpt>
      <trkpt lat="48.8203" lon="2.2498">
        <ele>21.39999961853</ele>
        <time>2015-08-10T19:05:36.000Z</time>
      </trkpt>
      <trkpt lat="48.8201" lon="2.24974">
        <ele>20</ele>
        <time>2015-08-10T19:05:40.000Z</time>
      </trkpt>
      <trkpt lat="48.81992" lon="2.24972">
        <ele>18.799999237061</ele>
        <time>2015-08-10T19:05:43.000Z</time>
      </trkpt>
      <trkpt lat="48.81969" lon="2.24971">
        <ele>17.200000762939</ele>
        <time>2015-08-10T19:05:47.000Z</time>
      </trkpt>
      <trkpt lat="48.81949" lon="2.2497">
        <ele>15.39999961853</ele>
        <time>2015-08-10T19:05:51.000Z</time>
      </trkpt>
      <trkpt lat="48.81931" lon="2.2497">
        <ele>13.60000038147</ele>
        <time>2015-08-10T19:05:55.000Z</time>
      </trkpt>
      <trkpt lat="48.81923" lon="2.24969">
        <ele>12.800000190735</ele>
        <time>2015-08-10T19:05:57.000Z</time>
      </trkpt>
      <trkpt lat="48.81907" lon="2.24967">
        <ele>12</ele>
        <time>2015-08-10T19:06:01.000Z</time>
      </trkpt>
      <trkpt lat="48.81887" lon="2.24964">
        <ele>11.60000038147</ele>
        <time>2015-08-10T19:06:05.000Z</time>
      </trkpt>
      <trkpt lat="48.81867" lon="2.24961">
        <ele>10.60000038147</ele>
        <time>2015-08-10T19:06:09.000Z</time>
      </trkpt>
      <trkpt lat="48.81848" lon="2.24957">
        <ele>10</ele>
        <time>2015-08-10T19:06:13.000Z</time>
      </trkpt>
      <trkpt lat="48.81843" lon="2.24955">
        <ele>10</ele>
        <time>2015-08-10T19:06:14.000Z</time>
      </trkpt>
      <trkpt lat="48.81822" lon="2.24951">
        <ele>10.199999809265</ele>
        <time>2015-08-10T19:06:18.000Z</time>
      </trkpt>
      <trkpt lat="48.81803" lon="2.24949">
        <ele>10.39999961853</ele>
        <time>2015-08-10T19:06:22.000Z</time>
      </trkpt>
      <trkpt lat="48.8179" lon="2.24946">
        <ele>14.199999809265</ele>
        <time>2015-08-10T19:06:26.000Z</time>
      </trkpt>
      <trkpt lat="48.81784" lon="2.24921">
        <ele>19.200000762939</ele>
        <time>2015-08-10T19:06:32.000Z</time>
      </trkpt>
      <trkpt lat="48.81786" lon="2.24909">
        <ele>25.200000762939</ele>
        <time>2015-08-10T19:06:35.000Z</time>
      </trkpt>
      <trkpt lat="48.81786" lon="2.24903">
        <ele>26.39999961853</ele>
        <time>2015-08-10T19:06:36.000Z</time>
      </trkpt>
      <trkpt lat="48.81764" lon="2.24892">
        <ele>31.799999237061</ele>
        <time>2015-08-10T19:06:41.000Z</time>
      </trkpt>
      <trkpt lat="48.81759" lon="2.24891">
        <ele>32.200000762939</ele>
        <time>2015-08-10T19:06:42.000Z</time>
      </trkpt>
      <trkpt lat="48.81745" lon="2.2488">
        <ele>30.200000762939</ele>
        <time>2015-08-10T19:06:46.000Z</time>
      </trkpt>
      <trkpt lat="48.81729" lon="2.24862">
        <ele>27.39999961853</ele>
        <time>2015-08-10T19:06:51.000Z</time>
      </trkpt>
      <trkpt lat="48.81714" lon="2.24846">
        <ele>27.60000038147</ele>
        <time>2015-08-10T19:06:55.000Z</time>
      </trkpt>
      <trkpt lat="48.81708" lon="2.24838">
        <ele>28.200000762939</ele>
        <time>2015-08-10T19:06:57.000Z</time>
      </trkpt>
      <trkpt lat="48.81693" lon="2.24816">
        <ele>28.39999961853</ele>
        <time>2015-08-10T19:07:01.000Z</time>
      </trkpt>
      <trkpt lat="48.81678" lon="2.24793">
        <ele>28.799999237061</ele>
        <time>2015-08-10T19:07:05.000Z</time>
      </trkpt>
      <trkpt lat="48.81674" lon="2.24787">
        <ele>28.799999237061</ele>
        <time>2015-08-10T19:07:06.000Z</time>
      </trkpt>
      <trkpt lat="48.81662" lon="2.24761">
        <ele>29.799999237061</ele>
        <time>2015-08-10T19:07:10.000Z</time>
      </trkpt>
      <trkpt lat="48.81649" lon="2.24741">
        <ele>33</ele>
        <time>2015-08-10T19:07:14.000Z</time>
      </trkpt>
      <trkpt lat="48.81644" lon="2.24735">
        <ele>34.400001525879</ele>
        <time>2015-08-10T19:07:15.000Z</time>
      </trkpt>
      <trkpt lat="48.81625" lon="2.2472">
        <ele>35.799999237061</ele>
        <time>2015-08-10T19:07:19.000Z</time>
      </trkpt>
      <trkpt lat="48.81612" lon="2.24711">
        <ele>37.599998474121</ele>
        <time>2015-08-10T19:07:22.000Z</time>
      </trkpt>
      <trkpt lat="48.81601" lon="2.24708">
        <ele>38.799999237061</ele>
        <time>2015-08-10T19:07:25.000Z</time>
      </trkpt>
      <trkpt lat="48.81582" lon="2.24708">
        <ele>40.400001525879</ele>
        <time>2015-08-10T19:07:30.000Z</time>
      </trkpt>
      <trkpt lat="48.81578" lon="2.24708">
        <ele>41</ele>
        <time>2015-08-10T19:07:31.000Z</time>
      </trkpt>
      <trkpt lat="48.81561" lon="2.24705">
        <ele>42.400001525879</ele>
        <time>2015-08-10T19:07:35.000Z</time>
      </trkpt>
      <trkpt lat="48.81552" lon="2.24703">
        <ele>42.599998474121</ele>
        <time>2015-08-10T19:07:37.000Z</time>
      </trkpt>
      <trkpt lat="48.81532" lon="2.24696">
        <ele>41.400001525879</ele>
        <time>2015-08-10T19:07:42.000Z</time>
      </trkpt>
      <trkpt lat="48.81511" lon="2.24688">
        <ele>39.799999237061</ele>
        <time>2015-08-10T19:07:47.000Z</time>
      </trkpt>
      <trkpt lat="48.8149" lon="2.24682">
        <ele>38.799999237061</ele>
        <time>2015-08-10T19:07:52.000Z</time>
      </trkpt>
      <trkpt lat="48.81472" lon="2.24679">
        <ele>38.200000762939</ele>
        <time>2015-08-10T19:07:56.000Z</time>
      </trkpt>
      <trkpt lat="48.81454" lon="2.24677">
        <ele>38.200000762939</ele>
        <time>2015-08-10T19:08:00.000Z</time>
      </trkpt>
      <trkpt lat="48.81436" lon="2.24674">
        <ele>38.599998474121</ele>
        <time>2015-08-10T19:08:04.000Z</time>
      </trkpt>
      <trkpt lat="48.81419" lon="2.2467">
        <ele>37.799999237061</ele>
        <time>2015-08-10T19:08:08.000Z</time>
      </trkpt>
      <trkpt lat="48.81403" lon="2.24662">
        <ele>38.400001525879</ele>
        <time>2015-08-10T19:08:12.000Z</time>
      </trkpt>
      <trkpt lat="48.81385" lon="2.24648">
        <ele>37.799999237061</ele>
        <time>2015-08-10T19:08:17.000Z</time>
      </trkpt>
      <trkpt lat="48.81379" lon="2.24645">
        <ele>37.599998474121</ele>
        <time>2015-08-10T19:08:19.000Z</time>
      </trkpt>
      <trkpt lat="48.81367" lon="2.2464">
        <ele>39</ele>
        <time>2015-08-10T19:08:22.000Z</time>
      </trkpt>
      <trkpt lat="48.81359" lon="2.24635">
        <ele>40</ele>
        <time>2015-08-10T19:08:24.000Z</time>
      </trkpt>
      <trkpt lat="48.81341" lon="2.24628">
        <ele>41</ele>
        <time>2015-08-10T19:08:28.000Z</time>
      </trkpt>
      <trkpt lat="48.8133" lon="2.24624">
        <ele>43.200000762939</ele>
        <time>2015-08-10T19:08:31.000Z</time>
      </trkpt>
      <trkpt lat="48.81327" lon="2.24623">
        <ele>43.799999237061</ele>
        <time>2015-08-10T19:08:32.000Z</time>
      </trkpt>
      <trkpt lat="48.81323" lon="2.24621">
        <ele>44.599998474121</ele>
        <time>2015-08-10T19:08:34.000Z</time>
      </trkpt>
      <trkpt lat="48.81317" lon="2.24622">
        <ele>46.799999237061</ele>
        <time>2015-08-10T19:08:37.000Z</time>
      </trkpt>
      <trkpt lat="48.81312" lon="2.24624">
        <ele>47.599998474121</ele>
        <time>2015-08-10T19:08:41.000Z</time>
      </trkpt>
      <trkpt lat="48.81312" lon="2.24623">
        <ele>47.599998474121</ele>
        <time>2015-08-10T19:08:42.000Z</time>
      </trkpt>
      <trkpt lat="48.81318" lon="2.24611">
        <ele>50.799999237061</ele>
        <time>2015-08-10T19:10:25.000Z</time>
      </trkpt>
      <trkpt lat="48.81321" lon="2.2461">
        <ele>51.200000762939</ele>
        <time>2015-08-10T19:10:28.000Z</time>
      </trkpt>
      <trkpt lat="48.81322" lon="2.24626">
        <ele>51.200000762939</ele>
        <time>2015-08-10T19:11:02.000Z</time>
      </trkpt>
      <trkpt lat="48.81308" lon="2.24629">
        <ele>51.599998474121</ele>
        <time>2015-08-10T19:11:59.000Z</time>
      </trkpt>
      <trkpt lat="48.81288" lon="2.24618">
        <ele>51</ele>
        <time>2015-08-10T19:12:07.000Z</time>
      </trkpt>
      <trkpt lat="48.81271" lon="2.24602">
        <ele>51</ele>
        <time>2015-08-10T19:12:12.000Z</time>
      </trkpt>
      <trkpt lat="48.81252" lon="2.24585">
        <ele>51.599998474121</ele>
        <time>2015-08-10T19:12:17.000Z</time>
      </trkpt>
      <trkpt lat="48.81232" lon="2.24571">
        <ele>52.400001525879</ele>
        <time>2015-08-10T19:12:22.000Z</time>
      </trkpt>
      <trkpt lat="48.81216" lon="2.24561">
        <ele>53.200000762939</ele>
        <time>2015-08-10T19:12:26.000Z</time>
      </trkpt>
      <trkpt lat="48.81196" lon="2.24547">
        <ele>54.400001525879</ele>
        <time>2015-08-10T19:12:31.000Z</time>
      </trkpt>
      <trkpt lat="48.81178" lon="2.24532">
        <ele>55</ele>
        <time>2015-08-10T19:12:36.000Z</time>
      </trkpt>
      <trkpt lat="48.81168" lon="2.24519">
        <ele>54.599998474121</ele>
        <time>2015-08-10T19:12:39.000Z</time>
      </trkpt>
      <trkpt lat="48.8115" lon="2.24499">
        <ele>54.400001525879</ele>
        <time>2015-08-10T19:12:44.000Z</time>
      </trkpt>
      <trkpt lat="48.81134" lon="2.24484">
        <ele>55</ele>
        <time>2015-08-10T19:12:48.000Z</time>
      </trkpt>
      <trkpt lat="48.8112" lon="2.24467">
        <ele>56.200000762939</ele>
        <time>2015-08-10T19:12:52.000Z</time>
      </trkpt>
      <trkpt lat="48.81107" lon="2.24448">
        <ele>57.799999237061</ele>
        <time>2015-08-10T19:12:56.000Z</time>
      </trkpt>
      <trkpt lat="48.81091" lon="2.24427">
        <ele>60.200000762939</ele>
        <time>2015-08-10T19:13:01.000Z</time>
      </trkpt>
      <trkpt lat="48.81079" lon="2.24415">
        <ele>60</ele>
        <time>2015-08-10T19:13:04.000Z</time>
      </trkpt>
      <trkpt lat="48.81066" lon="2.24393">
        <ele>60.400001525879</ele>
        <time>2015-08-10T19:13:08.000Z</time>
      </trkpt>
      <trkpt lat="48.81049" lon="2.24372">
        <ele>60.799999237061</ele>
        <time>2015-08-10T19:13:13.000Z</time>
      </trkpt>
      <trkpt lat="48.81043" lon="2.24363">
        <ele>60.799999237061</ele>
        <time>2015-08-10T19:13:15.000Z</time>
      </trkpt>
      <trkpt lat="48.8103" lon="2.24344">
        <ele>59.200000762939</ele>
        <time>2015-08-10T19:13:19.000Z</time>
      </trkpt>
      <trkpt lat="48.81016" lon="2.24325">
        <ele>59.599998474121</ele>
        <time>2015-08-10T19:13:23.000Z</time>
      </trkpt>
      <trkpt lat="48.81" lon="2.24305">
        <ele>60.599998474121</ele>
        <time>2015-08-10T19:13:27.000Z</time>
      </trkpt>
      <trkpt lat="48.80989" lon="2.24289">
        <ele>60.799999237061</ele>
        <time>2015-08-10T19:13:30.000Z</time>
      </trkpt>
      <trkpt lat="48.80973" lon="2.2427">
        <ele>60.599998474121</ele>
        <time>2015-08-10T19:13:34.000Z</time>
      </trkpt>
      <trkpt lat="48.80957" lon="2.24249">
        <ele>61</ele>
        <time>2015-08-10T19:13:38.000Z</time>
      </trkpt>
      <trkpt lat="48.80952" lon="2.24244">
        <ele>61</ele>
        <time>2015-08-10T19:13:39.000Z</time>
      </trkpt>
      <trkpt lat="48.80937" lon="2.24227">
        <ele>62</ele>
        <time>2015-08-10T19:13:43.000Z</time>
      </trkpt>
      <trkpt lat="48.80921" lon="2.2421">
        <ele>61.599998474121</ele>
        <time>2015-08-10T19:13:47.000Z</time>
      </trkpt>
      <trkpt lat="48.80908" lon="2.24196">
        <ele>60.799999237061</ele>
        <time>2015-08-10T19:13:50.000Z</time>
      </trkpt>
      <trkpt lat="48.80891" lon="2.2418">
        <ele>60.200000762939</ele>
        <time>2015-08-10T19:13:54.000Z</time>
      </trkpt>
      <trkpt lat="48.80886" lon="2.24176">
        <ele>60.200000762939</ele>
        <time>2015-08-10T19:13:55.000Z</time>
      </trkpt>
      <trkpt lat="48.80874" lon="2.24168">
        <ele>60</ele>
        <time>2015-08-10T19:13:58.000Z</time>
      </trkpt>
      <trkpt lat="48.80858" lon="2.24152">
        <ele>61</ele>
        <time>2015-08-10T19:14:02.000Z</time>
      </trkpt>
      <trkpt lat="48.80843" lon="2.24138">
        <ele>61.400001525879</ele>
        <time>2015-08-10T19:14:06.000Z</time>
      </trkpt>
      <trkpt lat="48.80829" lon="2.24127">
        <ele>62.200000762939</ele>
        <time>2015-08-10T19:14:10.000Z</time>
      </trkpt>
      <trkpt lat="48.80811" lon="2.24121">
        <ele>61.599998474121</ele>
        <time>2015-08-10T19:14:18.000Z</time>
      </trkpt>
      <trkpt lat="48.80808" lon="2.24128">
        <ele>62.599998474121</ele>
        <time>2015-08-10T19:14:21.000Z</time>
      </trkpt>
      <trkpt lat="48.80807" lon="2.24131">
        <ele>62.799999237061</ele>
        <time>2015-08-10T19:14:22.000Z</time>
      </trkpt>
      <trkpt lat="48.80796" lon="2.24137">
        <ele>64.599998474121</ele>
        <time>2015-08-10T19:14:30.000Z</time>
      </trkpt>
      <trkpt lat="48.80798" lon="2.24133">
        <ele>65.800003051758</ele>
        <time>2015-08-10T19:16:22.000Z</time>
      </trkpt>
      <trkpt lat="48.80789" lon="2.24151">
        <ele>67</ele>
        <time>2015-08-10T19:17:17.000Z</time>
      </trkpt>
      <trkpt lat="48.80783" lon="2.24173">
        <ele>68.199996948242</ele>
        <time>2015-08-10T19:17:26.000Z</time>
      </trkpt>
      <trkpt lat="48.80769" lon="2.2416">
        <ele>69.400001525879</ele>
        <time>2015-08-10T19:17:42.000Z</time>
      </trkpt>
      <trkpt lat="48.80751" lon="2.24149">
        <ele>69.199996948242</ele>
        <time>2015-08-10T19:17:47.000Z</time>
      </trkpt>
      <trkpt lat="48.80733" lon="2.24139">
        <ele>68.599998474121</ele>
        <time>2015-08-10T19:17:51.000Z</time>
      </trkpt>
      <trkpt lat="48.80711" lon="2.24131">
        <ele>68</ele>
        <time>2015-08-10T19:17:55.000Z</time>
      </trkpt>
      <trkpt lat="48.8069" lon="2.24119">
        <ele>68</ele>
        <time>2015-08-10T19:17:59.000Z</time>
      </trkpt>
      <trkpt lat="48.80685" lon="2.24116">
        <ele>68</ele>
        <time>2015-08-10T19:18:00.000Z</time>
      </trkpt>
      <trkpt lat="48.80663" lon="2.24112">
        <ele>69</ele>
        <time>2015-08-10T19:18:04.000Z</time>
      </trkpt>
      <trkpt lat="48.80643" lon="2.24104">
        <ele>70.599998474121</ele>
        <time>2015-08-10T19:18:08.000Z</time>
      </trkpt>
      <trkpt lat="48.80628" lon="2.24097">
        <ele>72.400001525879</ele>
        <time>2015-08-10T19:18:11.000Z</time>
      </trkpt>
      <trkpt lat="48.80614" lon="2.24088">
        <ele>73.199996948242</ele>
        <time>2015-08-10T19:18:14.000Z</time>
      </trkpt>
      <trkpt lat="48.80606" lon="2.24085">
        <ele>73.400001525879</ele>
        <time>2015-08-10T19:18:17.000Z</time>
      </trkpt>
      <trkpt lat="48.80604" lon="2.24084">
        <ele>73.400001525879</ele>
        <time>2015-08-10T19:18:19.000Z</time>
      </trkpt>
      <trkpt lat="48.80617" lon="2.2409">
        <ele>74</ele>
        <time>2015-08-10T19:18:29.000Z</time>
      </trkpt>
      <trkpt lat="48.8062" lon="2.24115">
        <ele>77.800003051758</ele>
        <time>2015-08-10T19:18:54.000Z</time>
      </trkpt>
      <trkpt lat="48.80627" lon="2.24138">
        <ele>79</ele>
        <time>2015-08-10T19:19:05.000Z</time>
      </trkpt>
      <trkpt lat="48.80628" lon="2.24143">
        <ele>79.599998474121</ele>
        <time>2015-08-10T19:19:09.000Z</time>
      </trkpt>
      <trkpt lat="48.80626" lon="2.24171">
        <ele>81.400001525879</ele>
        <time>2015-08-10T19:19:17.000Z</time>
      </trkpt>
      <trkpt lat="48.80627" lon="2.24185">
        <ele>81.199996948242</ele>
        <time>2015-08-10T19:19:22.000Z</time>
      </trkpt>
      <trkpt lat="48.80632" lon="2.24207">
        <ele>80.400001525879</ele>
        <time>2015-08-10T19:19:30.000Z</time>
      </trkpt>
      <trkpt lat="48.80626" lon="2.24236">
        <ele>80.400001525879</ele>
        <time>2015-08-10T19:19:36.000Z</time>
      </trkpt>
      <trkpt lat="48.80619" lon="2.24266">
        <ele>80.400001525879</ele>
        <time>2015-08-10T19:19:43.000Z</time>
      </trkpt>
      <trkpt lat="48.80615" lon="2.24277">
        <ele>81.199996948242</ele>
        <time>2015-08-10T19:19:49.000Z</time>
      </trkpt>
      <trkpt lat="48.80624" lon="2.24286">
        <ele>83.800003051758</ele>
        <time>2015-08-10T19:20:00.000Z</time>
      </trkpt>
      <trkpt lat="48.80616" lon="2.24311">
        <ele>85.599998474121</ele>
        <time>2015-08-10T19:20:07.000Z</time>
      </trkpt>
      <trkpt lat="48.80613" lon="2.24324">
        <ele>86.199996948242</ele>
        <time>2015-08-10T19:20:12.000Z</time>
      </trkpt>
      <trkpt lat="48.80625" lon="2.24345">
        <ele>87.199996948242</ele>
        <time>2015-08-10T19:20:18.000Z</time>
      </trkpt>
      <trkpt lat="48.80634" lon="2.24362">
        <ele>88.599998474121</ele>
        <time>2015-08-10T19:20:23.000Z</time>
      </trkpt>
      <trkpt lat="48.80641" lon="2.24385">
        <ele>87.199996948242</ele>
        <time>2015-08-10T19:20:41.000Z</time>
      </trkpt>
      <trkpt lat="48.80652" lon="2.24406">
        <ele>88.400001525879</ele>
        <time>2015-08-10T19:20:48.000Z</time>
      </trkpt>
      <trkpt lat="48.80653" lon="2.24415">
        <ele>89.400001525879</ele>
        <time>2015-08-10T19:20:53.000Z</time>
      </trkpt>
      <trkpt lat="48.80647" lon="2.24438">
        <ele>91.199996948242</ele>
        <time>2015-08-10T19:21:06.000Z</time>
      </trkpt>
      <trkpt lat="48.80644" lon="2.24447">
        <ele>92.599998474121</ele>
        <time>2015-08-10T19:21:11.000Z</time>
      </trkpt>
      <trkpt lat="48.80634" lon="2.24428">
        <ele>106.40000152588</ele>
        <time>2015-08-10T19:21:56.000Z</time>
      </trkpt>
      <trkpt lat="48.80629" lon="2.24434">
        <ele>107.19999694824</ele>
        <time>2015-08-10T19:21:59.000Z</time>
      </trkpt>
      <trkpt lat="48.80618" lon="2.24454">
        <ele>108.40000152588</ele>
        <time>2015-08-10T19:22:03.000Z</time>
      </trkpt>
      <trkpt lat="48.80602" lon="2.24479">
        <ele>110.40000152588</ele>
        <time>2015-08-10T19:22:08.000Z</time>
      </trkpt>
      <trkpt lat="48.80596" lon="2.24489">
        <ele>110.80000305176</ele>
        <time>2015-08-10T19:22:10.000Z</time>
      </trkpt>
      <trkpt lat="48.80588" lon="2.24499">
        <ele>111.80000305176</ele>
        <time>2015-08-10T19:22:13.000Z</time>
      </trkpt>
      <trkpt lat="48.80579" lon="2.24509">
        <ele>112.19999694824</ele>
        <time>2015-08-10T19:22:18.000Z</time>
      </trkpt>
      <trkpt lat="48.80578" lon="2.2451">
        <ele>112.40000152588</ele>
        <time>2015-08-10T19:22:19.000Z</time>
      </trkpt>
      <trkpt lat="48.80569" lon="2.24507">
        <ele>109.19999694824</ele>
        <time>2015-08-10T19:23:58.000Z</time>
      </trkpt>
      <trkpt lat="48.80569" lon="2.24506">
        <ele>110.59999847412</ele>
        <time>2015-08-10T19:26:09.000Z</time>
      </trkpt>
      <trkpt lat="48.80575" lon="2.24515">
        <ele>112.40000152588</ele>
        <time>2015-08-10T19:27:27.000Z</time>
      </trkpt>
      <trkpt lat="48.80577" lon="2.2452">
        <ele>112.59999847412</ele>
        <time>2015-08-10T19:27:30.000Z</time>
      </trkpt>
      <trkpt lat="48.80581" lon="2.24538">
        <ele>113</ele>
        <time>2015-08-10T19:27:38.000Z</time>
      </trkpt>
      <trkpt lat="48.80587" lon="2.24546">
        <ele>113.80000305176</ele>
        <time>2015-08-10T19:27:44.000Z</time>
      </trkpt>
      <trkpt lat="48.80595" lon="2.24573">
        <ele>115</ele>
        <time>2015-08-10T19:27:53.000Z</time>
      </trkpt>
      <trkpt lat="48.80603" lon="2.24595">
        <ele>114.40000152588</ele>
        <time>2015-08-10T19:28:01.000Z</time>
      </trkpt>
      <trkpt lat="48.80607" lon="2.24603">
        <ele>113.19999694824</ele>
        <time>2015-08-10T19:28:26.000Z</time>
      </trkpt>
      <trkpt lat="48.80623" lon="2.24614">
        <ele>112.80000305176</ele>
        <time>2015-08-10T19:28:34.000Z</time>
      </trkpt>
      <trkpt lat="48.80637" lon="2.24632">
        <ele>111.59999847412</ele>
        <time>2015-08-10T19:28:41.000Z</time>
      </trkpt>
      <trkpt lat="48.80652" lon="2.24651">
        <ele>110.59999847412</ele>
        <time>2015-08-10T19:28:48.000Z</time>
      </trkpt>
      <trkpt lat="48.80668" lon="2.24669">
        <ele>107.59999847412</ele>
        <time>2015-08-10T19:28:55.000Z</time>
      </trkpt>
      <trkpt lat="48.80683" lon="2.24688">
        <ele>107</ele>
        <time>2015-08-10T19:29:00.000Z</time>
      </trkpt>
      <trkpt lat="48.80697" lon="2.24714">
        <ele>104.59999847412</ele>
        <time>2015-08-10T19:29:05.000Z</time>
      </trkpt>
      <trkpt lat="48.80708" lon="2.2474">
        <ele>103</ele>
        <time>2015-08-10T19:29:09.000Z</time>
      </trkpt>
      <trkpt lat="48.8072" lon="2.2477">
        <ele>103.19999694824</ele>
        <time>2015-08-10T19:29:13.000Z</time>
      </trkpt>
      <trkpt lat="48.8073" lon="2.24802">
        <ele>104.40000152588</ele>
        <time>2015-08-10T19:29:17.000Z</time>
      </trkpt>
      <trkpt lat="48.8074" lon="2.24825">
        <ele>107.19999694824</ele>
        <time>2015-08-10T19:29:20.000Z</time>
      </trkpt>
      <trkpt lat="48.80743" lon="2.24832">
        <ele>108.59999847412</ele>
        <time>2015-08-10T19:29:21.000Z</time>
      </trkpt>
      <trkpt lat="48.80748" lon="2.2486">
        <ele>109</ele>
        <time>2015-08-10T19:29:25.000Z</time>
      </trkpt>
      <trkpt lat="48.80753" lon="2.24888">
        <ele>107.80000305176</ele>
        <time>2015-08-10T19:29:30.000Z</time>
      </trkpt>
      <trkpt lat="48.80756" lon="2.24916">
        <ele>107</ele>
        <time>2015-08-10T19:29:35.000Z</time>
      </trkpt>
      <trkpt lat="48.8076" lon="2.24941">
        <ele>109.59999847412</ele>
        <time>2015-08-10T19:29:40.000Z</time>
      </trkpt>
      <trkpt lat="48.80765" lon="2.24968">
        <ele>110.19999694824</ele>
        <time>2015-08-10T19:29:45.000Z</time>
      </trkpt>
      <trkpt lat="48.80766" lon="2.24974">
        <ele>110.40000152588</ele>
        <time>2015-08-10T19:29:46.000Z</time>
      </trkpt>
      <trkpt lat="48.80771" lon="2.25003">
        <ele>111.40000152588</ele>
        <time>2015-08-10T19:29:52.000Z</time>
      </trkpt>
      <trkpt lat="48.80773" lon="2.25017">
        <ele>112.19999694824</ele>
        <time>2015-08-10T19:29:56.000Z</time>
      </trkpt>
      <trkpt lat="48.80774" lon="2.2502">
        <ele>112.40000152588</ele>
        <time>2015-08-10T19:29:57.000Z</time>
      </trkpt>
      <trkpt lat="48.80781" lon="2.25041">
        <ele>110.40000152588</ele>
        <time>2015-08-10T19:30:39.000Z</time>
      </trkpt>
      <trkpt lat="48.80798" lon="2.25057">
        <ele>106.80000305176</ele>
        <time>2015-08-10T19:31:07.000Z</time>
      </trkpt>
      <trkpt lat="48.80812" lon="2.25079">
        <ele>106.59999847412</ele>
        <time>2015-08-10T19:31:12.000Z</time>
      </trkpt>
      <trkpt lat="48.80825" lon="2.25099">
        <ele>106.40000152588</ele>
        <time>2015-08-10T19:31:16.000Z</time>
      </trkpt>
      <trkpt lat="48.80838" lon="2.25118">
        <ele>106.80000305176</ele>
        <time>2015-08-10T19:31:20.000Z</time>
      </trkpt>
      <trkpt lat="48.80851" lon="2.25139">
        <ele>105.80000305176</ele>
        <time>2015-08-10T19:31:24.000Z</time>
      </trkpt>
      <trkpt lat="48.80864" lon="2.25159">
        <ele>105.19999694824</ele>
        <time>2015-08-10T19:31:28.000Z</time>
      </trkpt>
      <trkpt lat="48.80879" lon="2.25177">
        <ele>104.80000305176</ele>
        <time>2015-08-10T19:31:32.000Z</time>
      </trkpt>
      <trkpt lat="48.80894" lon="2.25192">
        <ele>102.80000305176</ele>
        <time>2015-08-10T19:31:36.000Z</time>
      </trkpt>
      <trkpt lat="48.80898" lon="2.25196">
        <ele>102.80000305176</ele>
        <time>2015-08-10T19:31:37.000Z</time>
      </trkpt>
      <trkpt lat="48.80913" lon="2.25213">
        <ele>100.40000152588</ele>
        <time>2015-08-10T19:31:41.000Z</time>
      </trkpt>
      <trkpt lat="48.80929" lon="2.2523">
        <ele>97.800003051758</ele>
        <time>2015-08-10T19:31:45.000Z</time>
      </trkpt>
      <trkpt lat="48.80946" lon="2.2525">
        <ele>95.599998474121</ele>
        <time>2015-08-10T19:31:50.000Z</time>
      </trkpt>
      <trkpt lat="48.80949" lon="2.25254">
        <ele>95.400001525879</ele>
        <time>2015-08-10T19:31:51.000Z</time>
      </trkpt>
      <trkpt lat="48.8096" lon="2.25277">
        <ele>94.800003051758</ele>
        <time>2015-08-10T19:31:55.000Z</time>
      </trkpt>
      <trkpt lat="48.80968" lon="2.25297">
        <ele>94.199996948242</ele>
        <time>2015-08-10T19:31:58.000Z</time>
      </trkpt>
      <trkpt lat="48.80974" lon="2.25311">
        <ele>94</ele>
        <time>2015-08-10T19:32:00.000Z</time>
      </trkpt>
      <trkpt lat="48.80981" lon="2.25344">
        <ele>92.599998474121</ele>
        <time>2015-08-10T19:32:04.000Z</time>
      </trkpt>
      <trkpt lat="48.80988" lon="2.25378">
        <ele>92</ele>
        <time>2015-08-10T19:32:08.000Z</time>
      </trkpt>
      <trkpt lat="48.80994" lon="2.25409">
        <ele>91.400001525879</ele>
        <time>2015-08-10T19:32:12.000Z</time>
      </trkpt>
      <trkpt lat="48.81001" lon="2.25442">
        <ele>90.400001525879</ele>
        <time>2015-08-10T19:32:16.000Z</time>
      </trkpt>
      <trkpt lat="48.81008" lon="2.25474">
        <ele>89.199996948242</ele>
        <time>2015-08-10T19:32:20.000Z</time>
      </trkpt>
      <trkpt lat="48.8101" lon="2.25482">
        <ele>88.800003051758</ele>
        <time>2015-08-10T19:32:21.000Z</time>
      </trkpt>
      <trkpt lat="48.81018" lon="2.25514">
        <ele>88.199996948242</ele>
        <time>2015-08-10T19:32:25.000Z</time>
      </trkpt>
      <trkpt lat="48.81027" lon="2.25546">
        <ele>87.599998474121</ele>
        <time>2015-08-10T19:32:29.000Z</time>
      </trkpt>
      <trkpt lat="48.81034" lon="2.25579">
        <ele>85.800003051758</ele>
        <time>2015-08-10T19:32:33.000Z</time>
      </trkpt>
      <trkpt lat="48.8104" lon="2.25605">
        <ele>84.599998474121</ele>
        <time>2015-08-10T19:32:36.000Z</time>
      </trkpt>
      <trkpt lat="48.81048" lon="2.25639">
        <ele>84.400001525879</ele>
        <time>2015-08-10T19:32:40.000Z</time>
      </trkpt>
      <trkpt lat="48.81054" lon="2.25665">
        <ele>84.199996948242</ele>
        <time>2015-08-10T19:32:43.000Z</time>
      </trkpt>
      <trkpt lat="48.81063" lon="2.25697">
        <ele>83.400001525879</ele>
        <time>2015-08-10T19:32:47.000Z</time>
      </trkpt>
      <trkpt lat="48.81073" lon="2.25724">
        <ele>83.599998474121</ele>
        <time>2015-08-10T19:32:51.000Z</time>
      </trkpt>
      <trkpt lat="48.81077" lon="2.25736">
        <ele>83.400001525879</ele>
        <time>2015-08-10T19:32:53.000Z</time>
      </trkpt>
      <trkpt lat="48.81087" lon="2.25763">
        <ele>84</ele>
        <time>2015-08-10T19:32:58.000Z</time>
      </trkpt>
      <trkpt lat="48.8109" lon="2.25778">
        <ele>83.400001525879</ele>
        <time>2015-08-10T19:33:01.000Z</time>
      </trkpt>
      <trkpt lat="48.811" lon="2.25805">
        <ele>84</ele>
        <time>2015-08-10T19:33:08.000Z</time>
      </trkpt>
      <trkpt lat="48.81101" lon="2.25811">
        <ele>84.800003051758</ele>
        <time>2015-08-10T19:33:10.000Z</time>
      </trkpt>
      <trkpt lat="48.811" lon="2.25814">
        <ele>85.400001525879</ele>
        <time>2015-08-10T19:33:12.000Z</time>
      </trkpt>
      <trkpt lat="48.81113" lon="2.25832">
        <ele>89.400001525879</ele>
        <time>2015-08-10T19:33:44.000Z</time>
      </trkpt>
      <trkpt lat="48.81121" lon="2.2586">
        <ele>88</ele>
        <time>2015-08-10T19:34:08.000Z</time>
      </trkpt>
      <trkpt lat="48.81129" lon="2.25889">
        <ele>86.800003051758</ele>
        <time>2015-08-10T19:34:13.000Z</time>
      </trkpt>
      <trkpt lat="48.81137" lon="2.25914">
        <ele>85.800003051758</ele>
        <time>2015-08-10T19:34:17.000Z</time>
      </trkpt>
      <trkpt lat="48.81146" lon="2.25939">
        <ele>85</ele>
        <time>2015-08-10T19:34:21.000Z</time>
      </trkpt>
      <trkpt lat="48.81153" lon="2.25964">
        <ele>84.599998474121</ele>
        <time>2015-08-10T19:34:25.000Z</time>
      </trkpt>
      <trkpt lat="48.81161" lon="2.2599">
        <ele>84.400001525879</ele>
        <time>2015-08-10T19:34:29.000Z</time>
      </trkpt>
      <trkpt lat="48.8117" lon="2.26021">
        <ele>83.400001525879</ele>
        <time>2015-08-10T19:34:34.000Z</time>
      </trkpt>
      <trkpt lat="48.81177" lon="2.26049">
        <ele>82.599998474121</ele>
        <time>2015-08-10T19:34:39.000Z</time>
      </trkpt>
      <trkpt lat="48.81186" lon="2.26078">
        <ele>81.800003051758</ele>
        <time>2015-08-10T19:34:44.000Z</time>
      </trkpt>
      <trkpt lat="48.81191" lon="2.26095">
        <ele>81.800003051758</ele>
        <time>2015-08-10T19:34:47.000Z</time>
      </trkpt>
      <trkpt lat="48.81198" lon="2.26117">
        <ele>81.400001525879</ele>
        <time>2015-08-10T19:34:51.000Z</time>
      </trkpt>
      <trkpt lat="48.81206" lon="2.26145">
        <ele>80.400001525879</ele>
        <time>2015-08-10T19:34:56.000Z</time>
      </trkpt>
      <trkpt lat="48.81216" lon="2.26174">
        <ele>78.400001525879</ele>
        <time>2015-08-10T19:35:01.000Z</time>
      </trkpt>
      <trkpt lat="48.81225" lon="2.26199">
        <ele>78</ele>
        <time>2015-08-10T19:35:05.000Z</time>
      </trkpt>
      <trkpt lat="48.81235" lon="2.26228">
        <ele>76.800003051758</ele>
        <time>2015-08-10T19:35:10.000Z</time>
      </trkpt>
      <trkpt lat="48.81236" lon="2.26234">
        <ele>76.400001525879</ele>
        <time>2015-08-10T19:35:11.000Z</time>
      </trkpt>
      <trkpt lat="48.81245" lon="2.26259">
        <ele>77</ele>
        <time>2015-08-10T19:35:15.000Z</time>
      </trkpt>
      <trkpt lat="48.81249" lon="2.26271">
        <ele>77.199996948242</ele>
        <time>2015-08-10T19:35:17.000Z</time>
      </trkpt>
      <trkpt lat="48.81258" lon="2.26297">
        <ele>77.400001525879</ele>
        <time>2015-08-10T19:35:21.000Z</time>
      </trkpt>
      <trkpt lat="48.81267" lon="2.26325">
        <ele>79.400001525879</ele>
        <time>2015-08-10T19:35:25.000Z</time>
      </trkpt>
      <trkpt lat="48.81274" lon="2.26345">
        <ele>79.800003051758</ele>
        <time>2015-08-10T19:35:28.000Z</time>
      </trkpt>
      <trkpt lat="48.81282" lon="2.26371">
        <ele>79.400001525879</ele>
        <time>2015-08-10T19:35:32.000Z</time>
      </trkpt>
      <trkpt lat="48.8129" lon="2.26396">
        <ele>78.599998474121</ele>
        <time>2015-08-10T19:35:36.000Z</time>
      </trkpt>
      <trkpt lat="48.81299" lon="2.26426">
        <ele>79.199996948242</ele>
        <time>2015-08-10T19:35:41.000Z</time>
      </trkpt>
      <trkpt lat="48.81306" lon="2.26452">
        <ele>78.599998474121</ele>
        <time>2015-08-10T19:35:45.000Z</time>
      </trkpt>
      <trkpt lat="48.81308" lon="2.26459">
        <ele>78.400001525879</ele>
        <time>2015-08-10T19:35:46.000Z</time>
      </trkpt>
      <trkpt lat="48.8131" lon="2.26488">
        <ele>77.400001525879</ele>
        <time>2015-08-10T19:35:50.000Z</time>
      </trkpt>
      <trkpt lat="48.81313" lon="2.26516">
        <ele>78</ele>
        <time>2015-08-10T19:35:54.000Z</time>
      </trkpt>
      <trkpt lat="48.81312" lon="2.26523">
        <ele>77.800003051758</ele>
        <time>2015-08-10T19:35:55.000Z</time>
      </trkpt>
      <trkpt lat="48.81317" lon="2.2655">
        <ele>78.800003051758</ele>
        <time>2015-08-10T19:35:59.000Z</time>
      </trkpt>
      <trkpt lat="48.81318" lon="2.26556">
        <ele>78.599998474121</ele>
        <time>2015-08-10T19:36:00.000Z</time>
      </trkpt>
      <trkpt lat="48.81321" lon="2.26584">
        <ele>79</ele>
        <time>2015-08-10T19:36:04.000Z</time>
      </trkpt>
      <trkpt lat="48.81323" lon="2.26613">
        <ele>77.800003051758</ele>
        <time>2015-08-10T19:36:08.000Z</time>
      </trkpt>
      <trkpt lat="48.81326" lon="2.26643">
        <ele>76.599998474121</ele>
        <time>2015-08-10T19:36:12.000Z</time>
      </trkpt>
      <trkpt lat="48.8133" lon="2.26674">
        <ele>76</ele>
        <time>2015-08-10T19:36:16.000Z</time>
      </trkpt>
      <trkpt lat="48.81335" lon="2.26702">
        <ele>76.199996948242</ele>
        <time>2015-08-10T19:36:20.000Z</time>
      </trkpt>
      <trkpt lat="48.81348" lon="2.26712">
        <ele>76.599998474121</ele>
        <time>2015-08-10T19:36:24.000Z</time>
      </trkpt>
      <trkpt lat="48.81351" lon="2.26713">
        <ele>76</ele>
        <time>2015-08-10T19:36:25.000Z</time>
      </trkpt>
      <trkpt lat="48.81371" lon="2.26719">
        <ele>73.400001525879</ele>
        <time>2015-08-10T19:36:31.000Z</time>
      </trkpt>
      <trkpt lat="48.81382" lon="2.26725">
        <ele>73.599998474121</ele>
        <time>2015-08-10T19:36:34.000Z</time>
      </trkpt>
      <trkpt lat="48.81394" lon="2.26751">
        <ele>71.599998474121</ele>
        <time>2015-08-10T19:36:40.000Z</time>
      </trkpt>
      <trkpt lat="48.81396" lon="2.26762">
        <ele>71.599998474121</ele>
        <time>2015-08-10T19:36:42.000Z</time>
      </trkpt>
      <trkpt lat="48.81397" lon="2.26774">
        <ele>71.199996948242</ele>
        <time>2015-08-10T19:36:44.000Z</time>
      </trkpt>
      <trkpt lat="48.814" lon="2.26801">
        <ele>70.599998474121</ele>
        <time>2015-08-10T19:36:48.000Z</time>
      </trkpt>
      <trkpt lat="48.81402" lon="2.26815">
        <ele>70.599998474121</ele>
        <time>2015-08-10T19:36:50.000Z</time>
      </trkpt>
      <trkpt lat="48.81405" lon="2.26844">
        <ele>69.599998474121</ele>
        <time>2015-08-10T19:36:54.000Z</time>
      </trkpt>
      <trkpt lat="48.81406" lon="2.26859">
        <ele>69</ele>
        <time>2015-08-10T19:36:56.000Z</time>
      </trkpt>
      <trkpt lat="48.81409" lon="2.26889">
        <ele>68.599998474121</ele>
        <time>2015-08-10T19:37:00.000Z</time>
      </trkpt>
      <trkpt lat="48.8141" lon="2.26916">
        <ele>67.800003051758</ele>
        <time>2015-08-10T19:37:04.000Z</time>
      </trkpt>
      <trkpt lat="48.81412" lon="2.2695">
        <ele>66.400001525879</ele>
        <time>2015-08-10T19:37:09.000Z</time>
      </trkpt>
      <trkpt lat="48.81413" lon="2.26977">
        <ele>65.599998474121</ele>
        <time>2015-08-10T19:37:13.000Z</time>
      </trkpt>
      <trkpt lat="48.81414" lon="2.26984">
        <ele>65.400001525879</ele>
        <time>2015-08-10T19:37:14.000Z</time>
      </trkpt>
      <trkpt lat="48.81418" lon="2.2701">
        <ele>66.800003051758</ele>
        <time>2015-08-10T19:37:18.000Z</time>
      </trkpt>
      <trkpt lat="48.8142" lon="2.27016">
        <ele>65.599998474121</ele>
        <time>2015-08-10T19:37:22.000Z</time>
      </trkpt>
      <trkpt lat="48.81421" lon="2.27044">
        <ele>65.800003051758</ele>
        <time>2015-08-10T19:37:29.000Z</time>
      </trkpt>
      <trkpt lat="48.81424" lon="2.2708">
        <ele>65</ele>
        <time>2015-08-10T19:37:33.000Z</time>
      </trkpt>
      <trkpt lat="48.81426" lon="2.2711">
        <ele>64.800003051758</ele>
        <time>2015-08-10T19:37:36.000Z</time>
      </trkpt>
      <trkpt lat="48.81429" lon="2.2714">
        <ele>64.400001525879</ele>
        <time>2015-08-10T19:37:39.000Z</time>
      </trkpt>
      <trkpt lat="48.81433" lon="2.2717">
        <ele>63.400001525879</ele>
        <time>2015-08-10T19:37:42.000Z</time>
      </trkpt>
      <trkpt lat="48.81436" lon="2.27203">
        <ele>62.599998474121</ele>
        <time>2015-08-10T19:37:46.000Z</time>
      </trkpt>
      <trkpt lat="48.81438" lon="2.27226">
        <ele>62</ele>
        <time>2015-08-10T19:37:50.000Z</time>
      </trkpt>
      <trkpt lat="48.81439" lon="2.2726">
        <ele>60.799999237061</ele>
        <time>2015-08-10T19:37:55.000Z</time>
      </trkpt>
      <trkpt lat="48.81439" lon="2.27274">
        <ele>60.400001525879</ele>
        <time>2015-08-10T19:37:57.000Z</time>
      </trkpt>
      <trkpt lat="48.8144" lon="2.27303">
        <ele>58.400001525879</ele>
        <time>2015-08-10T19:38:01.000Z</time>
      </trkpt>
      <trkpt lat="48.81443" lon="2.27332">
        <ele>58.400001525879</ele>
        <time>2015-08-10T19:38:05.000Z</time>
      </trkpt>
      <trkpt lat="48.81446" lon="2.27359">
        <ele>56.799999237061</ele>
        <time>2015-08-10T19:38:09.000Z</time>
      </trkpt>
      <trkpt lat="48.81449" lon="2.27381">
        <ele>56.200000762939</ele>
        <time>2015-08-10T19:38:12.000Z</time>
      </trkpt>
      <trkpt lat="48.81454" lon="2.27412">
        <ele>55.599998474121</ele>
        <time>2015-08-10T19:38:16.000Z</time>
      </trkpt>
      <trkpt lat="48.81456" lon="2.27419">
        <ele>55.400001525879</ele>
        <time>2015-08-10T19:38:17.000Z</time>
      </trkpt>
      <trkpt lat="48.81463" lon="2.27454">
        <ele>54.799999237061</ele>
        <time>2015-08-10T19:38:21.000Z</time>
      </trkpt>
      <trkpt lat="48.81466" lon="2.27462">
        <ele>54.599998474121</ele>
        <time>2015-08-10T19:38:22.000Z</time>
      </trkpt>
      <trkpt lat="48.81473" lon="2.27488">
        <ele>54.200000762939</ele>
        <time>2015-08-10T19:38:25.000Z</time>
      </trkpt>
      <trkpt lat="48.81478" lon="2.27515">
        <ele>54.200000762939</ele>
        <time>2015-08-10T19:38:28.000Z</time>
      </trkpt>
      <trkpt lat="48.81482" lon="2.2754">
        <ele>53.200000762939</ele>
        <time>2015-08-10T19:38:31.000Z</time>
      </trkpt>
      <trkpt lat="48.81489" lon="2.27573">
        <ele>52.599998474121</ele>
        <time>2015-08-10T19:38:35.000Z</time>
      </trkpt>
      <trkpt lat="48.81496" lon="2.27605">
        <ele>51.799999237061</ele>
        <time>2015-08-10T19:38:39.000Z</time>
      </trkpt>
      <trkpt lat="48.81499" lon="2.27613">
        <ele>51.799999237061</ele>
        <time>2015-08-10T19:38:40.000Z</time>
      </trkpt>
      <trkpt lat="48.81509" lon="2.27641">
        <ele>51.400001525879</ele>
        <time>2015-08-10T19:38:44.000Z</time>
      </trkpt>
      <trkpt lat="48.81519" lon="2.27664">
        <ele>50.799999237061</ele>
        <time>2015-08-10T19:38:48.000Z</time>
      </trkpt>
      <trkpt lat="48.8153" lon="2.27693">
        <ele>50.400001525879</ele>
        <time>2015-08-10T19:38:53.000Z</time>
      </trkpt>
      <trkpt lat="48.81532" lon="2.27699">
        <ele>50.799999237061</ele>
        <time>2015-08-10T19:38:54.000Z</time>
      </trkpt>
      <trkpt lat="48.81532" lon="2.27727">
        <ele>50.799999237061</ele>
        <time>2015-08-10T19:38:59.000Z</time>
      </trkpt>
      <trkpt lat="48.81529" lon="2.27733">
        <ele>50.400001525879</ele>
        <time>2015-08-10T19:39:00.000Z</time>
      </trkpt>
      <trkpt lat="48.81526" lon="2.27738">
        <ele>50.400001525879</ele>
        <time>2015-08-10T19:39:01.000Z</time>
      </trkpt>
      <trkpt lat="48.8152" lon="2.27749">
        <ele>49.799999237061</ele>
        <time>2015-08-10T19:39:03.000Z</time>
      </trkpt>
      <trkpt lat="48.81508" lon="2.27775">
        <ele>48.599998474121</ele>
        <time>2015-08-10T19:39:08.000Z</time>
      </trkpt>
      <trkpt lat="48.81504" lon="2.27784">
        <ele>48.599998474121</ele>
        <time>2015-08-10T19:39:10.000Z</time>
      </trkpt>
      <trkpt lat="48.81493" lon="2.27802">
        <ele>48.200000762939</ele>
        <time>2015-08-10T19:39:15.000Z</time>
      </trkpt>
      <trkpt lat="48.81495" lon="2.27828">
        <ele>51.200000762939</ele>
        <time>2015-08-10T19:39:22.000Z</time>
      </trkpt>
      <trkpt lat="48.81497" lon="2.27832">
        <ele>51.599998474121</ele>
        <time>2015-08-10T19:39:23.000Z</time>
      </trkpt>
      <trkpt lat="48.81499" lon="2.27835">
        <ele>52</ele>
        <time>2015-08-10T19:39:24.000Z</time>
      </trkpt>
      <trkpt lat="48.81511" lon="2.27847">
        <ele>52.599998474121</ele>
        <time>2015-08-10T19:39:28.000Z</time>
      </trkpt>
      <trkpt lat="48.81529" lon="2.27862">
        <ele>52</ele>
        <time>2015-08-10T19:39:33.000Z</time>
      </trkpt>
      <trkpt lat="48.81546" lon="2.27881">
        <ele>52.200000762939</ele>
        <time>2015-08-10T19:39:37.000Z</time>
      </trkpt>
      <trkpt lat="48.81565" lon="2.27901">
        <ele>52.400001525879</ele>
        <time>2015-08-10T19:39:41.000Z</time>
      </trkpt>
      <trkpt lat="48.81584" lon="2.27923">
        <ele>52.400001525879</ele>
        <time>2015-08-10T19:39:45.000Z</time>
      </trkpt>
      <trkpt lat="48.81601" lon="2.27946">
        <ele>52.599998474121</ele>
        <time>2015-08-10T19:39:49.000Z</time>
      </trkpt>
      <trkpt lat="48.81615" lon="2.27969">
        <ele>53.200000762939</ele>
        <time>2015-08-10T19:39:53.000Z</time>
      </trkpt>
      <trkpt lat="48.81619" lon="2.27974">
        <ele>53.200000762939</ele>
        <time>2015-08-10T19:39:54.000Z</time>
      </trkpt>
      <trkpt lat="48.81634" lon="2.27993">
        <ele>52.599998474121</ele>
        <time>2015-08-10T19:39:57.000Z</time>
      </trkpt>
      <trkpt lat="48.8165" lon="2.2802">
        <ele>52.599998474121</ele>
        <time>2015-08-10T19:40:01.000Z</time>
      </trkpt>
      <trkpt lat="48.8166" lon="2.28036">
        <ele>50.599998474121</ele>
        <time>2015-08-10T19:40:03.000Z</time>
      </trkpt>
      <trkpt lat="48.81672" lon="2.28058">
        <ele>49</ele>
        <time>2015-08-10T19:40:06.000Z</time>
      </trkpt>
      <trkpt lat="48.81674" lon="2.28066">
        <ele>48.200000762939</ele>
        <time>2015-08-10T19:40:07.000Z</time>
      </trkpt>
      <trkpt lat="48.81686" lon="2.28098">
        <ele>46.200000762939</ele>
        <time>2015-08-10T19:40:11.000Z</time>
      </trkpt>
      <trkpt lat="48.81696" lon="2.28127">
        <ele>45</ele>
        <time>2015-08-10T19:40:15.000Z</time>
      </trkpt>
      <trkpt lat="48.81704" lon="2.28157">
        <ele>45.200000762939</ele>
        <time>2015-08-10T19:40:19.000Z</time>
      </trkpt>
      <trkpt lat="48.81711" lon="2.28188">
        <ele>45.799999237061</ele>
        <time>2015-08-10T19:40:23.000Z</time>
      </trkpt>
      <trkpt lat="48.81718" lon="2.28218">
        <ele>48.200000762939</ele>
        <time>2015-08-10T19:40:27.000Z</time>
      </trkpt>
      <trkpt lat="48.81728" lon="2.28246">
        <ele>48.599998474121</ele>
        <time>2015-08-10T19:40:31.000Z</time>
      </trkpt>
      <trkpt lat="48.81738" lon="2.28274">
        <ele>48.400001525879</ele>
        <time>2015-08-10T19:40:35.000Z</time>
      </trkpt>
      <trkpt lat="48.81749" lon="2.28302">
        <ele>48.799999237061</ele>
        <time>2015-08-10T19:40:39.000Z</time>
      </trkpt>
      <trkpt lat="48.81759" lon="2.28324">
        <ele>49</ele>
        <time>2015-08-10T19:40:42.000Z</time>
      </trkpt>
      <trkpt lat="48.81769" lon="2.28347">
        <ele>50</ele>
        <time>2015-08-10T19:40:45.000Z</time>
      </trkpt>
      <trkpt lat="48.81773" lon="2.28354">
        <ele>49.799999237061</ele>
        <time>2015-08-10T19:40:46.000Z</time>
      </trkpt>
      <trkpt lat="48.81784" lon="2.28376">
        <ele>49</ele>
        <time>2015-08-10T19:40:49.000Z</time>
      </trkpt>
      <trkpt lat="48.8179" lon="2.2839">
        <ele>49</ele>
        <time>2015-08-10T19:40:51.000Z</time>
      </trkpt>
      <trkpt lat="48.81802" lon="2.28417">
        <ele>48.400001525879</ele>
        <time>2015-08-10T19:40:55.000Z</time>
      </trkpt>
      <trkpt lat="48.81811" lon="2.28444">
        <ele>47.799999237061</ele>
        <time>2015-08-10T19:40:59.000Z</time>
      </trkpt>
      <trkpt lat="48.81814" lon="2.2845">
        <ele>47.200000762939</ele>
        <time>2015-08-10T19:41:00.000Z</time>
      </trkpt>
      <trkpt lat="48.81821" lon="2.28462">
        <ele>46</ele>
        <time>2015-08-10T19:41:03.000Z</time>
      </trkpt>
      <trkpt lat="48.81825" lon="2.28468">
        <ele>45</ele>
        <time>2015-08-10T19:41:06.000Z</time>
      </trkpt>
      <trkpt lat="48.81828" lon="2.28496">
        <ele>46.200000762939</ele>
        <time>2015-08-10T19:41:19.000Z</time>
      </trkpt>
      <trkpt lat="48.81834" lon="2.28526">
        <ele>45</ele>
        <time>2015-08-10T19:41:23.000Z</time>
      </trkpt>
      <trkpt lat="48.81844" lon="2.28558">
        <ele>45.200000762939</ele>
        <time>2015-08-10T19:41:27.000Z</time>
      </trkpt>
      <trkpt lat="48.81853" lon="2.28588">
        <ele>46</ele>
        <time>2015-08-10T19:41:31.000Z</time>
      </trkpt>
      <trkpt lat="48.81863" lon="2.28616">
        <ele>47.400001525879</ele>
        <time>2015-08-10T19:41:35.000Z</time>
      </trkpt>
      <trkpt lat="48.81873" lon="2.28642">
        <ele>49.799999237061</ele>
        <time>2015-08-10T19:41:39.000Z</time>
      </trkpt>
      <trkpt lat="48.81885" lon="2.28667">
        <ele>51.599998474121</ele>
        <time>2015-08-10T19:41:43.000Z</time>
      </trkpt>
      <trkpt lat="48.81897" lon="2.28693">
        <ele>53.599998474121</ele>
        <time>2015-08-10T19:41:48.000Z</time>
      </trkpt>
      <trkpt lat="48.81901" lon="2.28702">
        <ele>54.599998474121</ele>
        <time>2015-08-10T19:41:50.000Z</time>
      </trkpt>
      <trkpt lat="48.81913" lon="2.28728">
        <ele>57.799999237061</ele>
        <time>2015-08-10T19:41:55.000Z</time>
      </trkpt>
      <trkpt lat="48.81918" lon="2.28744">
        <ele>58.799999237061</ele>
        <time>2015-08-10T19:41:58.000Z</time>
      </trkpt>
      <trkpt lat="48.81927" lon="2.28766">
        <ele>59.799999237061</ele>
        <time>2015-08-10T19:42:02.000Z</time>
      </trkpt>
      <trkpt lat="48.81938" lon="2.28793">
        <ele>60.400001525879</ele>
        <time>2015-08-10T19:42:07.000Z</time>
      </trkpt>
      <trkpt lat="48.81942" lon="2.28803">
        <ele>60.599998474121</ele>
        <time>2015-08-10T19:42:09.000Z</time>
      </trkpt>
      <trkpt lat="48.81949" lon="2.28823">
        <ele>60.799999237061</ele>
        <time>2015-08-10T19:42:13.000Z</time>
      </trkpt>
      <trkpt lat="48.8195" lon="2.28825">
        <ele>60.799999237061</ele>
        <time>2015-08-10T19:42:14.000Z</time>
      </trkpt>
      <trkpt lat="48.81965" lon="2.28843">
        <ele>61.400001525879</ele>
        <time>2015-08-10T19:42:20.000Z</time>
      </trkpt>
      <trkpt lat="48.81966" lon="2.28852">
        <ele>62.200000762939</ele>
        <time>2015-08-10T19:42:22.000Z</time>
      </trkpt>
      <trkpt lat="48.81972" lon="2.28879">
        <ele>63.400001525879</ele>
        <time>2015-08-10T19:42:28.000Z</time>
      </trkpt>
      <trkpt lat="48.81978" lon="2.28908">
        <ele>60.200000762939</ele>
        <time>2015-08-10T19:42:36.000Z</time>
      </trkpt>
      <trkpt lat="48.81984" lon="2.28934">
        <ele>59.599998474121</ele>
        <time>2015-08-10T19:42:46.000Z</time>
      </trkpt>
      <trkpt lat="48.81983" lon="2.28954">
        <ele>57.799999237061</ele>
        <time>2015-08-10T19:43:21.000Z</time>
      </trkpt>
      <trkpt lat="48.81994" lon="2.28982">
        <ele>57.799999237061</ele>
        <time>2015-08-10T19:43:27.000Z</time>
      </trkpt>
      <trkpt lat="48.82004" lon="2.29008">
        <ele>56</ele>
        <time>2015-08-10T19:43:33.000Z</time>
      </trkpt>
      <trkpt lat="48.82017" lon="2.29032">
        <ele>49.400001525879</ele>
        <time>2015-08-10T19:43:42.000Z</time>
      </trkpt>
      <trkpt lat="48.82022" lon="2.29044">
        <ele>49.799999237061</ele>
        <time>2015-08-10T19:43:46.000Z</time>
      </trkpt>
      <trkpt lat="48.8202" lon="2.29069">
        <ele>49.200000762939</ele>
        <time>2015-08-10T19:44:01.000Z</time>
      </trkpt>
      <trkpt lat="48.82025" lon="2.29089">
        <ele>49</ele>
        <time>2015-08-10T19:44:07.000Z</time>
      </trkpt>
      <trkpt lat="48.82043" lon="2.29107">
        <ele>47.599998474121</ele>
        <time>2015-08-10T19:44:14.000Z</time>
      </trkpt>
      <trkpt lat="48.82055" lon="2.29132">
        <ele>46.799999237061</ele>
        <time>2015-08-10T19:44:19.000Z</time>
      </trkpt>
      <trkpt lat="48.82063" lon="2.2915">
        <ele>46.400001525879</ele>
        <time>2015-08-10T19:44:22.000Z</time>
      </trkpt>
      <trkpt lat="48.82074" lon="2.29175">
        <ele>46.599998474121</ele>
        <time>2015-08-10T19:44:26.000Z</time>
      </trkpt>
      <trkpt lat="48.82091" lon="2.29199">
        <ele>47.400001525879</ele>
        <time>2015-08-10T19:44:30.000Z</time>
      </trkpt>
      <trkpt lat="48.82107" lon="2.29224">
        <ele>47</ele>
        <time>2015-08-10T19:44:34.000Z</time>
      </trkpt>
      <trkpt lat="48.82121" lon="2.2925">
        <ele>46.799999237061</ele>
        <time>2015-08-10T19:44:38.000Z</time>
      </trkpt>
      <trkpt lat="48.82134" lon="2.29276">
        <ele>47</ele>
        <time>2015-08-10T19:44:42.000Z</time>
      </trkpt>
      <trkpt lat="48.8215" lon="2.293">
        <ele>47.599998474121</ele>
        <time>2015-08-10T19:44:46.000Z</time>
      </trkpt>
      <trkpt lat="48.82167" lon="2.29321">
        <ele>47.400001525879</ele>
        <time>2015-08-10T19:44:50.000Z</time>
      </trkpt>
      <trkpt lat="48.82181" lon="2.29342">
        <ele>48</ele>
        <time>2015-08-10T19:44:54.000Z</time>
      </trkpt>
      <trkpt lat="48.82193" lon="2.29364">
        <ele>49.799999237061</ele>
        <time>2015-08-10T19:44:58.000Z</time>
      </trkpt>
      <trkpt lat="48.82208" lon="2.29388">
        <ele>51.599998474121</ele>
        <time>2015-08-10T19:45:02.000Z</time>
      </trkpt>
      <trkpt lat="48.82212" lon="2.29391">
        <ele>53</ele>
        <time>2015-08-10T19:45:03.000Z</time>
      </trkpt>
      <trkpt lat="48.82226" lon="2.29412">
        <ele>56</ele>
        <time>2015-08-10T19:45:07.000Z</time>
      </trkpt>
      <trkpt lat="48.82233" lon="2.29425">
        <ele>57.400001525879</ele>
        <time>2015-08-10T19:45:09.000Z</time>
      </trkpt>
      <trkpt lat="48.82248" lon="2.2945">
        <ele>58.599998474121</ele>
        <time>2015-08-10T19:45:13.000Z</time>
      </trkpt>
      <trkpt lat="48.82251" lon="2.29457">
        <ele>59</ele>
        <time>2015-08-10T19:45:14.000Z</time>
      </trkpt>
      <trkpt lat="48.82268" lon="2.29481">
        <ele>61.200000762939</ele>
        <time>2015-08-10T19:45:18.000Z</time>
      </trkpt>
      <trkpt lat="48.8228" lon="2.29509">
        <ele>66</ele>
        <time>2015-08-10T19:45:21.000Z</time>
      </trkpt>
      <trkpt lat="48.82292" lon="2.29534">
        <ele>69.199996948242</ele>
        <time>2015-08-10T19:45:25.000Z</time>
      </trkpt>
      <trkpt lat="48.82305" lon="2.29562">
        <ele>72.800003051758</ele>
        <time>2015-08-10T19:45:29.000Z</time>
      </trkpt>
      <trkpt lat="48.82316" lon="2.29584">
        <ele>75.400001525879</ele>
        <time>2015-08-10T19:45:32.000Z</time>
      </trkpt>
      <trkpt lat="48.82328" lon="2.29613">
        <ele>77.400001525879</ele>
        <time>2015-08-10T19:45:36.000Z</time>
      </trkpt>
      <trkpt lat="48.82338" lon="2.29641">
        <ele>79</ele>
        <time>2015-08-10T19:45:40.000Z</time>
      </trkpt>
      <trkpt lat="48.82349" lon="2.2967">
        <ele>79.400001525879</ele>
        <time>2015-08-10T19:45:44.000Z</time>
      </trkpt>
      <trkpt lat="48.82359" lon="2.29689">
        <ele>79.599998474121</ele>
        <time>2015-08-10T19:45:47.000Z</time>
      </trkpt>
      <trkpt lat="48.82373" lon="2.29716">
        <ele>80</ele>
        <time>2015-08-10T19:45:51.000Z</time>
      </trkpt>
      <trkpt lat="48.82385" lon="2.29743">
        <ele>81.599998474121</ele>
        <time>2015-08-10T19:45:56.000Z</time>
      </trkpt>
      <trkpt lat="48.82397" lon="2.2977">
        <ele>82.199996948242</ele>
        <time>2015-08-10T19:46:01.000Z</time>
      </trkpt>
      <trkpt lat="48.82408" lon="2.29796">
        <ele>85.599998474121</ele>
        <time>2015-08-10T19:46:05.000Z</time>
      </trkpt>
      <trkpt lat="48.82418" lon="2.29816">
        <ele>86.800003051758</ele>
        <time>2015-08-10T19:46:08.000Z</time>
      </trkpt>
      <trkpt lat="48.82431" lon="2.29843">
        <ele>87.400001525879</ele>
        <time>2015-08-10T19:46:12.000Z</time>
      </trkpt>
      <trkpt lat="48.82438" lon="2.29857">
        <ele>87.800003051758</ele>
        <time>2015-08-10T19:46:14.000Z</time>
      </trkpt>
      <trkpt lat="48.82449" lon="2.29882">
        <ele>89.800003051758</ele>
        <time>2015-08-10T19:46:18.000Z</time>
      </trkpt>
      <trkpt lat="48.82462" lon="2.29909">
        <ele>93.400001525879</ele>
        <time>2015-08-10T19:46:22.000Z</time>
      </trkpt>
      <trkpt lat="48.82472" lon="2.29935">
        <ele>97.800003051758</ele>
        <time>2015-08-10T19:46:26.000Z</time>
      </trkpt>
      <trkpt lat="48.82484" lon="2.2996">
        <ele>100.40000152588</ele>
        <time>2015-08-10T19:46:30.000Z</time>
      </trkpt>
      <trkpt lat="48.82496" lon="2.29988">
        <ele>101.59999847412</ele>
        <time>2015-08-10T19:46:35.000Z</time>
      </trkpt>
      <trkpt lat="48.82496" lon="2.29992">
        <ele>101</ele>
        <time>2015-08-10T19:46:36.000Z</time>
      </trkpt>
      <trkpt lat="48.82507" lon="2.3001">
        <ele>98.199996948242</ele>
        <time>2015-08-10T19:46:42.000Z</time>
      </trkpt>
      <trkpt lat="48.82521" lon="2.30037">
        <ele>76.199996948242</ele>
        <time>2015-08-10T19:46:54.000Z</time>
      </trkpt>
      <trkpt lat="48.82524" lon="2.30044">
        <ele>67.400001525879</ele>
        <time>2015-08-10T19:47:07.000Z</time>
      </trkpt>
      <trkpt lat="48.82528" lon="2.3005">
        <ele>49.799999237061</ele>
        <time>2015-08-10T19:47:35.000Z</time>
      </trkpt>
      <trkpt lat="48.82536" lon="2.30077">
        <ele>49</ele>
        <time>2015-08-10T19:47:47.000Z</time>
      </trkpt>
      <trkpt lat="48.82535" lon="2.30104">
        <ele>49.200000762939</ele>
        <time>2015-08-10T19:47:52.000Z</time>
      </trkpt>
      <trkpt lat="48.82529" lon="2.30132">
        <ele>48.599998474121</ele>
        <time>2015-08-10T19:47:56.000Z</time>
      </trkpt>
      <trkpt lat="48.82519" lon="2.30157">
        <ele>48.599998474121</ele>
        <time>2015-08-10T19:48:00.000Z</time>
      </trkpt>
      <trkpt lat="48.82511" lon="2.30183">
        <ele>46.799999237061</ele>
        <time>2015-08-10T19:48:06.000Z</time>
      </trkpt>
      <trkpt lat="48.82518" lon="2.30203">
        <ele>45.799999237061</ele>
        <time>2015-08-10T19:48:22.000Z</time>
      </trkpt>
      <trkpt lat="48.82537" lon="2.30211">
        <ele>46.799999237061</ele>
        <time>2015-08-10T19:48:32.000Z</time>
      </trkpt>
      <trkpt lat="48.82541" lon="2.30212">
        <ele>46.599998474121</ele>
        <time>2015-08-10T19:48:35.000Z</time>
      </trkpt>
      <trkpt lat="48.82559" lon="2.30224">
        <ele>46.799999237061</ele>
        <time>2015-08-10T19:48:44.000Z</time>
      </trkpt>
      <trkpt lat="48.82573" lon="2.30242">
        <ele>48.400001525879</ele>
        <time>2015-08-10T19:48:49.000Z</time>
      </trkpt>
      <trkpt lat="48.82589" lon="2.30256">
        <ele>48.200000762939</ele>
        <time>2015-08-10T19:48:54.000Z</time>
      </trkpt>
      <trkpt lat="48.82602" lon="2.30275">
        <ele>47.799999237061</ele>
        <time>2015-08-10T19:48:59.000Z</time>
      </trkpt>
      <trkpt lat="48.82612" lon="2.3029">
        <ele>47</ele>
        <time>2015-08-10T19:49:03.000Z</time>
      </trkpt>
      <trkpt lat="48.82629" lon="2.303">
        <ele>48.200000762939</ele>
        <time>2015-08-10T19:49:08.000Z</time>
      </trkpt>
      <trkpt lat="48.82646" lon="2.30316">
        <ele>48.599998474121</ele>
        <time>2015-08-10T19:49:13.000Z</time>
      </trkpt>
      <trkpt lat="48.82664" lon="2.30331">
        <ele>48.599998474121</ele>
        <time>2015-08-10T19:49:19.000Z</time>
      </trkpt>
      <trkpt lat="48.82682" lon="2.30347">
        <ele>50</ele>
        <time>2015-08-10T19:49:24.000Z</time>
      </trkpt>
      <trkpt lat="48.82699" lon="2.30365">
        <ele>52.200000762939</ele>
        <time>2015-08-10T19:49:30.000Z</time>
      </trkpt>
      <trkpt lat="48.82716" lon="2.30381">
        <ele>53.400001525879</ele>
        <time>2015-08-10T19:49:36.000Z</time>
      </trkpt>
      <trkpt lat="48.82732" lon="2.304">
        <ele>55</ele>
        <time>2015-08-10T19:49:41.000Z</time>
      </trkpt>
      <trkpt lat="48.8275" lon="2.30418">
        <ele>56.599998474121</ele>
        <time>2015-08-10T19:49:46.000Z</time>
      </trkpt>
      <trkpt lat="48.82767" lon="2.30437">
        <ele>56.200000762939</ele>
        <time>2015-08-10T19:49:50.000Z</time>
      </trkpt>
      <trkpt lat="48.82781" lon="2.30455">
        <ele>54.200000762939</ele>
        <time>2015-08-10T19:49:53.000Z</time>
      </trkpt>
      <trkpt lat="48.82795" lon="2.30473">
        <ele>55.200000762939</ele>
        <time>2015-08-10T19:49:57.000Z</time>
      </trkpt>
      <trkpt lat="48.8281" lon="2.30491">
        <ele>54.799999237061</ele>
        <time>2015-08-10T19:50:01.000Z</time>
      </trkpt>
      <trkpt lat="48.82824" lon="2.30509">
        <ele>54.799999237061</ele>
        <time>2015-08-10T19:50:05.000Z</time>
      </trkpt>
      <trkpt lat="48.8284" lon="2.30528">
        <ele>54.400001525879</ele>
        <time>2015-08-10T19:50:09.000Z</time>
      </trkpt>
      <trkpt lat="48.82856" lon="2.30547">
        <ele>55.200000762939</ele>
        <time>2015-08-10T19:50:13.000Z</time>
      </trkpt>
      <trkpt lat="48.82868" lon="2.30568">
        <ele>53.200000762939</ele>
        <time>2015-08-10T19:50:16.000Z</time>
      </trkpt>
      <trkpt lat="48.82874" lon="2.30582">
        <ele>52.400001525879</ele>
        <time>2015-08-10T19:50:18.000Z</time>
      </trkpt>
      <trkpt lat="48.82883" lon="2.306">
        <ele>51.400001525879</ele>
        <time>2015-08-10T19:50:21.000Z</time>
      </trkpt>
      <trkpt lat="48.82899" lon="2.30619">
        <ele>50</ele>
        <time>2015-08-10T19:50:26.000Z</time>
      </trkpt>
      <trkpt lat="48.82916" lon="2.30637">
        <ele>50</ele>
        <time>2015-08-10T19:50:31.000Z</time>
      </trkpt>
      <trkpt lat="48.82922" lon="2.30641">
        <ele>50.200000762939</ele>
        <time>2015-08-10T19:50:33.000Z</time>
      </trkpt>
      <trkpt lat="48.82927" lon="2.30648">
        <ele>50.400001525879</ele>
        <time>2015-08-10T19:50:38.000Z</time>
      </trkpt>
      <trkpt lat="48.82943" lon="2.30662">
        <ele>52.799999237061</ele>
        <time>2015-08-10T19:50:54.000Z</time>
      </trkpt>
      <trkpt lat="48.82956" lon="2.30683">
        <ele>53.200000762939</ele>
        <time>2015-08-10T19:50:59.000Z</time>
      </trkpt>
      <trkpt lat="48.8297" lon="2.30708">
        <ele>53.400001525879</ele>
        <time>2015-08-10T19:51:05.000Z</time>
      </trkpt>
      <trkpt lat="48.82985" lon="2.30728">
        <ele>53.599998474121</ele>
        <time>2015-08-10T19:51:09.000Z</time>
      </trkpt>
      <trkpt lat="48.83" lon="2.30747">
        <ele>54.200000762939</ele>
        <time>2015-08-10T19:51:13.000Z</time>
      </trkpt>
      <trkpt lat="48.83014" lon="2.30766">
        <ele>53.799999237061</ele>
        <time>2015-08-10T19:51:17.000Z</time>
      </trkpt>
      <trkpt lat="48.83028" lon="2.30785">
        <ele>52.599998474121</ele>
        <time>2015-08-10T19:51:21.000Z</time>
      </trkpt>
      <trkpt lat="48.83044" lon="2.30807">
        <ele>48.200000762939</ele>
        <time>2015-08-10T19:51:24.000Z</time>
      </trkpt>
      <trkpt lat="48.83058" lon="2.30831">
        <ele>45.400001525879</ele>
        <time>2015-08-10T19:51:29.000Z</time>
      </trkpt>
      <trkpt lat="48.83074" lon="2.30847">
        <ele>45.799999237061</ele>
        <time>2015-08-10T19:51:32.000Z</time>
      </trkpt>
      <trkpt lat="48.8309" lon="2.30867">
        <ele>44.599998474121</ele>
        <time>2015-08-10T19:51:36.000Z</time>
      </trkpt>
      <trkpt lat="48.83106" lon="2.30891">
        <ele>41</ele>
        <time>2015-08-10T19:51:40.000Z</time>
      </trkpt>
      <trkpt lat="48.83122" lon="2.30918">
        <ele>38</ele>
        <time>2015-08-10T19:51:44.000Z</time>
      </trkpt>
      <trkpt lat="48.8314" lon="2.30937">
        <ele>38.200000762939</ele>
        <time>2015-08-10T19:51:47.000Z</time>
      </trkpt>
      <trkpt lat="48.83156" lon="2.30955">
        <ele>38.400001525879</ele>
        <time>2015-08-10T19:51:50.000Z</time>
      </trkpt>
      <trkpt lat="48.83171" lon="2.30976">
        <ele>37.400001525879</ele>
        <time>2015-08-10T19:51:53.000Z</time>
      </trkpt>
      <trkpt lat="48.83185" lon="2.31003">
        <ele>37.400001525879</ele>
        <time>2015-08-10T19:51:57.000Z</time>
      </trkpt>
      <trkpt lat="48.83202" lon="2.31029">
        <ele>38.200000762939</ele>
        <time>2015-08-10T19:52:01.000Z</time>
      </trkpt>
      <trkpt lat="48.83216" lon="2.31053">
        <ele>37.400001525879</ele>
        <time>2015-08-10T19:52:05.000Z</time>
      </trkpt>
      <trkpt lat="48.83227" lon="2.31076">
        <ele>37</ele>
        <time>2015-08-10T19:52:09.000Z</time>
      </trkpt>
      <trkpt lat="48.83241" lon="2.31101">
        <ele>36</ele>
        <time>2015-08-10T19:52:15.000Z</time>
      </trkpt>
      <trkpt lat="48.83251" lon="2.3112">
        <ele>35.799999237061</ele>
        <time>2015-08-10T19:52:20.000Z</time>
      </trkpt>
      <trkpt lat="48.83257" lon="2.31121">
        <ele>35.799999237061</ele>
        <time>2015-08-10T19:52:23.000Z</time>
      </trkpt>
      <trkpt lat="48.83268" lon="2.31131">
        <ele>36.599998474121</ele>
        <time>2015-08-10T19:52:28.000Z</time>
      </trkpt>
      <trkpt lat="48.83271" lon="2.31134">
        <ele>37.400001525879</ele>
        <time>2015-08-10T19:52:29.000Z</time>
      </trkpt>
      <trkpt lat="48.83283" lon="2.31149">
        <ele>40.200000762939</ele>
        <time>2015-08-10T19:52:35.000Z</time>
      </trkpt>
      <trkpt lat="48.83287" lon="2.31153">
        <ele>40.599998474121</ele>
        <time>2015-08-10T19:52:37.000Z</time>
      </trkpt>
      <trkpt lat="48.83301" lon="2.31173">
        <ele>42.400001525879</ele>
        <time>2015-08-10T19:52:45.000Z</time>
      </trkpt>
      <trkpt lat="48.83318" lon="2.31184">
        <ele>50</ele>
        <time>2015-08-10T19:53:23.000Z</time>
      </trkpt>
      <trkpt lat="48.83312" lon="2.31176">
        <ele>55.200000762939</ele>
        <time>2015-08-10T19:54:07.000Z</time>
      </trkpt>
      <trkpt lat="48.83314" lon="2.31174">
        <ele>59</ele>
        <time>2015-08-10T19:55:15.000Z</time>
      </trkpt>
      <trkpt lat="48.83316" lon="2.31179">
        <ele>61.400001525879</ele>
        <time>2015-08-10T19:55:58.000Z</time>
      </trkpt>
      <trkpt lat="48.83328" lon="2.31198">
        <ele>61.599998474121</ele>
        <time>2015-08-10T19:56:05.000Z</time>
      </trkpt>
      <trkpt lat="48.83341" lon="2.31223">
        <ele>63</ele>
        <time>2015-08-10T19:56:11.000Z</time>
      </trkpt>
      <trkpt lat="48.83354" lon="2.31244">
        <ele>63.799999237061</ele>
        <time>2015-08-10T19:56:16.000Z</time>
      </trkpt>
      <trkpt lat="48.83369" lon="2.31263">
        <ele>64.199996948242</ele>
        <time>2015-08-10T19:56:21.000Z</time>
      </trkpt>
      <trkpt lat="48.83386" lon="2.31289">
        <ele>63.799999237061</ele>
        <time>2015-08-10T19:56:27.000Z</time>
      </trkpt>
      <trkpt lat="48.83402" lon="2.31309">
        <ele>62.799999237061</ele>
        <time>2015-08-10T19:56:31.000Z</time>
      </trkpt>
      <trkpt lat="48.83414" lon="2.31331">
        <ele>60.799999237061</ele>
        <time>2015-08-10T19:56:36.000Z</time>
      </trkpt>
      <trkpt lat="48.83431" lon="2.31348">
        <ele>59</ele>
        <time>2015-08-10T19:56:42.000Z</time>
      </trkpt>
      <trkpt lat="48.83445" lon="2.31372">
        <ele>58.400001525879</ele>
        <time>2015-08-10T19:56:49.000Z</time>
      </trkpt>
      <trkpt lat="48.8346" lon="2.31394">
        <ele>58.599998474121</ele>
        <time>2015-08-10T19:56:54.000Z</time>
      </trkpt>
      <trkpt lat="48.83473" lon="2.31413">
        <ele>60.599998474121</ele>
        <time>2015-08-10T19:56:58.000Z</time>
      </trkpt>
      <trkpt lat="48.83487" lon="2.31434">
        <ele>62.400001525879</ele>
        <time>2015-08-10T19:57:03.000Z</time>
      </trkpt>
      <trkpt lat="48.835" lon="2.31453">
        <ele>65</ele>
        <time>2015-08-10T19:57:07.000Z</time>
      </trkpt>
      <trkpt lat="48.83515" lon="2.31477">
        <ele>65.400001525879</ele>
        <time>2015-08-10T19:57:12.000Z</time>
      </trkpt>
      <trkpt lat="48.83529" lon="2.31499">
        <ele>62.799999237061</ele>
        <time>2015-08-10T19:57:16.000Z</time>
      </trkpt>
      <trkpt lat="48.83542" lon="2.31522">
        <ele>61.400001525879</ele>
        <time>2015-08-10T19:57:21.000Z</time>
      </trkpt>
      <trkpt lat="48.83544" lon="2.31525">
        <ele>61.400001525879</ele>
        <time>2015-08-10T19:57:22.000Z</time>
      </trkpt>
      <trkpt lat="48.83552" lon="2.31539">
        <ele>61.400001525879</ele>
        <time>2015-08-10T19:57:27.000Z</time>
      </trkpt>
      <trkpt lat="48.83553" lon="2.31544">
        <ele>61.200000762939</ele>
        <time>2015-08-10T19:57:28.000Z</time>
      </trkpt>
      <trkpt lat="48.83561" lon="2.31564">
        <ele>62.799999237061</ele>
        <time>2015-08-10T19:57:33.000Z</time>
      </trkpt>
      <trkpt lat="48.83572" lon="2.31585">
        <ele>62.400001525879</ele>
        <time>2015-08-10T19:57:38.000Z</time>
      </trkpt>
      <trkpt lat="48.83583" lon="2.31609">
        <ele>62</ele>
        <time>2015-08-10T19:57:43.000Z</time>
      </trkpt>
      <trkpt lat="48.83592" lon="2.31634">
        <ele>61.599998474121</ele>
        <time>2015-08-10T19:57:49.000Z</time>
      </trkpt>
      <trkpt lat="48.83609" lon="2.31654">
        <ele>58.200000762939</ele>
        <time>2015-08-10T19:57:53.000Z</time>
      </trkpt>
      <trkpt lat="48.83623" lon="2.31679">
        <ele>54.799999237061</ele>
        <time>2015-08-10T19:57:58.000Z</time>
      </trkpt>
      <trkpt lat="48.83636" lon="2.31705">
        <ele>51.599998474121</ele>
        <time>2015-08-10T19:58:03.000Z</time>
      </trkpt>
      <trkpt lat="48.83647" lon="2.31727">
        <ele>50.200000762939</ele>
        <time>2015-08-10T19:58:08.000Z</time>
      </trkpt>
      <trkpt lat="48.83658" lon="2.31751">
        <ele>49.400001525879</ele>
        <time>2015-08-10T19:58:16.000Z</time>
      </trkpt>
      <trkpt lat="48.83674" lon="2.31768">
        <ele>48.400001525879</ele>
        <time>2015-08-10T19:58:23.000Z</time>
      </trkpt>
      <trkpt lat="48.83686" lon="2.31789">
        <ele>45.799999237061</ele>
        <time>2015-08-10T19:58:30.000Z</time>
      </trkpt>
      <trkpt lat="48.83699" lon="2.31798">
        <ele>47.599998474121</ele>
        <time>2015-08-10T19:58:56.000Z</time>
      </trkpt>
      <trkpt lat="48.83696" lon="2.3182">
        <ele>49.400001525879</ele>
        <time>2015-08-10T19:59:24.000Z</time>
      </trkpt>
      <trkpt lat="48.83699" lon="2.3185">
        <ele>50.200000762939</ele>
        <time>2015-08-10T19:59:32.000Z</time>
      </trkpt>
      <trkpt lat="48.83715" lon="2.31872">
        <ele>51</ele>
        <time>2015-08-10T19:59:38.000Z</time>
      </trkpt>
      <trkpt lat="48.83728" lon="2.31898">
        <ele>51.400001525879</ele>
        <time>2015-08-10T19:59:43.000Z</time>
      </trkpt>
      <trkpt lat="48.83733" lon="2.3192">
        <ele>51</ele>
        <time>2015-08-10T19:59:46.000Z</time>
      </trkpt>
      <trkpt lat="48.83737" lon="2.31951">
        <ele>50.200000762939</ele>
        <time>2015-08-10T19:59:50.000Z</time>
      </trkpt>
      <trkpt lat="48.83742" lon="2.31981">
        <ele>50</ele>
        <time>2015-08-10T19:59:54.000Z</time>
      </trkpt>
      <trkpt lat="48.83747" lon="2.32009">
        <ele>50</ele>
        <time>2015-08-10T19:59:59.000Z</time>
      </trkpt>
      <trkpt lat="48.83747" lon="2.32014">
        <ele>50</ele>
        <time>2015-08-10T20:00:00.000Z</time>
      </trkpt>
      <trkpt lat="48.83748" lon="2.32027">
        <ele>50.599998474121</ele>
        <time>2015-08-10T20:00:03.000Z</time>
      </trkpt>
      <trkpt lat="48.83755" lon="2.3205">
        <ele>51.599998474121</ele>
        <time>2015-08-10T20:00:07.000Z</time>
      </trkpt>
      <trkpt lat="48.83758" lon="2.32081">
        <ele>52.799999237061</ele>
        <time>2015-08-10T20:00:11.000Z</time>
      </trkpt>
      <trkpt lat="48.83758" lon="2.32098">
        <ele>53.799999237061</ele>
        <time>2015-08-10T20:00:13.000Z</time>
      </trkpt>
      <trkpt lat="48.83762" lon="2.32131">
        <ele>55.599998474121</ele>
        <time>2015-08-10T20:00:17.000Z</time>
      </trkpt>
      <trkpt lat="48.83768" lon="2.32155">
        <ele>56.599998474121</ele>
        <time>2015-08-10T20:00:20.000Z</time>
      </trkpt>
      <trkpt lat="48.83773" lon="2.32186">
        <ele>57</ele>
        <time>2015-08-10T20:00:24.000Z</time>
      </trkpt>
      <trkpt lat="48.83774" lon="2.322">
        <ele>57.400001525879</ele>
        <time>2015-08-10T20:00:26.000Z</time>
      </trkpt>
      <trkpt lat="48.83773" lon="2.32221">
        <ele>57</ele>
        <time>2015-08-10T20:00:29.000Z</time>
      </trkpt>
      <trkpt lat="48.8377" lon="2.32243">
        <ele>57.799999237061</ele>
        <time>2015-08-10T20:00:33.000Z</time>
      </trkpt>
      <trkpt lat="48.83765" lon="2.32268">
        <ele>60.200000762939</ele>
        <time>2015-08-10T20:00:38.000Z</time>
      </trkpt>
      <trkpt lat="48.8376" lon="2.32288">
        <ele>61.599998474121</ele>
        <time>2015-08-10T20:00:42.000Z</time>
      </trkpt>
      <trkpt lat="48.83755" lon="2.32318">
        <ele>62.799999237061</ele>
        <time>2015-08-10T20:00:47.000Z</time>
      </trkpt>
      <trkpt lat="48.83748" lon="2.32341">
        <ele>64</ele>
        <time>2015-08-10T20:00:51.000Z</time>
      </trkpt>
      <trkpt lat="48.83738" lon="2.32365">
        <ele>63.799999237061</ele>
        <time>2015-08-10T20:00:55.000Z</time>
      </trkpt>
      <trkpt lat="48.8373" lon="2.32391">
        <ele>62.599998474121</ele>
        <time>2015-08-10T20:01:00.000Z</time>
      </trkpt>
      <trkpt lat="48.83728" lon="2.32397">
        <ele>62.599998474121</ele>
        <time>2015-08-10T20:01:01.000Z</time>
      </trkpt>
      <trkpt lat="48.83722" lon="2.32417">
        <ele>61.200000762939</ele>
        <time>2015-08-10T20:01:04.000Z</time>
      </trkpt>
      <trkpt lat="48.83713" lon="2.32445">
        <ele>60.200000762939</ele>
        <time>2015-08-10T20:01:08.000Z</time>
      </trkpt>
      <trkpt lat="48.83711" lon="2.32452">
        <ele>60.200000762939</ele>
        <time>2015-08-10T20:01:09.000Z</time>
      </trkpt>
      <trkpt lat="48.837" lon="2.32481">
        <ele>58.200000762939</ele>
        <time>2015-08-10T20:01:13.000Z</time>
      </trkpt>
      <trkpt lat="48.83689" lon="2.32512">
        <ele>56.599998474121</ele>
        <time>2015-08-10T20:01:17.000Z</time>
      </trkpt>
      <trkpt lat="48.83681" lon="2.32537">
        <ele>54.400001525879</ele>
        <time>2015-08-10T20:01:20.000Z</time>
      </trkpt>
      <trkpt lat="48.83671" lon="2.32563">
        <ele>52</ele>
        <time>2015-08-10T20:01:23.000Z</time>
      </trkpt>
      <trkpt lat="48.83661" lon="2.32596">
        <ele>50.599998474121</ele>
        <time>2015-08-10T20:01:27.000Z</time>
      </trkpt>
      <trkpt lat="48.8365" lon="2.32627">
        <ele>48.200000762939</ele>
        <time>2015-08-10T20:01:31.000Z</time>
      </trkpt>
      <trkpt lat="48.83637" lon="2.32656">
        <ele>45</ele>
        <time>2015-08-10T20:01:35.000Z</time>
      </trkpt>
      <trkpt lat="48.8363" lon="2.32678">
        <ele>43.400001525879</ele>
        <time>2015-08-10T20:01:38.000Z</time>
      </trkpt>
      <trkpt lat="48.83619" lon="2.32705">
        <ele>41</ele>
        <time>2015-08-10T20:01:42.000Z</time>
      </trkpt>
      <trkpt lat="48.83614" lon="2.3272">
        <ele>41.200000762939</ele>
        <time>2015-08-10T20:01:44.000Z</time>
      </trkpt>
      <trkpt lat="48.83609" lon="2.32735">
        <ele>40.799999237061</ele>
        <time>2015-08-10T20:01:46.000Z</time>
      </trkpt>
      <trkpt lat="48.83599" lon="2.32763">
        <ele>39.599998474121</ele>
        <time>2015-08-10T20:01:50.000Z</time>
      </trkpt>
      <trkpt lat="48.83595" lon="2.32778">
        <ele>38.599998474121</ele>
        <time>2015-08-10T20:01:52.000Z</time>
      </trkpt>
      <trkpt lat="48.83585" lon="2.32801">
        <ele>37.799999237061</ele>
        <time>2015-08-10T20:01:55.000Z</time>
      </trkpt>
      <trkpt lat="48.83575" lon="2.32828">
        <ele>37.599998474121</ele>
        <time>2015-08-10T20:01:58.000Z</time>
      </trkpt>
      <trkpt lat="48.83563" lon="2.32856">
        <ele>37</ele>
        <time>2015-08-10T20:02:01.000Z</time>
      </trkpt>
      <trkpt lat="48.83553" lon="2.32884">
        <ele>37.599998474121</ele>
        <time>2015-08-10T20:02:04.000Z</time>
      </trkpt>
      <trkpt lat="48.83545" lon="2.329">
        <ele>37.200000762939</ele>
        <time>2015-08-10T20:02:06.000Z</time>
      </trkpt>
      <trkpt lat="48.83536" lon="2.32913">
        <ele>37.200000762939</ele>
        <time>2015-08-10T20:02:08.000Z</time>
      </trkpt>
      <trkpt lat="48.83522" lon="2.3293">
        <ele>37.799999237061</ele>
        <time>2015-08-10T20:02:11.000Z</time>
      </trkpt>
      <trkpt lat="48.83514" lon="2.32943">
        <ele>38</ele>
        <time>2015-08-10T20:02:13.000Z</time>
      </trkpt>
      <trkpt lat="48.83502" lon="2.32967">
        <ele>38.599998474121</ele>
        <time>2015-08-10T20:02:17.000Z</time>
      </trkpt>
      <trkpt lat="48.8351" lon="2.32989">
        <ele>39.200000762939</ele>
        <time>2015-08-10T20:02:22.000Z</time>
      </trkpt>
      <trkpt lat="48.83512" lon="2.32991">
        <ele>39</ele>
        <time>2015-08-10T20:02:23.000Z</time>
      </trkpt>
      <trkpt lat="48.83531" lon="2.33003">
        <ele>39.799999237061</ele>
        <time>2015-08-10T20:02:28.000Z</time>
      </trkpt>
      <trkpt lat="48.83548" lon="2.33018">
        <ele>40.799999237061</ele>
        <time>2015-08-10T20:02:32.000Z</time>
      </trkpt>
      <trkpt lat="48.83567" lon="2.33037">
        <ele>41.400001525879</ele>
        <time>2015-08-10T20:02:36.000Z</time>
      </trkpt>
      <trkpt lat="48.83587" lon="2.33055">
        <ele>42.200000762939</ele>
        <time>2015-08-10T20:02:40.000Z</time>
      </trkpt>
      <trkpt lat="48.83604" lon="2.33068">
        <ele>42.799999237061</ele>
        <time>2015-08-10T20:02:43.000Z</time>
      </trkpt>
      <trkpt lat="48.83621" lon="2.33081">
        <ele>44</ele>
        <time>2015-08-10T20:02:46.000Z</time>
      </trkpt>
      <trkpt lat="48.83638" lon="2.33093">
        <ele>45.400001525879</ele>
        <time>2015-08-10T20:02:49.000Z</time>
      </trkpt>
      <trkpt lat="48.83655" lon="2.33107">
        <ele>45.799999237061</ele>
        <time>2015-08-10T20:02:53.000Z</time>
      </trkpt>
      <trkpt lat="48.83674" lon="2.33118">
        <ele>45.799999237061</ele>
        <time>2015-08-10T20:02:57.000Z</time>
      </trkpt>
      <trkpt lat="48.83678" lon="2.33122">
        <ele>46.400001525879</ele>
        <time>2015-08-10T20:02:59.000Z</time>
      </trkpt>
      <trkpt lat="48.83681" lon="2.33124">
        <ele>46.400001525879</ele>
        <time>2015-08-10T20:03:01.000Z</time>
      </trkpt>
      <trkpt lat="48.837" lon="2.33127">
        <ele>50</ele>
        <time>2015-08-10T20:03:17.000Z</time>
      </trkpt>
      <trkpt lat="48.83719" lon="2.33124">
        <ele>50.599998474121</ele>
        <time>2015-08-10T20:03:21.000Z</time>
      </trkpt>
      <trkpt lat="48.83739" lon="2.33118">
        <ele>51.200000762939</ele>
        <time>2015-08-10T20:03:25.000Z</time>
      </trkpt>
      <trkpt lat="48.83759" lon="2.3311">
        <ele>51.799999237061</ele>
        <time>2015-08-10T20:03:29.000Z</time>
      </trkpt>
      <trkpt lat="48.83769" lon="2.33113">
        <ele>55.599998474121</ele>
        <time>2015-08-10T20:03:32.000Z</time>
      </trkpt>
      <trkpt lat="48.83782" lon="2.3314">
        <ele>61.599998474121</ele>
        <time>2015-08-10T20:03:38.000Z</time>
      </trkpt>
      <trkpt lat="48.83796" lon="2.33163">
        <ele>61.200000762939</ele>
        <time>2015-08-10T20:03:42.000Z</time>
      </trkpt>
      <trkpt lat="48.83812" lon="2.33183">
        <ele>61</ele>
        <time>2015-08-10T20:03:46.000Z</time>
      </trkpt>
      <trkpt lat="48.8383" lon="2.33205">
        <ele>61</ele>
        <time>2015-08-10T20:03:50.000Z</time>
      </trkpt>
      <trkpt lat="48.83844" lon="2.33224">
        <ele>60.200000762939</ele>
        <time>2015-08-10T20:03:54.000Z</time>
      </trkpt>
      <trkpt lat="48.83851" lon="2.33232">
        <ele>60.200000762939</ele>
        <time>2015-08-10T20:03:56.000Z</time>
      </trkpt>
      <trkpt lat="48.83861" lon="2.33246">
        <ele>59</ele>
        <time>2015-08-10T20:03:59.000Z</time>
      </trkpt>
      <trkpt lat="48.83875" lon="2.33265">
        <ele>57.799999237061</ele>
        <time>2015-08-10T20:04:04.000Z</time>
      </trkpt>
      <trkpt lat="48.83886" lon="2.33272">
        <ele>55</ele>
        <time>2015-08-10T20:04:07.000Z</time>
      </trkpt>
      <trkpt lat="48.839" lon="2.33287">
        <ele>50.799999237061</ele>
        <time>2015-08-10T20:04:12.000Z</time>
      </trkpt>
      <trkpt lat="48.83909" lon="2.33297">
        <ele>49.200000762939</ele>
        <time>2015-08-10T20:04:15.000Z</time>
      </trkpt>
      <trkpt lat="48.83923" lon="2.33315">
        <ele>44.400001525879</ele>
        <time>2015-08-10T20:04:18.000Z</time>
      </trkpt>
      <trkpt lat="48.83939" lon="2.33339">
        <ele>39.400001525879</ele>
        <time>2015-08-10T20:04:22.000Z</time>
      </trkpt>
      <trkpt lat="48.83953" lon="2.33363">
        <ele>37.400001525879</ele>
        <time>2015-08-10T20:04:26.000Z</time>
      </trkpt>
      <trkpt lat="48.83956" lon="2.33369">
        <ele>37.599998474121</ele>
        <time>2015-08-10T20:04:27.000Z</time>
      </trkpt>
      <trkpt lat="48.83964" lon="2.33381">
        <ele>37.400001525879</ele>
        <time>2015-08-10T20:04:29.000Z</time>
      </trkpt>
      <trkpt lat="48.83978" lon="2.33402">
        <ele>35.400001525879</ele>
        <time>2015-08-10T20:04:33.000Z</time>
      </trkpt>
      <trkpt lat="48.83986" lon="2.33414">
        <ele>33.799999237061</ele>
        <time>2015-08-10T20:04:36.000Z</time>
      </trkpt>
      <trkpt lat="48.84001" lon="2.33438">
        <ele>33</ele>
        <time>2015-08-10T20:04:41.000Z</time>
      </trkpt>
      <trkpt lat="48.84007" lon="2.33451">
        <ele>32.200000762939</ele>
        <time>2015-08-10T20:04:44.000Z</time>
      </trkpt>
      <trkpt lat="48.84009" lon="2.33461">
        <ele>32.799999237061</ele>
        <time>2015-08-10T20:04:46.000Z</time>
      </trkpt>
      <trkpt lat="48.84012" lon="2.33492">
        <ele>34.799999237061</ele>
        <time>2015-08-10T20:04:51.000Z</time>
      </trkpt>
      <trkpt lat="48.84006" lon="2.3352">
        <ele>36.400001525879</ele>
        <time>2015-08-10T20:04:56.000Z</time>
      </trkpt>
      <trkpt lat="48.84004" lon="2.33525">
        <ele>36.599998474121</ele>
        <time>2015-08-10T20:04:57.000Z</time>
      </trkpt>
      <trkpt lat="48.83999" lon="2.33548">
        <ele>37.200000762939</ele>
        <time>2015-08-10T20:05:01.000Z</time>
      </trkpt>
      <trkpt lat="48.83992" lon="2.33569">
        <ele>38.799999237061</ele>
        <time>2015-08-10T20:05:05.000Z</time>
      </trkpt>
      <trkpt lat="48.83983" lon="2.33597">
        <ele>40.799999237061</ele>
        <time>2015-08-10T20:05:10.000Z</time>
      </trkpt>
      <trkpt lat="48.8398" lon="2.33609">
        <ele>41.400001525879</ele>
        <time>2015-08-10T20:05:12.000Z</time>
      </trkpt>
      <trkpt lat="48.83972" lon="2.33634">
        <ele>39.799999237061</ele>
        <time>2015-08-10T20:05:17.000Z</time>
      </trkpt>
      <trkpt lat="48.83965" lon="2.3366">
        <ele>38.400001525879</ele>
        <time>2015-08-10T20:05:25.000Z</time>
      </trkpt>
      <trkpt lat="48.83961" lon="2.33671">
        <ele>37.400001525879</ele>
        <time>2015-08-10T20:05:31.000Z</time>
      </trkpt>
      <trkpt lat="48.83952" lon="2.33691">
        <ele>40</ele>
        <time>2015-08-10T20:06:20.000Z</time>
      </trkpt>
      <trkpt lat="48.83947" lon="2.33719">
        <ele>39.599998474121</ele>
        <time>2015-08-10T20:06:28.000Z</time>
      </trkpt>
      <trkpt lat="48.8394" lon="2.33745">
        <ele>39</ele>
        <time>2015-08-10T20:06:33.000Z</time>
      </trkpt>
      <trkpt lat="48.83932" lon="2.33773">
        <ele>38.799999237061</ele>
        <time>2015-08-10T20:06:37.000Z</time>
      </trkpt>
      <trkpt lat="48.83923" lon="2.33804">
        <ele>38.599998474121</ele>
        <time>2015-08-10T20:06:41.000Z</time>
      </trkpt>
      <trkpt lat="48.83916" lon="2.33829">
        <ele>38.400001525879</ele>
        <time>2015-08-10T20:06:44.000Z</time>
      </trkpt>
      <trkpt lat="48.83909" lon="2.33854">
        <ele>38.599998474121</ele>
        <time>2015-08-10T20:06:47.000Z</time>
      </trkpt>
      <trkpt lat="48.83902" lon="2.3388">
        <ele>38.599998474121</ele>
        <time>2015-08-10T20:06:50.000Z</time>
      </trkpt>
      <trkpt lat="48.83896" lon="2.33907">
        <ele>38.599998474121</ele>
        <time>2015-08-10T20:06:53.000Z</time>
      </trkpt>
      <trkpt lat="48.83887" lon="2.3394">
        <ele>38.400001525879</ele>
        <time>2015-08-10T20:06:57.000Z</time>
      </trkpt>
      <trkpt lat="48.83878" lon="2.3397">
        <ele>38.200000762939</ele>
        <time>2015-08-10T20:07:01.000Z</time>
      </trkpt>
      <trkpt lat="48.83874" lon="2.33986">
        <ele>37.599998474121</ele>
        <time>2015-08-10T20:07:03.000Z</time>
      </trkpt>
      <trkpt lat="48.83869" lon="2.34019">
        <ele>37</ele>
        <time>2015-08-10T20:07:07.000Z</time>
      </trkpt>
      <trkpt lat="48.83861" lon="2.34053">
        <ele>36.599998474121</ele>
        <time>2015-08-10T20:07:11.000Z</time>
      </trkpt>
      <trkpt lat="48.83855" lon="2.34079">
        <ele>35.799999237061</ele>
        <time>2015-08-10T20:07:14.000Z</time>
      </trkpt>
      <trkpt lat="48.83848" lon="2.34113">
        <ele>35.200000762939</ele>
        <time>2015-08-10T20:07:18.000Z</time>
      </trkpt>
      <trkpt lat="48.83842" lon="2.3414">
        <ele>34.400001525879</ele>
        <time>2015-08-10T20:07:21.000Z</time>
      </trkpt>
      <trkpt lat="48.83836" lon="2.34166">
        <ele>34</ele>
        <time>2015-08-10T20:07:24.000Z</time>
      </trkpt>
      <trkpt lat="48.83832" lon="2.34192">
        <ele>33.400001525879</ele>
        <time>2015-08-10T20:07:27.000Z</time>
      </trkpt>
      <trkpt lat="48.8383" lon="2.34219">
        <ele>32.799999237061</ele>
        <time>2015-08-10T20:07:30.000Z</time>
      </trkpt>
      <trkpt lat="48.83825" lon="2.34247">
        <ele>32.200000762939</ele>
        <time>2015-08-10T20:07:33.000Z</time>
      </trkpt>
      <trkpt lat="48.83821" lon="2.34266">
        <ele>32.200000762939</ele>
        <time>2015-08-10T20:07:35.000Z</time>
      </trkpt>
      <trkpt lat="48.83815" lon="2.34294">
        <ele>31.799999237061</ele>
        <time>2015-08-10T20:07:38.000Z</time>
      </trkpt>
      <trkpt lat="48.83813" lon="2.34303">
        <ele>31.39999961853</ele>
        <time>2015-08-10T20:07:39.000Z</time>
      </trkpt>
      <trkpt lat="48.83806" lon="2.34332">
        <ele>30.39999961853</ele>
        <time>2015-08-10T20:07:42.000Z</time>
      </trkpt>
      <trkpt lat="48.838" lon="2.34362">
        <ele>30</ele>
        <time>2015-08-10T20:07:45.000Z</time>
      </trkpt>
      <trkpt lat="48.83794" lon="2.34392">
        <ele>29.39999961853</ele>
        <time>2015-08-10T20:07:48.000Z</time>
      </trkpt>
      <trkpt lat="48.83787" lon="2.34422">
        <ele>29.39999961853</ele>
        <time>2015-08-10T20:07:51.000Z</time>
      </trkpt>
      <trkpt lat="48.83779" lon="2.34452">
        <ele>29.60000038147</ele>
        <time>2015-08-10T20:07:54.000Z</time>
      </trkpt>
      <trkpt lat="48.83774" lon="2.3448">
        <ele>30.200000762939</ele>
        <time>2015-08-10T20:07:57.000Z</time>
      </trkpt>
      <trkpt lat="48.83769" lon="2.34508">
        <ele>31.60000038147</ele>
        <time>2015-08-10T20:08:00.000Z</time>
      </trkpt>
      <trkpt lat="48.83768" lon="2.34525">
        <ele>34.200000762939</ele>
        <time>2015-08-10T20:08:02.000Z</time>
      </trkpt>
      <trkpt lat="48.83761" lon="2.34551">
        <ele>34.799999237061</ele>
        <time>2015-08-10T20:08:05.000Z</time>
      </trkpt>
      <trkpt lat="48.83757" lon="2.34569">
        <ele>35.200000762939</ele>
        <time>2015-08-10T20:08:07.000Z</time>
      </trkpt>
      <trkpt lat="48.83752" lon="2.34603">
        <ele>34.599998474121</ele>
        <time>2015-08-10T20:08:11.000Z</time>
      </trkpt>
      <trkpt lat="48.83749" lon="2.34638">
        <ele>34.400001525879</ele>
        <time>2015-08-10T20:08:15.000Z</time>
      </trkpt>
      <trkpt lat="48.83744" lon="2.34664">
        <ele>33.799999237061</ele>
        <time>2015-08-10T20:08:18.000Z</time>
      </trkpt>
      <trkpt lat="48.83738" lon="2.34683">
        <ele>33</ele>
        <time>2015-08-10T20:08:20.000Z</time>
      </trkpt>
      <trkpt lat="48.83734" lon="2.34713">
        <ele>33</ele>
        <time>2015-08-10T20:08:23.000Z</time>
      </trkpt>
      <trkpt lat="48.83732" lon="2.34741">
        <ele>33.400001525879</ele>
        <time>2015-08-10T20:08:26.000Z</time>
      </trkpt>
      <trkpt lat="48.83731" lon="2.3477">
        <ele>34.200000762939</ele>
        <time>2015-08-10T20:08:29.000Z</time>
      </trkpt>
      <trkpt lat="48.83728" lon="2.34799">
        <ele>35.200000762939</ele>
        <time>2015-08-10T20:08:32.000Z</time>
      </trkpt>
      <trkpt lat="48.83728" lon="2.34834">
        <ele>37.200000762939</ele>
        <time>2015-08-10T20:08:36.000Z</time>
      </trkpt>
      <trkpt lat="48.83722" lon="2.34863">
        <ele>37.799999237061</ele>
        <time>2015-08-10T20:08:39.000Z</time>
      </trkpt>
      <trkpt lat="48.83717" lon="2.34892">
        <ele>38.799999237061</ele>
        <time>2015-08-10T20:08:42.000Z</time>
      </trkpt>
      <trkpt lat="48.83713" lon="2.34926">
        <ele>39.799999237061</ele>
        <time>2015-08-10T20:08:46.000Z</time>
      </trkpt>
      <trkpt lat="48.83709" lon="2.3496">
        <ele>40.599998474121</ele>
        <time>2015-08-10T20:08:50.000Z</time>
      </trkpt>
      <trkpt lat="48.83704" lon="2.34993">
        <ele>41.200000762939</ele>
        <time>2015-08-10T20:08:54.000Z</time>
      </trkpt>
      <trkpt lat="48.83699" lon="2.35027">
        <ele>42.200000762939</ele>
        <time>2015-08-10T20:08:58.000Z</time>
      </trkpt>
      <trkpt lat="48.83697" lon="2.35059">
        <ele>45.200000762939</ele>
        <time>2015-08-10T20:09:02.000Z</time>
      </trkpt>
      <trkpt lat="48.83693" lon="2.35074">
        <ele>45.200000762939</ele>
        <time>2015-08-10T20:09:04.000Z</time>
      </trkpt>
      <trkpt lat="48.83682" lon="2.35099">
        <ele>42.799999237061</ele>
        <time>2015-08-10T20:09:08.000Z</time>
      </trkpt>
      <trkpt lat="48.83679" lon="2.35103">
        <ele>42.599998474121</ele>
        <time>2015-08-10T20:09:09.000Z</time>
      </trkpt>
      <trkpt lat="48.83674" lon="2.35108">
        <ele>42.200000762939</ele>
        <time>2015-08-10T20:09:12.000Z</time>
      </trkpt>
      <trkpt lat="48.8367" lon="2.3511">
        <ele>41.799999237061</ele>
        <time>2015-08-10T20:09:16.000Z</time>
      </trkpt>
      <trkpt lat="48.83669" lon="2.35111">
        <ele>41.799999237061</ele>
        <time>2015-08-10T20:09:17.000Z</time>
      </trkpt>
      <trkpt lat="48.83669" lon="2.35135">
        <ele>38.799999237061</ele>
        <time>2015-08-10T20:09:25.000Z</time>
      </trkpt>
      <trkpt lat="48.8367" lon="2.35139">
        <ele>38.599998474121</ele>
        <time>2015-08-10T20:09:26.000Z</time>
      </trkpt>
      <trkpt lat="48.83676" lon="2.35149">
        <ele>37.599998474121</ele>
        <time>2015-08-10T20:09:30.000Z</time>
      </trkpt>
      <trkpt lat="48.83682" lon="2.35159">
        <ele>36.400001525879</ele>
        <time>2015-08-10T20:09:34.000Z</time>
      </trkpt>
      <trkpt lat="48.83689" lon="2.35166">
        <ele>36.200000762939</ele>
        <time>2015-08-10T20:09:42.000Z</time>
      </trkpt>
      <trkpt lat="48.83701" lon="2.35173">
        <ele>32</ele>
        <time>2015-08-10T20:10:05.000Z</time>
      </trkpt>
      <trkpt lat="48.83712" lon="2.35165">
        <ele>31.39999961853</ele>
        <time>2015-08-10T20:10:09.000Z</time>
      </trkpt>
      <trkpt lat="48.83729" lon="2.35154">
        <ele>31.799999237061</ele>
        <time>2015-08-10T20:10:14.000Z</time>
      </trkpt>
      <trkpt lat="48.83747" lon="2.35137">
        <ele>32</ele>
        <time>2015-08-10T20:10:19.000Z</time>
      </trkpt>
      <trkpt lat="48.83764" lon="2.35122">
        <ele>32.799999237061</ele>
        <time>2015-08-10T20:10:24.000Z</time>
      </trkpt>
      <trkpt lat="48.83782" lon="2.35104">
        <ele>34.400001525879</ele>
        <time>2015-08-10T20:10:29.000Z</time>
      </trkpt>
      <trkpt lat="48.838" lon="2.35089">
        <ele>35.799999237061</ele>
        <time>2015-08-10T20:10:34.000Z</time>
      </trkpt>
      <trkpt lat="48.83819" lon="2.35076">
        <ele>37.400001525879</ele>
        <time>2015-08-10T20:10:39.000Z</time>
      </trkpt>
      <trkpt lat="48.83837" lon="2.35068">
        <ele>37.200000762939</ele>
        <time>2015-08-10T20:10:43.000Z</time>
      </trkpt>
      <trkpt lat="48.83858" lon="2.35063">
        <ele>37</ele>
        <time>2015-08-10T20:10:48.000Z</time>
      </trkpt>
      <trkpt lat="48.83877" lon="2.35068">
        <ele>36.599998474121</ele>
        <time>2015-08-10T20:10:52.000Z</time>
      </trkpt>
      <trkpt lat="48.83898" lon="2.35078">
        <ele>35.799999237061</ele>
        <time>2015-08-10T20:10:56.000Z</time>
      </trkpt>
      <trkpt lat="48.83908" lon="2.35084">
        <ele>35.799999237061</ele>
        <time>2015-08-10T20:10:58.000Z</time>
      </trkpt>
      <trkpt lat="48.83928" lon="2.35098">
        <ele>37</ele>
        <time>2015-08-10T20:11:02.000Z</time>
      </trkpt>
      <trkpt lat="48.83948" lon="2.35104">
        <ele>38.200000762939</ele>
        <time>2015-08-10T20:11:06.000Z</time>
      </trkpt>
      <trkpt lat="48.83959" lon="2.35107">
        <ele>39</ele>
        <time>2015-08-10T20:11:08.000Z</time>
      </trkpt>
      <trkpt lat="48.83981" lon="2.35117">
        <ele>38.400001525879</ele>
        <time>2015-08-10T20:11:12.000Z</time>
      </trkpt>
      <trkpt lat="48.83993" lon="2.35131">
        <ele>34.400001525879</ele>
        <time>2015-08-10T20:11:14.000Z</time>
      </trkpt>
      <trkpt lat="48.84005" lon="2.35155">
        <ele>31.60000038147</ele>
        <time>2015-08-10T20:11:18.000Z</time>
      </trkpt>
      <trkpt lat="48.8401" lon="2.35167">
        <ele>31.200000762939</ele>
        <time>2015-08-10T20:11:20.000Z</time>
      </trkpt>
      <trkpt lat="48.84021" lon="2.35189">
        <ele>32</ele>
        <time>2015-08-10T20:11:24.000Z</time>
      </trkpt>
      <trkpt lat="48.84033" lon="2.35209">
        <ele>31</ele>
        <time>2015-08-10T20:11:28.000Z</time>
      </trkpt>
      <trkpt lat="48.84047" lon="2.35236">
        <ele>29.60000038147</ele>
        <time>2015-08-10T20:11:33.000Z</time>
      </trkpt>
      <trkpt lat="48.84057" lon="2.35261">
        <ele>26.799999237061</ele>
        <time>2015-08-10T20:11:38.000Z</time>
      </trkpt>
      <trkpt lat="48.84059" lon="2.35268">
        <ele>25</ele>
        <time>2015-08-10T20:11:40.000Z</time>
      </trkpt>
      <trkpt lat="48.84058" lon="2.35297">
        <ele>23.200000762939</ele>
        <time>2015-08-10T20:11:44.000Z</time>
      </trkpt>
      <trkpt lat="48.84057" lon="2.35305">
        <ele>23.60000038147</ele>
        <time>2015-08-10T20:11:45.000Z</time>
      </trkpt>
      <trkpt lat="48.84053" lon="2.35329">
        <ele>23.799999237061</ele>
        <time>2015-08-10T20:11:48.000Z</time>
      </trkpt>
      <trkpt lat="48.84057" lon="2.35356">
        <ele>24</ele>
        <time>2015-08-10T20:11:51.000Z</time>
      </trkpt>
      <trkpt lat="48.8406" lon="2.35365">
        <ele>24</ele>
        <time>2015-08-10T20:11:52.000Z</time>
      </trkpt>
      <trkpt lat="48.84067" lon="2.35392">
        <ele>23.60000038147</ele>
        <time>2015-08-10T20:11:55.000Z</time>
      </trkpt>
      <trkpt lat="48.84072" lon="2.35409">
        <ele>24.200000762939</ele>
        <time>2015-08-10T20:11:57.000Z</time>
      </trkpt>
      <trkpt lat="48.84081" lon="2.3544">
        <ele>25</ele>
        <time>2015-08-10T20:12:01.000Z</time>
      </trkpt>
      <trkpt lat="48.84089" lon="2.35466">
        <ele>25.39999961853</ele>
        <time>2015-08-10T20:12:05.000Z</time>
      </trkpt>
      <trkpt lat="48.84091" lon="2.35471">
        <ele>25.200000762939</ele>
        <time>2015-08-10T20:12:06.000Z</time>
      </trkpt>
      <trkpt lat="48.84104" lon="2.35477">
        <ele>24.39999961853</ele>
        <time>2015-08-10T20:12:10.000Z</time>
      </trkpt>
      <trkpt lat="48.84123" lon="2.35473">
        <ele>23.60000038147</ele>
        <time>2015-08-10T20:12:14.000Z</time>
      </trkpt>
      <trkpt lat="48.84135" lon="2.3547">
        <ele>23.200000762939</ele>
        <time>2015-08-10T20:12:17.000Z</time>
      </trkpt>
      <trkpt lat="48.84146" lon="2.35469">
        <ele>24.200000762939</ele>
        <time>2015-08-10T20:12:24.000Z</time>
      </trkpt>
      <trkpt lat="48.84148" lon="2.35468">
        <ele>24.39999961853</ele>
        <time>2015-08-10T20:12:25.000Z</time>
      </trkpt>
      <trkpt lat="48.84154" lon="2.35468">
        <ele>25</ele>
        <time>2015-08-10T20:12:27.000Z</time>
      </trkpt>
      <trkpt lat="48.84172" lon="2.35462">
        <ele>25.799999237061</ele>
        <time>2015-08-10T20:12:31.000Z</time>
      </trkpt>
      <trkpt lat="48.84178" lon="2.35458">
        <ele>26.200000762939</ele>
        <time>2015-08-10T20:12:32.000Z</time>
      </trkpt>
      <trkpt lat="48.84197" lon="2.35452">
        <ele>26.60000038147</ele>
        <time>2015-08-10T20:12:35.000Z</time>
      </trkpt>
      <trkpt lat="48.84217" lon="2.35446">
        <ele>27.60000038147</ele>
        <time>2015-08-10T20:12:39.000Z</time>
      </trkpt>
      <trkpt lat="48.84237" lon="2.35442">
        <ele>30.39999961853</ele>
        <time>2015-08-10T20:12:43.000Z</time>
      </trkpt>
      <trkpt lat="48.84261" lon="2.35436">
        <ele>29</ele>
        <time>2015-08-10T20:12:47.000Z</time>
      </trkpt>
      <trkpt lat="48.84279" lon="2.35432">
        <ele>27.60000038147</ele>
        <time>2015-08-10T20:12:50.000Z</time>
      </trkpt>
      <trkpt lat="48.84298" lon="2.35426">
        <ele>27.39999961853</ele>
        <time>2015-08-10T20:12:53.000Z</time>
      </trkpt>
      <trkpt lat="48.84316" lon="2.35419">
        <ele>28.799999237061</ele>
        <time>2015-08-10T20:12:56.000Z</time>
      </trkpt>
      <trkpt lat="48.84335" lon="2.35414">
        <ele>31</ele>
        <time>2015-08-10T20:13:00.000Z</time>
      </trkpt>
      <trkpt lat="48.84352" lon="2.35411">
        <ele>35</ele>
        <time>2015-08-10T20:13:04.000Z</time>
      </trkpt>
      <trkpt lat="48.84361" lon="2.35423">
        <ele>33.400001525879</ele>
        <time>2015-08-10T20:13:08.000Z</time>
      </trkpt>
      <trkpt lat="48.84363" lon="2.35416">
        <ele>39.599998474121</ele>
        <time>2015-08-10T20:13:32.000Z</time>
      </trkpt>
      <trkpt lat="48.84366" lon="2.35422">
        <ele>42.400001525879</ele>
        <time>2015-08-10T20:14:05.000Z</time>
      </trkpt>
      <trkpt lat="48.84368" lon="2.35453">
        <ele>42.200000762939</ele>
        <time>2015-08-10T20:14:12.000Z</time>
      </trkpt>
      <trkpt lat="48.84372" lon="2.35484">
        <ele>42.400001525879</ele>
        <time>2015-08-10T20:14:18.000Z</time>
      </trkpt>
      <trkpt lat="48.84373" lon="2.35491">
        <ele>43</ele>
        <time>2015-08-10T20:14:21.000Z</time>
      </trkpt>
      <trkpt lat="48.84378" lon="2.35497">
        <ele>46.799999237061</ele>
        <time>2015-08-10T20:15:31.000Z</time>
      </trkpt>
      <trkpt lat="48.8438" lon="2.35503">
        <ele>46.400001525879</ele>
        <time>2015-08-10T20:16:42.000Z</time>
      </trkpt>
      <trkpt lat="48.84395" lon="2.35522">
        <ele>45</ele>
        <time>2015-08-10T20:16:50.000Z</time>
      </trkpt>
      <trkpt lat="48.84406" lon="2.35545">
        <ele>44.200000762939</ele>
        <time>2015-08-10T20:16:55.000Z</time>
      </trkpt>
      <trkpt lat="48.84419" lon="2.35569">
        <ele>42.200000762939</ele>
        <time>2015-08-10T20:16:59.000Z</time>
      </trkpt>
      <trkpt lat="48.84433" lon="2.35596">
        <ele>40.400001525879</ele>
        <time>2015-08-10T20:17:03.000Z</time>
      </trkpt>
      <trkpt lat="48.84446" lon="2.35617">
        <ele>39.400001525879</ele>
        <time>2015-08-10T20:17:06.000Z</time>
      </trkpt>
      <trkpt lat="48.84451" lon="2.35623">
        <ele>39.200000762939</ele>
        <time>2015-08-10T20:17:07.000Z</time>
      </trkpt>
      <trkpt lat="48.84464" lon="2.35642">
        <ele>37.599998474121</ele>
        <time>2015-08-10T20:17:10.000Z</time>
      </trkpt>
      <trkpt lat="48.84476" lon="2.35664">
        <ele>35.599998474121</ele>
        <time>2015-08-10T20:17:13.000Z</time>
      </trkpt>
      <trkpt lat="48.84489" lon="2.35689">
        <ele>35</ele>
        <time>2015-08-10T20:17:16.000Z</time>
      </trkpt>
      <trkpt lat="48.84503" lon="2.35712">
        <ele>34.200000762939</ele>
        <time>2015-08-10T20:17:19.000Z</time>
      </trkpt>
      <trkpt lat="48.84512" lon="2.35725">
        <ele>33.799999237061</ele>
        <time>2015-08-10T20:17:21.000Z</time>
      </trkpt>
      <trkpt lat="48.84527" lon="2.35747">
        <ele>33.400001525879</ele>
        <time>2015-08-10T20:17:24.000Z</time>
      </trkpt>
      <trkpt lat="48.84541" lon="2.3577">
        <ele>33</ele>
        <time>2015-08-10T20:17:27.000Z</time>
      </trkpt>
      <trkpt lat="48.84556" lon="2.35797">
        <ele>33</ele>
        <time>2015-08-10T20:17:30.000Z</time>
      </trkpt>
      <trkpt lat="48.8456" lon="2.35807">
        <ele>33.400001525879</ele>
        <time>2015-08-10T20:17:31.000Z</time>
      </trkpt>
      <trkpt lat="48.84573" lon="2.35834">
        <ele>34</ele>
        <time>2015-08-10T20:17:34.000Z</time>
      </trkpt>
      <trkpt lat="48.84587" lon="2.35859">
        <ele>34.200000762939</ele>
        <time>2015-08-10T20:17:37.000Z</time>
      </trkpt>
      <trkpt lat="48.84602" lon="2.35882">
        <ele>34.200000762939</ele>
        <time>2015-08-10T20:17:40.000Z</time>
      </trkpt>
      <trkpt lat="48.84615" lon="2.35905">
        <ele>34</ele>
        <time>2015-08-10T20:17:43.000Z</time>
      </trkpt>
      <trkpt lat="48.84628" lon="2.35928">
        <ele>34</ele>
        <time>2015-08-10T20:17:46.000Z</time>
      </trkpt>
      <trkpt lat="48.84639" lon="2.35951">
        <ele>33.799999237061</ele>
        <time>2015-08-10T20:17:49.000Z</time>
      </trkpt>
      <trkpt lat="48.84648" lon="2.35975">
        <ele>34.599998474121</ele>
        <time>2015-08-10T20:17:52.000Z</time>
      </trkpt>
      <trkpt lat="48.84662" lon="2.35998">
        <ele>35.599998474121</ele>
        <time>2015-08-10T20:17:56.000Z</time>
      </trkpt>
      <trkpt lat="48.84669" lon="2.36012">
        <ele>37.200000762939</ele>
        <time>2015-08-10T20:17:59.000Z</time>
      </trkpt>
      <trkpt lat="48.84679" lon="2.36036">
        <ele>40.799999237061</ele>
        <time>2015-08-10T20:18:04.000Z</time>
      </trkpt>
      <trkpt lat="48.84686" lon="2.36058">
        <ele>43.799999237061</ele>
        <time>2015-08-10T20:18:09.000Z</time>
      </trkpt>
      <trkpt lat="48.84684" lon="2.36074">
        <ele>42.599998474121</ele>
        <time>2015-08-10T20:18:21.000Z</time>
      </trkpt>
      <trkpt lat="48.84688" lon="2.36076">
        <ele>39.799999237061</ele>
        <time>2015-08-10T20:18:23.000Z</time>
      </trkpt>
      <trkpt lat="48.84704" lon="2.36058">
        <ele>35.200000762939</ele>
        <time>2015-08-10T20:18:29.000Z</time>
      </trkpt>
      <trkpt lat="48.84719" lon="2.36036">
        <ele>33</ele>
        <time>2015-08-10T20:18:33.000Z</time>
      </trkpt>
      <trkpt lat="48.84733" lon="2.36017">
        <ele>32</ele>
        <time>2015-08-10T20:18:36.000Z</time>
      </trkpt>
      <trkpt lat="48.84747" lon="2.35997">
        <ele>32.400001525879</ele>
        <time>2015-08-10T20:18:39.000Z</time>
      </trkpt>
      <trkpt lat="48.84761" lon="2.35976">
        <ele>32.799999237061</ele>
        <time>2015-08-10T20:18:42.000Z</time>
      </trkpt>
      <trkpt lat="48.84774" lon="2.35955">
        <ele>33.799999237061</ele>
        <time>2015-08-10T20:18:45.000Z</time>
      </trkpt>
      <trkpt lat="48.84789" lon="2.35931">
        <ele>34</ele>
        <time>2015-08-10T20:18:48.000Z</time>
      </trkpt>
      <trkpt lat="48.84804" lon="2.35907">
        <ele>33.599998474121</ele>
        <time>2015-08-10T20:18:51.000Z</time>
      </trkpt>
      <trkpt lat="48.84819" lon="2.35881">
        <ele>33.200000762939</ele>
        <time>2015-08-10T20:18:54.000Z</time>
      </trkpt>
      <trkpt lat="48.84835" lon="2.35857">
        <ele>33</ele>
        <time>2015-08-10T20:18:57.000Z</time>
      </trkpt>
      <trkpt lat="48.8485" lon="2.35834">
        <ele>33.599998474121</ele>
        <time>2015-08-10T20:19:00.000Z</time>
      </trkpt>
      <trkpt lat="48.84863" lon="2.35811">
        <ele>34.200000762939</ele>
        <time>2015-08-10T20:19:03.000Z</time>
      </trkpt>
      <trkpt lat="48.84877" lon="2.3579">
        <ele>33.400001525879</ele>
        <time>2015-08-10T20:19:06.000Z</time>
      </trkpt>
      <trkpt lat="48.8489" lon="2.35769">
        <ele>33.200000762939</ele>
        <time>2015-08-10T20:19:09.000Z</time>
      </trkpt>
      <trkpt lat="48.84902" lon="2.3575">
        <ele>33</ele>
        <time>2015-08-10T20:19:12.000Z</time>
      </trkpt>
      <trkpt lat="48.84913" lon="2.35725">
        <ele>31.200000762939</ele>
        <time>2015-08-10T20:19:16.000Z</time>
      </trkpt>
      <trkpt lat="48.84922" lon="2.35701">
        <ele>29</ele>
        <time>2015-08-10T20:19:21.000Z</time>
      </trkpt>
      <trkpt lat="48.8493" lon="2.3568">
        <ele>29.200000762939</ele>
        <time>2015-08-10T20:19:26.000Z</time>
      </trkpt>
      <trkpt lat="48.84931" lon="2.35677">
        <ele>29.200000762939</ele>
        <time>2015-08-10T20:19:27.000Z</time>
      </trkpt>
      <trkpt lat="48.84937" lon="2.35656">
        <ele>28.200000762939</ele>
        <time>2015-08-10T20:19:32.000Z</time>
      </trkpt>
      <trkpt lat="48.84939" lon="2.35647">
        <ele>27.39999961853</ele>
        <time>2015-08-10T20:19:34.000Z</time>
      </trkpt>
      <trkpt lat="48.84941" lon="2.35633">
        <ele>27.39999961853</ele>
        <time>2015-08-10T20:19:37.000Z</time>
      </trkpt>
      <trkpt lat="48.84949" lon="2.35606">
        <ele>28.200000762939</ele>
        <time>2015-08-10T20:19:42.000Z</time>
      </trkpt>
      <trkpt lat="48.84954" lon="2.3559">
        <ele>28.39999961853</ele>
        <time>2015-08-10T20:19:45.000Z</time>
      </trkpt>
      <trkpt lat="48.84965" lon="2.35564">
        <ele>29.200000762939</ele>
        <time>2015-08-10T20:19:50.000Z</time>
      </trkpt>
      <trkpt lat="48.84972" lon="2.3555">
        <ele>29</ele>
        <time>2015-08-10T20:19:53.000Z</time>
      </trkpt>
      <trkpt lat="48.8498" lon="2.35526">
        <ele>28.799999237061</ele>
        <time>2015-08-10T20:19:58.000Z</time>
      </trkpt>
      <trkpt lat="48.84985" lon="2.35512">
        <ele>28.39999961853</ele>
        <time>2015-08-10T20:20:01.000Z</time>
      </trkpt>
      <trkpt lat="48.84992" lon="2.35496">
        <ele>28.60000038147</ele>
        <time>2015-08-10T20:20:06.000Z</time>
      </trkpt>
      <trkpt lat="48.85006" lon="2.35474">
        <ele>22</ele>
        <time>2015-08-10T20:20:34.000Z</time>
      </trkpt>
      <trkpt lat="48.85013" lon="2.3545">
        <ele>19.799999237061</ele>
        <time>2015-08-10T20:20:56.000Z</time>
      </trkpt>
      <trkpt lat="48.8502" lon="2.35434">
        <ele>20</ele>
        <time>2015-08-10T20:20:59.000Z</time>
      </trkpt>
      <trkpt lat="48.85029" lon="2.3541">
        <ele>19.60000038147</ele>
        <time>2015-08-10T20:21:03.000Z</time>
      </trkpt>
      <trkpt lat="48.85033" lon="2.35395">
        <ele>19.39999961853</ele>
        <time>2015-08-10T20:21:05.000Z</time>
      </trkpt>
      <trkpt lat="48.8504" lon="2.35369">
        <ele>19.799999237061</ele>
        <time>2015-08-10T20:21:08.000Z</time>
      </trkpt>
      <trkpt lat="48.85049" lon="2.35342">
        <ele>20</ele>
        <time>2015-08-10T20:21:11.000Z</time>
      </trkpt>
      <trkpt lat="48.85058" lon="2.35314">
        <ele>20.60000038147</ele>
        <time>2015-08-10T20:21:14.000Z</time>
      </trkpt>
      <trkpt lat="48.85064" lon="2.35295">
        <ele>20.799999237061</ele>
        <time>2015-08-10T20:21:16.000Z</time>
      </trkpt>
      <trkpt lat="48.85074" lon="2.35265">
        <ele>20.60000038147</ele>
        <time>2015-08-10T20:21:19.000Z</time>
      </trkpt>
      <trkpt lat="48.85083" lon="2.35236">
        <ele>21</ele>
        <time>2015-08-10T20:21:22.000Z</time>
      </trkpt>
      <trkpt lat="48.85092" lon="2.35209">
        <ele>20.799999237061</ele>
        <time>2015-08-10T20:21:25.000Z</time>
      </trkpt>
      <trkpt lat="48.851" lon="2.35182">
        <ele>21.39999961853</ele>
        <time>2015-08-10T20:21:28.000Z</time>
      </trkpt>
      <trkpt lat="48.8511" lon="2.35151">
        <ele>23.60000038147</ele>
        <time>2015-08-10T20:21:32.000Z</time>
      </trkpt>
      <trkpt lat="48.85113" lon="2.35142">
        <ele>24.799999237061</ele>
        <time>2015-08-10T20:21:34.000Z</time>
      </trkpt>
      <trkpt lat="48.8513" lon="2.35135">
        <ele>26.60000038147</ele>
        <time>2015-08-10T20:21:39.000Z</time>
      </trkpt>
      <trkpt lat="48.85145" lon="2.35143">
        <ele>27</ele>
        <time>2015-08-10T20:21:43.000Z</time>
      </trkpt>
      <trkpt lat="48.85149" lon="2.35145">
        <ele>27</ele>
        <time>2015-08-10T20:21:44.000Z</time>
      </trkpt>
      <trkpt lat="48.85159" lon="2.35153">
        <ele>27.39999961853</ele>
        <time>2015-08-10T20:21:47.000Z</time>
      </trkpt>
      <trkpt lat="48.85167" lon="2.35158">
        <ele>28</ele>
        <time>2015-08-10T20:21:49.000Z</time>
      </trkpt>
      <trkpt lat="48.85186" lon="2.35172">
        <ele>29</ele>
        <time>2015-08-10T20:21:54.000Z</time>
      </trkpt>
      <trkpt lat="48.85198" lon="2.35177">
        <ele>28</ele>
        <time>2015-08-10T20:21:57.000Z</time>
      </trkpt>
      <trkpt lat="48.85215" lon="2.35189">
        <ele>28.39999961853</ele>
        <time>2015-08-10T20:22:02.000Z</time>
      </trkpt>
      <trkpt lat="48.85218" lon="2.35191">
        <ele>28.39999961853</ele>
        <time>2015-08-10T20:22:03.000Z</time>
      </trkpt>
      <trkpt lat="48.85238" lon="2.35205">
        <ele>29.60000038147</ele>
        <time>2015-08-10T20:22:08.000Z</time>
      </trkpt>
      <trkpt lat="48.85257" lon="2.35216">
        <ele>30.200000762939</ele>
        <time>2015-08-10T20:22:13.000Z</time>
      </trkpt>
      <trkpt lat="48.85261" lon="2.35218">
        <ele>30.39999961853</ele>
        <time>2015-08-10T20:22:14.000Z</time>
      </trkpt>
      <trkpt lat="48.85274" lon="2.3522">
        <ele>30.60000038147</ele>
        <time>2015-08-10T20:22:18.000Z</time>
      </trkpt>
      <trkpt lat="48.85295" lon="2.35219">
        <ele>31.60000038147</ele>
        <time>2015-08-10T20:22:24.000Z</time>
      </trkpt>
      <trkpt lat="48.85314" lon="2.35217">
        <ele>34.599998474121</ele>
        <time>2015-08-10T20:22:30.000Z</time>
      </trkpt>
      <trkpt lat="48.85333" lon="2.35215">
        <ele>37</ele>
        <time>2015-08-10T20:22:35.000Z</time>
      </trkpt>
      <trkpt lat="48.85352" lon="2.35212">
        <ele>38.599998474121</ele>
        <time>2015-08-10T20:22:40.000Z</time>
      </trkpt>
      <trkpt lat="48.85372" lon="2.35201">
        <ele>38.799999237061</ele>
        <time>2015-08-10T20:22:44.000Z</time>
      </trkpt>
      <trkpt lat="48.85393" lon="2.35182">
        <ele>36</ele>
        <time>2015-08-10T20:22:48.000Z</time>
      </trkpt>
      <trkpt lat="48.85403" lon="2.35173">
        <ele>34.799999237061</ele>
        <time>2015-08-10T20:22:50.000Z</time>
      </trkpt>
      <trkpt lat="48.8542" lon="2.35155">
        <ele>34.400001525879</ele>
        <time>2015-08-10T20:22:54.000Z</time>
      </trkpt>
      <trkpt lat="48.85437" lon="2.3514">
        <ele>33.200000762939</ele>
        <time>2015-08-10T20:22:58.000Z</time>
      </trkpt>
      <trkpt lat="48.85453" lon="2.35122">
        <ele>32.200000762939</ele>
        <time>2015-08-10T20:23:02.000Z</time>
      </trkpt>
      <trkpt lat="48.85459" lon="2.3511">
        <ele>28.200000762939</ele>
        <time>2015-08-10T20:23:03.000Z</time>
      </trkpt>
      <trkpt lat="48.85473" lon="2.35087">
        <ele>24.799999237061</ele>
        <time>2015-08-10T20:23:07.000Z</time>
      </trkpt>
      <trkpt lat="48.85487" lon="2.35063">
        <ele>20.799999237061</ele>
        <time>2015-08-10T20:23:11.000Z</time>
      </trkpt>
      <trkpt lat="48.85501" lon="2.3504">
        <ele>19.200000762939</ele>
        <time>2015-08-10T20:23:16.000Z</time>
      </trkpt>
      <trkpt lat="48.85507" lon="2.3503">
        <ele>18.200000762939</ele>
        <time>2015-08-10T20:23:19.000Z</time>
      </trkpt>
      <trkpt lat="48.85513" lon="2.3502">
        <ele>17.60000038147</ele>
        <time>2015-08-10T20:23:23.000Z</time>
      </trkpt>
      <trkpt lat="48.85529" lon="2.35031">
        <ele>18.39999961853</ele>
        <time>2015-08-10T20:23:32.000Z</time>
      </trkpt>
      <trkpt lat="48.8553" lon="2.35032">
        <ele>18.799999237061</ele>
        <time>2015-08-10T20:23:34.000Z</time>
      </trkpt>
      <trkpt lat="48.85546" lon="2.35046">
        <ele>20.39999961853</ele>
        <time>2015-08-10T20:23:44.000Z</time>
      </trkpt>
      <trkpt lat="48.85563" lon="2.3506">
        <ele>20.39999961853</ele>
        <time>2015-08-10T20:23:50.000Z</time>
      </trkpt>
      <trkpt lat="48.85581" lon="2.3507">
        <ele>21.39999961853</ele>
        <time>2015-08-10T20:23:57.000Z</time>
      </trkpt>
      <trkpt lat="48.85592" lon="2.35077">
        <ele>21.799999237061</ele>
        <time>2015-08-10T20:24:03.000Z</time>
      </trkpt>
      <trkpt lat="48.8561" lon="2.35075">
        <ele>27</ele>
        <time>2015-08-10T20:24:20.000Z</time>
      </trkpt>
      <trkpt lat="48.8563" lon="2.35085">
        <ele>26.799999237061</ele>
        <time>2015-08-10T20:24:26.000Z</time>
      </trkpt>
      <trkpt lat="48.85652" lon="2.35095">
        <ele>26.39999961853</ele>
        <time>2015-08-10T20:24:31.000Z</time>
      </trkpt>
      <trkpt lat="48.8567" lon="2.35104">
        <ele>26.200000762939</ele>
        <time>2015-08-10T20:24:35.000Z</time>
      </trkpt>
      <trkpt lat="48.85686" lon="2.35084">
        <ele>26.200000762939</ele>
        <time>2015-08-10T20:24:39.000Z</time>
      </trkpt>
      <trkpt lat="48.85695" lon="2.3506">
        <ele>25</ele>
        <time>2015-08-10T20:24:42.000Z</time>
      </trkpt>
      <trkpt lat="48.85704" lon="2.35029">
        <ele>24.200000762939</ele>
        <time>2015-08-10T20:24:46.000Z</time>
      </trkpt>
      <trkpt lat="48.85713" lon="2.35005">
        <ele>21.39999961853</ele>
        <time>2015-08-10T20:24:49.000Z</time>
      </trkpt>
      <trkpt lat="48.85718" lon="2.34988">
        <ele>19</ele>
        <time>2015-08-10T20:24:51.000Z</time>
      </trkpt>
      <trkpt lat="48.85725" lon="2.34962">
        <ele>17</ele>
        <time>2015-08-10T20:24:54.000Z</time>
      </trkpt>
      <trkpt lat="48.85729" lon="2.34953">
        <ele>15.800000190735</ele>
        <time>2015-08-10T20:24:55.000Z</time>
      </trkpt>
      <trkpt lat="48.85738" lon="2.34924">
        <ele>13.800000190735</ele>
        <time>2015-08-10T20:24:58.000Z</time>
      </trkpt>
      <trkpt lat="48.85741" lon="2.34915">
        <ele>13.60000038147</ele>
        <time>2015-08-10T20:24:59.000Z</time>
      </trkpt>
      <trkpt lat="48.85746" lon="2.34898">
        <ele>13</ele>
        <time>2015-08-10T20:25:01.000Z</time>
      </trkpt>
      <trkpt lat="48.85755" lon="2.34865">
        <ele>13.39999961853</ele>
        <time>2015-08-10T20:25:05.000Z</time>
      </trkpt>
      <trkpt lat="48.85762" lon="2.34837">
        <ele>13.800000190735</ele>
        <time>2015-08-10T20:25:09.000Z</time>
      </trkpt>
      <trkpt lat="48.8577" lon="2.34805">
        <ele>14</ele>
        <time>2015-08-10T20:25:14.000Z</time>
      </trkpt>
      <trkpt lat="48.85783" lon="2.34789">
        <ele>17.60000038147</ele>
        <time>2015-08-10T20:25:20.000Z</time>
      </trkpt>
      <trkpt lat="48.85792" lon="2.34794">
        <ele>19.60000038147</ele>
        <time>2015-08-10T20:25:24.000Z</time>
      </trkpt>
      <trkpt lat="48.85807" lon="2.34803">
        <ele>25.60000038147</ele>
        <time>2015-08-10T20:25:29.000Z</time>
      </trkpt>
      <trkpt lat="48.85825" lon="2.34812">
        <ele>29.799999237061</ele>
        <time>2015-08-10T20:25:34.000Z</time>
      </trkpt>
      <trkpt lat="48.85849" lon="2.34808">
        <ele>24.799999237061</ele>
        <time>2015-08-10T20:25:39.000Z</time>
      </trkpt>
      <trkpt lat="48.85865" lon="2.34783">
        <ele>21.60000038147</ele>
        <time>2015-08-10T20:25:43.000Z</time>
      </trkpt>
      <trkpt lat="48.85875" lon="2.34756">
        <ele>22</ele>
        <time>2015-08-10T20:25:47.000Z</time>
      </trkpt>
      <trkpt lat="48.85889" lon="2.34744">
        <ele>23.60000038147</ele>
        <time>2015-08-10T20:25:51.000Z</time>
      </trkpt>
      <trkpt lat="48.85893" lon="2.34743">
        <ele>23.60000038147</ele>
        <time>2015-08-10T20:25:52.000Z</time>
      </trkpt>
      <trkpt lat="48.85906" lon="2.34739">
        <ele>24.200000762939</ele>
        <time>2015-08-10T20:25:55.000Z</time>
      </trkpt>
      <trkpt lat="48.85922" lon="2.34724">
        <ele>28</ele>
        <time>2015-08-10T20:25:59.000Z</time>
      </trkpt>
      <trkpt lat="48.85934" lon="2.34714">
        <ele>28.39999961853</ele>
        <time>2015-08-10T20:26:02.000Z</time>
      </trkpt>
      <trkpt lat="48.85954" lon="2.34717">
        <ele>32.200000762939</ele>
        <time>2015-08-10T20:26:08.000Z</time>
      </trkpt>
      <trkpt lat="48.85962" lon="2.34728">
        <ele>42.200000762939</ele>
        <time>2015-08-10T20:26:28.000Z</time>
      </trkpt>
      <trkpt lat="48.85964" lon="2.34727">
        <ele>46.200000762939</ele>
        <time>2015-08-10T20:26:47.000Z</time>
      </trkpt>
      <trkpt lat="48.85959" lon="2.34725">
        <ele>47.200000762939</ele>
        <time>2015-08-10T20:26:54.000Z</time>
      </trkpt>
      <trkpt lat="48.85954" lon="2.34725">
        <ele>47.599998474121</ele>
        <time>2015-08-10T20:26:59.000Z</time>
      </trkpt>
      <trkpt lat="48.85953" lon="2.34724">
        <ele>47.400001525879</ele>
        <time>2015-08-10T20:27:01.000Z</time>
      </trkpt>
      <trkpt lat="48.8596" lon="2.34721">
        <ele>47.400001525879</ele>
        <time>2015-08-10T20:27:08.000Z</time>
      </trkpt>
      <trkpt lat="48.85963" lon="2.34721">
        <ele>47.799999237061</ele>
        <time>2015-08-10T20:27:13.000Z</time>
      </trkpt>
      <trkpt lat="48.85957" lon="2.34729">
        <ele>49.400001525879</ele>
        <time>2015-08-10T20:27:23.000Z</time>
      </trkpt>
      <trkpt lat="48.85962" lon="2.34729">
        <ele>53.599998474121</ele>
        <time>2015-08-10T20:27:56.000Z</time>
      </trkpt>
      <trkpt lat="48.85963" lon="2.34719">
        <ele>61.400001525879</ele>
        <time>2015-08-10T20:28:54.000Z</time>
      </trkpt>
      <trkpt lat="48.8596" lon="2.34727">
        <ele>73.199996948242</ele>
        <time>2015-08-10T20:29:47.000Z</time>
      </trkpt>
      <trkpt lat="48.85959" lon="2.34727">
        <ele>73.199996948242</ele>
        <time>2015-08-10T20:29:49.000Z</time>
      </trkpt>
      <trkpt lat="48.85961" lon="2.34725">
        <ele>69.400001525879</ele>
        <time>2015-08-10T20:30:43.000Z</time>
      </trkpt>
      <trkpt lat="48.85959" lon="2.34712">
        <ele>74.800003051758</ele>
        <time>2015-08-10T20:31:59.000Z</time>
      </trkpt>
      <trkpt lat="48.85962" lon="2.34713">
        <ele>78.199996948242</ele>
        <time>2015-08-10T20:32:22.000Z</time>
      </trkpt>
      <trkpt lat="48.85959" lon="2.3472">
        <ele>79.400001525879</ele>
        <time>2015-08-10T20:33:27.000Z</time>
      </trkpt>
      <trkpt lat="48.85958" lon="2.34721">
        <ele>79.599998474121</ele>
        <time>2015-08-10T20:33:30.000Z</time>
      </trkpt>
      <trkpt lat="48.85963" lon="2.3472">
        <ele>80.199996948242</ele>
        <time>2015-08-10T20:33:59.000Z</time>
      </trkpt>
      <trkpt lat="48.85963" lon="2.34717">
        <ele>81</ele>
        <time>2015-08-10T20:34:51.000Z</time>
      </trkpt>
      <trkpt lat="48.85967" lon="2.34708">
        <ele>80.599998474121</ele>
        <time>2015-08-10T20:34:59.000Z</time>
      </trkpt>
      <trkpt lat="48.85965" lon="2.34699">
        <ele>79</ele>
        <time>2015-08-10T20:35:02.000Z</time>
      </trkpt>
      <trkpt lat="48.85943" lon="2.34701">
        <ele>67.599998474121</ele>
        <time>2015-08-10T20:35:10.000Z</time>
      </trkpt>
      <trkpt lat="48.8594" lon="2.34703">
        <ele>67.599998474121</ele>
        <time>2015-08-10T20:35:11.000Z</time>
      </trkpt>
      <trkpt lat="48.85923" lon="2.34718">
        <ele>63.400001525879</ele>
        <time>2015-08-10T20:35:17.000Z</time>
      </trkpt>
      <trkpt lat="48.85905" lon="2.34734">
        <ele>62.799999237061</ele>
        <time>2015-08-10T20:35:24.000Z</time>
      </trkpt>
      <trkpt lat="48.85887" lon="2.34741">
        <ele>64.599998474121</ele>
        <time>2015-08-10T20:35:31.000Z</time>
      </trkpt>
      <trkpt lat="48.85873" lon="2.34745">
        <ele>64.199996948242</ele>
        <time>2015-08-10T20:35:38.000Z</time>
      </trkpt>
      <trkpt lat="48.85864" lon="2.34745">
        <ele>64.599998474121</ele>
        <time>2015-08-10T20:35:42.000Z</time>
      </trkpt>
      <trkpt lat="48.85846" lon="2.3473">
        <ele>62.599998474121</ele>
        <time>2015-08-10T20:35:50.000Z</time>
      </trkpt>
      <trkpt lat="48.85826" lon="2.34717">
        <ele>59</ele>
        <time>2015-08-10T20:35:57.000Z</time>
      </trkpt>
      <trkpt lat="48.85805" lon="2.34714">
        <ele>55.599998474121</ele>
        <time>2015-08-10T20:36:03.000Z</time>
      </trkpt>
      <trkpt lat="48.85786" lon="2.3471">
        <ele>53.200000762939</ele>
        <time>2015-08-10T20:36:08.000Z</time>
      </trkpt>
      <trkpt lat="48.85766" lon="2.347">
        <ele>49.599998474121</ele>
        <time>2015-08-10T20:36:15.000Z</time>
      </trkpt>
      <trkpt lat="48.85748" lon="2.34689">
        <ele>44.200000762939</ele>
        <time>2015-08-10T20:36:22.000Z</time>
      </trkpt>
      <trkpt lat="48.85741" lon="2.34685">
        <ele>42</ele>
        <time>2015-08-10T20:36:27.000Z</time>
      </trkpt>
      <trkpt lat="48.85729" lon="2.34684">
        <ele>38</ele>
        <time>2015-08-10T20:36:46.000Z</time>
      </trkpt>
      <trkpt lat="48.85709" lon="2.34684">
        <ele>35.599998474121</ele>
        <time>2015-08-10T20:36:53.000Z</time>
      </trkpt>
      <trkpt lat="48.85692" lon="2.34671">
        <ele>34.799999237061</ele>
        <time>2015-08-10T20:36:59.000Z</time>
      </trkpt>
      <trkpt lat="48.85673" lon="2.34658">
        <ele>32.599998474121</ele>
        <time>2015-08-10T20:37:06.000Z</time>
      </trkpt>
      <trkpt lat="48.85654" lon="2.34646">
        <ele>31.39999961853</ele>
        <time>2015-08-10T20:37:12.000Z</time>
      </trkpt>
      <trkpt lat="48.85636" lon="2.34636">
        <ele>30.60000038147</ele>
        <time>2015-08-10T20:37:17.000Z</time>
      </trkpt>
      <trkpt lat="48.85617" lon="2.34624">
        <ele>30.200000762939</ele>
        <time>2015-08-10T20:37:22.000Z</time>
      </trkpt>
      <trkpt lat="48.85597" lon="2.3461">
        <ele>30.39999961853</ele>
        <time>2015-08-10T20:37:27.000Z</time>
      </trkpt>
      <trkpt lat="48.85578" lon="2.34601">
        <ele>31.39999961853</ele>
        <time>2015-08-10T20:37:32.000Z</time>
      </trkpt>
      <trkpt lat="48.85561" lon="2.34589">
        <ele>30.799999237061</ele>
        <time>2015-08-10T20:37:37.000Z</time>
      </trkpt>
      <trkpt lat="48.85545" lon="2.34571">
        <ele>31.200000762939</ele>
        <time>2015-08-10T20:37:42.000Z</time>
      </trkpt>
      <trkpt lat="48.85528" lon="2.34555">
        <ele>32.599998474121</ele>
        <time>2015-08-10T20:37:47.000Z</time>
      </trkpt>
      <trkpt lat="48.85509" lon="2.3454">
        <ele>32.599998474121</ele>
        <time>2015-08-10T20:37:53.000Z</time>
      </trkpt>
      <trkpt lat="48.85491" lon="2.34523">
        <ele>31.60000038147</ele>
        <time>2015-08-10T20:37:59.000Z</time>
      </trkpt>
      <trkpt lat="48.85472" lon="2.34515">
        <ele>31.799999237061</ele>
        <time>2015-08-10T20:38:04.000Z</time>
      </trkpt>
      <trkpt lat="48.85453" lon="2.34507">
        <ele>31.39999961853</ele>
        <time>2015-08-10T20:38:10.000Z</time>
      </trkpt>
      <trkpt lat="48.85441" lon="2.34477">
        <ele>33</ele>
        <time>2015-08-10T20:38:18.000Z</time>
      </trkpt>
      <trkpt lat="48.85425" lon="2.34457">
        <ele>30.799999237061</ele>
        <time>2015-08-10T20:38:25.000Z</time>
      </trkpt>
      <trkpt lat="48.85408" lon="2.34441">
        <ele>31.39999961853</ele>
        <time>2015-08-10T20:38:31.000Z</time>
      </trkpt>
      <trkpt lat="48.85392" lon="2.34429">
        <ele>32.599998474121</ele>
        <time>2015-08-10T20:38:39.000Z</time>
      </trkpt>
      <trkpt lat="48.8538" lon="2.34406">
        <ele>32.799999237061</ele>
        <time>2015-08-10T20:38:47.000Z</time>
      </trkpt>
      <trkpt lat="48.85363" lon="2.34396">
        <ele>32.799999237061</ele>
        <time>2015-08-10T20:38:52.000Z</time>
      </trkpt>
      <trkpt lat="48.85343" lon="2.34389">
        <ele>33.599998474121</ele>
        <time>2015-08-10T20:38:58.000Z</time>
      </trkpt>
      <trkpt lat="48.85334" lon="2.34387">
        <ele>34.599998474121</ele>
        <time>2015-08-10T20:39:02.000Z</time>
      </trkpt>
      <trkpt lat="48.85322" lon="2.34382">
        <ele>34.400001525879</ele>
        <time>2015-08-10T20:39:06.000Z</time>
      </trkpt>
      <trkpt lat="48.85304" lon="2.34378">
        <ele>35.200000762939</ele>
        <time>2015-08-10T20:39:12.000Z</time>
      </trkpt>
      <trkpt lat="48.85284" lon="2.34374">
        <ele>35.799999237061</ele>
        <time>2015-08-10T20:39:18.000Z</time>
      </trkpt>
      <trkpt lat="48.85266" lon="2.34364">
        <ele>35.200000762939</ele>
        <time>2015-08-10T20:39:27.000Z</time>
      </trkpt>
      <trkpt lat="48.85247" lon="2.34358">
        <ele>35.400001525879</ele>
        <time>2015-08-10T20:39:34.000Z</time>
      </trkpt>
      <trkpt lat="48.85227" lon="2.34351">
        <ele>37.200000762939</ele>
        <time>2015-08-10T20:39:40.000Z</time>
      </trkpt>
      <trkpt lat="48.85207" lon="2.34343">
        <ele>36.599998474121</ele>
        <time>2015-08-10T20:39:46.000Z</time>
      </trkpt>
      <trkpt lat="48.85188" lon="2.34332">
        <ele>36.799999237061</ele>
        <time>2015-08-10T20:39:52.000Z</time>
      </trkpt>
      <trkpt lat="48.8517" lon="2.34326">
        <ele>33.799999237061</ele>
        <time>2015-08-10T20:39:57.000Z</time>
      </trkpt>
      <trkpt lat="48.85158" lon="2.34319">
        <ele>32.400001525879</ele>
        <time>2015-08-10T20:40:03.000Z</time>
      </trkpt>
      <trkpt lat="48.85155" lon="2.34318">
        <ele>32.599998474121</ele>
        <time>2015-08-10T20:40:05.000Z</time>
      </trkpt>
      <trkpt lat="48.85141" lon="2.34303">
        <ele>35.599998474121</ele>
        <time>2015-08-10T20:40:44.000Z</time>
      </trkpt>
      <trkpt lat="48.85124" lon="2.34291">
        <ele>37</ele>
        <time>2015-08-10T20:40:51.000Z</time>
      </trkpt>
      <trkpt lat="48.85106" lon="2.34281">
        <ele>37.599998474121</ele>
        <time>2015-08-10T20:40:58.000Z</time>
      </trkpt>
      <trkpt lat="48.85089" lon="2.3427">
        <ele>38.400001525879</ele>
        <time>2015-08-10T20:41:05.000Z</time>
      </trkpt>
      <trkpt lat="48.85072" lon="2.34259">
        <ele>37.799999237061</ele>
        <time>2015-08-10T20:41:15.000Z</time>
      </trkpt>
      <trkpt lat="48.85054" lon="2.34251">
        <ele>36.799999237061</ele>
        <time>2015-08-10T20:41:22.000Z</time>
      </trkpt>
      <trkpt lat="48.85036" lon="2.34243">
        <ele>36</ele>
        <time>2015-08-10T20:41:29.000Z</time>
      </trkpt>
      <trkpt lat="48.85017" lon="2.34234">
        <ele>35.599998474121</ele>
        <time>2015-08-10T20:41:36.000Z</time>
      </trkpt>
      <trkpt lat="48.84997" lon="2.34228">
        <ele>36.200000762939</ele>
        <time>2015-08-10T20:41:42.000Z</time>
      </trkpt>
      <trkpt lat="48.84978" lon="2.34224">
        <ele>36.599998474121</ele>
        <time>2015-08-10T20:41:48.000Z</time>
      </trkpt>
      <trkpt lat="48.84961" lon="2.34217">
        <ele>41</ele>
        <time>2015-08-10T20:41:54.000Z</time>
      </trkpt>
      <trkpt lat="48.84943" lon="2.34211">
        <ele>45.400001525879</ele>
        <time>2015-08-10T20:42:00.000Z</time>
      </trkpt>
      <trkpt lat="48.84924" lon="2.34204">
        <ele>47.599998474121</ele>
        <time>2015-08-10T20:42:06.000Z</time>
      </trkpt>
      <trkpt lat="48.84905" lon="2.3419">
        <ele>46.599998474121</ele>
        <time>2015-08-10T20:42:12.000Z</time>
      </trkpt>
      <trkpt lat="48.84888" lon="2.34177">
        <ele>47.400001525879</ele>
        <time>2015-08-10T20:42:19.000Z</time>
      </trkpt>
      <trkpt lat="48.84879" lon="2.3417">
        <ele>47.200000762939</ele>
        <time>2015-08-10T20:42:23.000Z</time>
      </trkpt>
      <trkpt lat="48.84864" lon="2.3415">
        <ele>48.200000762939</ele>
        <time>2015-08-10T20:42:30.000Z</time>
      </trkpt>
      <trkpt lat="48.84847" lon="2.34137">
        <ele>48.200000762939</ele>
        <time>2015-08-10T20:42:36.000Z</time>
      </trkpt>
      <trkpt lat="48.84827" lon="2.34133">
        <ele>51</ele>
        <time>2015-08-10T20:42:43.000Z</time>
      </trkpt>
      <trkpt lat="48.84809" lon="2.34126">
        <ele>55.599998474121</ele>
        <time>2015-08-10T20:42:49.000Z</time>
      </trkpt>
      <trkpt lat="48.84791" lon="2.34123">
        <ele>58.200000762939</ele>
        <time>2015-08-10T20:42:55.000Z</time>
      </trkpt>
      <trkpt lat="48.84772" lon="2.34111">
        <ele>58.799999237061</ele>
        <time>2015-08-10T20:43:02.000Z</time>
      </trkpt>
      <trkpt lat="48.84757" lon="2.34092">
        <ele>56.799999237061</ele>
        <time>2015-08-10T20:43:09.000Z</time>
      </trkpt>
      <trkpt lat="48.84739" lon="2.34081">
        <ele>54.400001525879</ele>
        <time>2015-08-10T20:43:16.000Z</time>
      </trkpt>
      <trkpt lat="48.84721" lon="2.34066">
        <ele>53</ele>
        <time>2015-08-10T20:43:22.000Z</time>
      </trkpt>
      <trkpt lat="48.84704" lon="2.34053">
        <ele>50.200000762939</ele>
        <time>2015-08-10T20:43:28.000Z</time>
      </trkpt>
      <trkpt lat="48.84685" lon="2.34042">
        <ele>50</ele>
        <time>2015-08-10T20:43:35.000Z</time>
      </trkpt>
      <trkpt lat="48.84668" lon="2.34027">
        <ele>49.799999237061</ele>
        <time>2015-08-10T20:43:41.000Z</time>
      </trkpt>
      <trkpt lat="48.84651" lon="2.34017">
        <ele>49.400001525879</ele>
        <time>2015-08-10T20:43:46.000Z</time>
      </trkpt>
      <trkpt lat="48.84634" lon="2.34005">
        <ele>49.799999237061</ele>
        <time>2015-08-10T20:43:51.000Z</time>
      </trkpt>
      <trkpt lat="48.84615" lon="2.33994">
        <ele>51.599998474121</ele>
        <time>2015-08-10T20:43:56.000Z</time>
      </trkpt>
      <trkpt lat="48.84595" lon="2.33986">
        <ele>52.599998474121</ele>
        <time>2015-08-10T20:44:01.000Z</time>
      </trkpt>
      <trkpt lat="48.84575" lon="2.33978">
        <ele>53.599998474121</ele>
        <time>2015-08-10T20:44:06.000Z</time>
      </trkpt>
      <trkpt lat="48.84555" lon="2.3397">
        <ele>53.599998474121</ele>
        <time>2015-08-10T20:44:11.000Z</time>
      </trkpt>
      <trkpt lat="48.84535" lon="2.33961">
        <ele>53</ele>
        <time>2015-08-10T20:44:16.000Z</time>
      </trkpt>
      <trkpt lat="48.84516" lon="2.33952">
        <ele>53.599998474121</ele>
        <time>2015-08-10T20:44:21.000Z</time>
      </trkpt>
      <trkpt lat="48.84497" lon="2.33944">
        <ele>54.200000762939</ele>
        <time>2015-08-10T20:44:26.000Z</time>
      </trkpt>
      <trkpt lat="48.84477" lon="2.33936">
        <ele>55.599998474121</ele>
        <time>2015-08-10T20:44:32.000Z</time>
      </trkpt>
      <trkpt lat="48.84458" lon="2.33926">
        <ele>56.599998474121</ele>
        <time>2015-08-10T20:44:37.000Z</time>
      </trkpt>
      <trkpt lat="48.84438" lon="2.33915">
        <ele>58.599998474121</ele>
        <time>2015-08-10T20:44:42.000Z</time>
      </trkpt>
      <trkpt lat="48.84419" lon="2.33905">
        <ele>56.200000762939</ele>
        <time>2015-08-10T20:44:47.000Z</time>
      </trkpt>
      <trkpt lat="48.844" lon="2.3389">
        <ele>56.599998474121</ele>
        <time>2015-08-10T20:44:53.000Z</time>
      </trkpt>
      <trkpt lat="48.84381" lon="2.3388">
        <ele>57.799999237061</ele>
        <time>2015-08-10T20:45:00.000Z</time>
      </trkpt>
      <trkpt lat="48.84361" lon="2.33869">
        <ele>59.200000762939</ele>
        <time>2015-08-10T20:45:06.000Z</time>
      </trkpt>
      <trkpt lat="48.84341" lon="2.33864">
        <ele>58.200000762939</ele>
        <time>2015-08-10T20:45:12.000Z</time>
      </trkpt>
      <trkpt lat="48.84324" lon="2.33853">
        <ele>58.799999237061</ele>
        <time>2015-08-10T20:45:18.000Z</time>
      </trkpt>
      <trkpt lat="48.84306" lon="2.3384">
        <ele>59.400001525879</ele>
        <time>2015-08-10T20:45:24.000Z</time>
      </trkpt>
      <trkpt lat="48.84288" lon="2.33833">
        <ele>59.200000762939</ele>
        <time>2015-08-10T20:45:30.000Z</time>
      </trkpt>
      <trkpt lat="48.84269" lon="2.33824">
        <ele>57.599998474121</ele>
        <time>2015-08-10T20:45:36.000Z</time>
      </trkpt>
      <trkpt lat="48.84254" lon="2.33806">
        <ele>56.799999237061</ele>
        <time>2015-08-10T20:45:41.000Z</time>
      </trkpt>
      <trkpt lat="48.84237" lon="2.33793">
        <ele>56.599998474121</ele>
        <time>2015-08-10T20:45:47.000Z</time>
      </trkpt>
      <trkpt lat="48.8422" lon="2.33783">
        <ele>56</ele>
        <time>2015-08-10T20:45:53.000Z</time>
      </trkpt>
      <trkpt lat="48.84199" lon="2.33776">
        <ele>56</ele>
        <time>2015-08-10T20:46:00.000Z</time>
      </trkpt>
      <trkpt lat="48.84183" lon="2.33765">
        <ele>56.599998474121</ele>
        <time>2015-08-10T20:46:06.000Z</time>
      </trkpt>
      <trkpt lat="48.84164" lon="2.33753">
        <ele>56.200000762939</ele>
        <time>2015-08-10T20:46:14.000Z</time>
      </trkpt>
      <trkpt lat="48.84145" lon="2.33739">
        <ele>56.599998474121</ele>
        <time>2015-08-10T20:46:21.000Z</time>
      </trkpt>
      <trkpt lat="48.84127" lon="2.33731">
        <ele>57</ele>
        <time>2015-08-10T20:46:27.000Z</time>
      </trkpt>
      <trkpt lat="48.84109" lon="2.33719">
        <ele>57.200000762939</ele>
        <time>2015-08-10T20:46:33.000Z</time>
      </trkpt>
      <trkpt lat="48.8409" lon="2.33707">
        <ele>57.799999237061</ele>
        <time>2015-08-10T20:46:39.000Z</time>
      </trkpt>
      <trkpt lat="48.84074" lon="2.33691">
        <ele>56.799999237061</ele>
        <time>2015-08-10T20:46:45.000Z</time>
      </trkpt>
      <trkpt lat="48.84057" lon="2.33675">
        <ele>54</ele>
        <time>2015-08-10T20:46:51.000Z</time>
      </trkpt>
      <trkpt lat="48.84041" lon="2.33659">
        <ele>52.400001525879</ele>
        <time>2015-08-10T20:46:57.000Z</time>
      </trkpt>
      <trkpt lat="48.84021" lon="2.3365">
        <ele>52</ele>
        <time>2015-08-10T20:47:03.000Z</time>
      </trkpt>
      <trkpt lat="48.84001" lon="2.33642">
        <ele>52.599998474121</ele>
        <time>2015-08-10T20:47:10.000Z</time>
      </trkpt>
      <trkpt lat="48.83981" lon="2.33641">
        <ele>54.200000762939</ele>
        <time>2015-08-10T20:47:17.000Z</time>
      </trkpt>
      <trkpt lat="48.83963" lon="2.33644">
        <ele>54.400001525879</ele>
        <time>2015-08-10T20:47:24.000Z</time>
      </trkpt>
      <trkpt lat="48.83944" lon="2.33644">
        <ele>54.200000762939</ele>
        <time>2015-08-10T20:47:31.000Z</time>
      </trkpt>
      <trkpt lat="48.83926" lon="2.33643">
        <ele>55</ele>
        <time>2015-08-10T20:47:37.000Z</time>
      </trkpt>
      <trkpt lat="48.83905" lon="2.33658">
        <ele>59.400001525879</ele>
        <time>2015-08-10T20:47:43.000Z</time>
      </trkpt>
      <trkpt lat="48.83885" lon="2.33661">
        <ele>61</ele>
        <time>2015-08-10T20:47:49.000Z</time>
      </trkpt>
      <trkpt lat="48.83866" lon="2.3365">
        <ele>60</ele>
        <time>2015-08-10T20:47:55.000Z</time>
      </trkpt>
      <trkpt lat="48.83851" lon="2.33633">
        <ele>60</ele>
        <time>2015-08-10T20:48:00.000Z</time>
      </trkpt>
      <trkpt lat="48.83834" lon="2.33618">
        <ele>63</ele>
        <time>2015-08-10T20:48:06.000Z</time>
      </trkpt>
      <trkpt lat="48.83817" lon="2.33604">
        <ele>65</ele>
        <time>2015-08-10T20:48:12.000Z</time>
      </trkpt>
      <trkpt lat="48.838" lon="2.33593">
        <ele>67.400001525879</ele>
        <time>2015-08-10T20:48:17.000Z</time>
      </trkpt>
      <trkpt lat="48.83786" lon="2.33576">
        <ele>69</ele>
        <time>2015-08-10T20:48:22.000Z</time>
      </trkpt>
      <trkpt lat="48.83767" lon="2.33561">
        <ele>70</ele>
        <time>2015-08-10T20:48:28.000Z</time>
      </trkpt>
      <trkpt lat="48.83752" lon="2.33544">
        <ele>68.800003051758</ele>
        <time>2015-08-10T20:48:34.000Z</time>
      </trkpt>
      <trkpt lat="48.83737" lon="2.33521">
        <ele>65</ele>
        <time>2015-08-10T20:48:40.000Z</time>
      </trkpt>
      <trkpt lat="48.83723" lon="2.33501">
        <ele>62.200000762939</ele>
        <time>2015-08-10T20:48:46.000Z</time>
      </trkpt>
      <trkpt lat="48.83707" lon="2.33486">
        <ele>62.400001525879</ele>
        <time>2015-08-10T20:48:52.000Z</time>
      </trkpt>
      <trkpt lat="48.83693" lon="2.33468">
        <ele>62</ele>
        <time>2015-08-10T20:48:58.000Z</time>
      </trkpt>
      <trkpt lat="48.83678" lon="2.33452">
        <ele>60.200000762939</ele>
        <time>2015-08-10T20:49:04.000Z</time>
      </trkpt>
      <trkpt lat="48.83662" lon="2.33435">
        <ele>59.400001525879</ele>
        <time>2015-08-10T20:49:10.000Z</time>
      </trkpt>
      <trkpt lat="48.83646" lon="2.33415">
        <ele>60.200000762939</ele>
        <time>2015-08-10T20:49:16.000Z</time>
      </trkpt>
      <trkpt lat="48.83628" lon="2.33399">
        <ele>61.400001525879</ele>
        <time>2015-08-10T20:49:22.000Z</time>
      </trkpt>
      <trkpt lat="48.8361" lon="2.33387">
        <ele>62.200000762939</ele>
        <time>2015-08-10T20:49:28.000Z</time>
      </trkpt>
      <trkpt lat="48.83591" lon="2.33379">
        <ele>62</ele>
        <time>2015-08-10T20:49:34.000Z</time>
      </trkpt>
      <trkpt lat="48.83574" lon="2.33363">
        <ele>62.200000762939</ele>
        <time>2015-08-10T20:49:40.000Z</time>
      </trkpt>
      <trkpt lat="48.83556" lon="2.33347">
        <ele>62.400001525879</ele>
        <time>2015-08-10T20:49:46.000Z</time>
      </trkpt>
      <trkpt lat="48.83538" lon="2.33331">
        <ele>63.400001525879</ele>
        <time>2015-08-10T20:49:52.000Z</time>
      </trkpt>
      <trkpt lat="48.83518" lon="2.3332">
        <ele>64</ele>
        <time>2015-08-10T20:49:58.000Z</time>
      </trkpt>
      <trkpt lat="48.835" lon="2.33304">
        <ele>62.599998474121</ele>
        <time>2015-08-10T20:50:04.000Z</time>
      </trkpt>
      <trkpt lat="48.83485" lon="2.33286">
        <ele>65.400001525879</ele>
        <time>2015-08-10T20:50:11.000Z</time>
      </trkpt>
      <trkpt lat="48.83476" lon="2.33279">
        <ele>66.199996948242</ele>
        <time>2015-08-10T20:50:16.000Z</time>
      </trkpt>
      <trkpt lat="48.83461" lon="2.33288">
        <ele>66.400001525879</ele>
        <time>2015-08-10T20:50:43.000Z</time>
      </trkpt>
      <trkpt lat="48.83442" lon="2.33302">
        <ele>66.199996948242</ele>
        <time>2015-08-10T20:50:51.000Z</time>
      </trkpt>
      <trkpt lat="48.83436" lon="2.33305">
        <ele>66</ele>
        <time>2015-08-10T20:50:54.000Z</time>
      </trkpt>
      <trkpt lat="48.83429" lon="2.33298">
        <ele>65.400001525879</ele>
        <time>2015-08-10T20:51:00.000Z</time>
      </trkpt>
      <trkpt lat="48.83418" lon="2.33275">
        <ele>64.800003051758</ele>
        <time>2015-08-10T20:51:07.000Z</time>
      </trkpt>
      <trkpt lat="48.83404" lon="2.33284">
        <ele>62.400001525879</ele>
        <time>2015-08-10T20:51:14.000Z</time>
      </trkpt>
      <trkpt lat="48.83391" lon="2.33305">
        <ele>61.200000762939</ele>
        <time>2015-08-10T20:51:21.000Z</time>
      </trkpt>
      <trkpt lat="48.83373" lon="2.33305">
        <ele>61.400001525879</ele>
        <time>2015-08-10T20:51:28.000Z</time>
      </trkpt>
      <trkpt lat="48.83361" lon="2.33284">
        <ele>61</ele>
        <time>2015-08-10T20:51:36.000Z</time>
      </trkpt>
      <trkpt lat="48.8335" lon="2.33264">
        <ele>61</ele>
        <time>2015-08-10T20:51:59.000Z</time>
      </trkpt>
      <trkpt lat="48.83344" lon="2.33258">
        <ele>61</ele>
        <time>2015-08-10T20:52:04.000Z</time>
      </trkpt>
      <trkpt lat="48.83335" lon="2.33258">
        <ele>61.400001525879</ele>
        <time>2015-08-10T20:52:09.000Z</time>
      </trkpt>
      <trkpt lat="48.83323" lon="2.33256">
        <ele>61</ele>
        <time>2015-08-10T20:52:18.000Z</time>
      </trkpt>
    </trkseg>
  </trk>
</gpx>